<?xml version="1.0" encoding="UTF-8" standalone="no" ?>
<gpx xmlns="http://www.topografix.com/GPX/1/1" xmlns:xsi="http://www.w3.org/2001/XMLSchema-instance" xsi:schemaLocation="http://www.topografix.com/GPX/1/1 http://www.topografix.com/GPX/1/1/gpx.xsd" version="1.1" creator="VisuGPX - https://www.visugpx.com">
  <metadata>
    <name>Entre Blanquefort et Loubejac</name>
    <desc><![CDATA[Une belle boucle avec très peu de route et deux ou trois belles bosses.]]></desc>
  </metadata>
  <trk>
    <name><![CDATA[Entre Blanquefort et Loubejac_1]]></name>
    <trkseg>
      <trkpt lat="44.60047" lon="0.96996">
        <ele>91</ele>
        <time>2012-10-14T05:53:27Z</time>
      </trkpt>
      <trkpt lat="44.60021" lon="0.97013">
        <ele>109</ele>
        <time>2012-10-14T05:54:44Z</time>
      </trkpt>
      <trkpt lat="44.60014" lon="0.97011">
        <ele>109</ele>
        <time>2012-10-14T05:54:48Z</time>
      </trkpt>
      <trkpt lat="44.60003" lon="0.97013">
        <ele>109</ele>
        <time>2012-10-14T05:54:51Z</time>
      </trkpt>
      <trkpt lat="44.59997" lon="0.97018">
        <ele>109</ele>
        <time>2012-10-14T05:54:54Z</time>
      </trkpt>
      <trkpt lat="44.59987" lon="0.97031">
        <ele>111</ele>
        <time>2012-10-14T05:54:57Z</time>
      </trkpt>
      <trkpt lat="44.59982" lon="0.97036">
        <ele>112</ele>
        <time>2012-10-14T05:55:00Z</time>
      </trkpt>
      <trkpt lat="44.59969" lon="0.97048">
        <ele>115</ele>
        <time>2012-10-14T05:55:05Z</time>
      </trkpt>
      <trkpt lat="44.59955" lon="0.9706">
        <ele>118</ele>
        <time>2012-10-14T05:55:10Z</time>
      </trkpt>
      <trkpt lat="44.59945" lon="0.97072">
        <ele>121</ele>
        <time>2012-10-14T05:55:15Z</time>
      </trkpt>
      <trkpt lat="44.59943" lon="0.97083">
        <ele>123</ele>
        <time>2012-10-14T05:55:17Z</time>
      </trkpt>
      <trkpt lat="44.59944" lon="0.97094">
        <ele>125</ele>
        <time>2012-10-14T05:55:19Z</time>
      </trkpt>
      <trkpt lat="44.59947" lon="0.97103">
        <ele>125</ele>
        <time>2012-10-14T05:55:24Z</time>
      </trkpt>
      <trkpt lat="44.59951" lon="0.97127">
        <ele>125</ele>
        <time>2012-10-14T05:55:28Z</time>
      </trkpt>
      <trkpt lat="44.59958" lon="0.97143">
        <ele>126</ele>
        <time>2012-10-14T05:55:34Z</time>
      </trkpt>
      <trkpt lat="44.59982" lon="0.97159">
        <ele>129</ele>
        <time>2012-10-14T05:55:41Z</time>
      </trkpt>
      <trkpt lat="44.59996" lon="0.97168">
        <ele>131</ele>
        <time>2012-10-14T05:55:46Z</time>
      </trkpt>
      <trkpt lat="44.60001" lon="0.97174">
        <ele>134</ele>
        <time>2012-10-14T05:55:48Z</time>
      </trkpt>
      <trkpt lat="44.60013" lon="0.97184">
        <ele>135</ele>
        <time>2012-10-14T05:55:52Z</time>
      </trkpt>
      <trkpt lat="44.60021" lon="0.97189">
        <ele>138</ele>
        <time>2012-10-14T05:55:55Z</time>
      </trkpt>
      <trkpt lat="44.60027" lon="0.97189">
        <ele>139</ele>
        <time>2012-10-14T05:55:59Z</time>
      </trkpt>
      <trkpt lat="44.6004" lon="0.97183">
        <ele>139</ele>
        <time>2012-10-14T05:56:01Z</time>
      </trkpt>
      <trkpt lat="44.60049" lon="0.97174">
        <ele>139</ele>
        <time>2012-10-14T05:56:06Z</time>
      </trkpt>
      <trkpt lat="44.60065" lon="0.9716">
        <ele>135</ele>
        <time>2012-10-14T05:56:12Z</time>
      </trkpt>
      <trkpt lat="44.60077" lon="0.97162">
        <ele>131</ele>
        <time>2012-10-14T05:56:14Z</time>
      </trkpt>
      <trkpt lat="44.60083" lon="0.97168">
        <ele>128</ele>
        <time>2012-10-14T05:56:20Z</time>
      </trkpt>
      <trkpt lat="44.60094" lon="0.97186">
        <ele>126</ele>
        <time>2012-10-14T05:56:23Z</time>
      </trkpt>
      <trkpt lat="44.60095" lon="0.97193">
        <ele>126</ele>
        <time>2012-10-14T05:56:28Z</time>
      </trkpt>
      <trkpt lat="44.60106" lon="0.97211">
        <ele>126</ele>
        <time>2012-10-14T05:56:33Z</time>
      </trkpt>
      <trkpt lat="44.60124" lon="0.97239">
        <ele>128</ele>
        <time>2012-10-14T05:56:40Z</time>
      </trkpt>
      <trkpt lat="44.60125" lon="0.97242">
        <ele>130</ele>
        <time>2012-10-14T05:56:42Z</time>
      </trkpt>
      <trkpt lat="44.60126" lon="0.97245">
        <ele>134</ele>
        <time>2012-10-14T05:56:44Z</time>
      </trkpt>
      <trkpt lat="44.60128" lon="0.97247">
        <ele>136</ele>
        <time>2012-10-14T05:56:49Z</time>
      </trkpt>
      <trkpt lat="44.60135" lon="0.97251">
        <ele>143</ele>
        <time>2012-10-14T05:56:58Z</time>
      </trkpt>
      <trkpt lat="44.60137" lon="0.97253">
        <ele>144</ele>
        <time>2012-10-14T05:57:06Z</time>
      </trkpt>
      <trkpt lat="44.60136" lon="0.97252">
        <ele>143</ele>
        <time>2012-10-14T05:57:14Z</time>
      </trkpt>
      <trkpt lat="44.60139" lon="0.97248">
        <ele>140</ele>
        <time>2012-10-14T05:57:22Z</time>
      </trkpt>
      <trkpt lat="44.60139" lon="0.97245">
        <ele>135</ele>
        <time>2012-10-14T05:57:25Z</time>
      </trkpt>
      <trkpt lat="44.6014" lon="0.97243">
        <ele>132</ele>
        <time>2012-10-14T05:57:30Z</time>
      </trkpt>
      <trkpt lat="44.60141" lon="0.97239">
        <ele>123</ele>
        <time>2012-10-14T05:57:33Z</time>
      </trkpt>
      <trkpt lat="44.60142" lon="0.9724">
        <ele>121</ele>
        <time>2012-10-14T05:57:39Z</time>
      </trkpt>
      <trkpt lat="44.60144" lon="0.97248">
        <ele>119</ele>
        <time>2012-10-14T05:57:48Z</time>
      </trkpt>
      <trkpt lat="44.60144" lon="0.97251">
        <ele>124</ele>
        <time>2012-10-14T05:57:57Z</time>
      </trkpt>
      <trkpt lat="44.60152" lon="0.97263">
        <ele>128</ele>
        <time>2012-10-14T05:57:59Z</time>
      </trkpt>
      <trkpt lat="44.60156" lon="0.97269">
        <ele>130</ele>
        <time>2012-10-14T05:58:04Z</time>
      </trkpt>
      <trkpt lat="44.60175" lon="0.97282">
        <ele>136</ele>
        <time>2012-10-14T05:58:11Z</time>
      </trkpt>
      <trkpt lat="44.60192" lon="0.97295">
        <ele>142</ele>
        <time>2012-10-14T05:58:18Z</time>
      </trkpt>
      <trkpt lat="44.60203" lon="0.9731">
        <ele>145</ele>
        <time>2012-10-14T05:58:20Z</time>
      </trkpt>
      <trkpt lat="44.60207" lon="0.97316">
        <ele>147</ele>
        <time>2012-10-14T05:58:27Z</time>
      </trkpt>
      <trkpt lat="44.6021" lon="0.97327">
        <ele>150</ele>
        <time>2012-10-14T05:58:29Z</time>
      </trkpt>
      <trkpt lat="44.60211" lon="0.9733">
        <ele>151</ele>
        <time>2012-10-14T05:58:35Z</time>
      </trkpt>
      <trkpt lat="44.6022" lon="0.97356">
        <ele>152</ele>
        <time>2012-10-14T05:58:42Z</time>
      </trkpt>
      <trkpt lat="44.60231" lon="0.97403">
        <ele>152</ele>
        <time>2012-10-14T05:58:49Z</time>
      </trkpt>
      <trkpt lat="44.60247" lon="0.97444">
        <ele>152</ele>
        <time>2012-10-14T05:58:52Z</time>
      </trkpt>
      <trkpt lat="44.60261" lon="0.97457">
        <ele>152</ele>
        <time>2012-10-14T05:58:57Z</time>
      </trkpt>
      <trkpt lat="44.60282" lon="0.97473">
        <ele>148</ele>
        <time>2012-10-14T05:59:03Z</time>
      </trkpt>
      <trkpt lat="44.60287" lon="0.97485">
        <ele>142</ele>
        <time>2012-10-14T05:59:05Z</time>
      </trkpt>
      <trkpt lat="44.60285" lon="0.9749">
        <ele>140</ele>
        <time>2012-10-14T05:59:12Z</time>
      </trkpt>
      <trkpt lat="44.60284" lon="0.97496">
        <ele>138</ele>
        <time>2012-10-14T05:59:20Z</time>
      </trkpt>
      <trkpt lat="44.60284" lon="0.97498">
        <ele>138</ele>
        <time>2012-10-14T05:59:31Z</time>
      </trkpt>
      <trkpt lat="44.60284" lon="0.97499">
        <ele>138</ele>
        <time>2012-10-14T05:59:48Z</time>
      </trkpt>
      <trkpt lat="44.60283" lon="0.97499">
        <ele>138</ele>
        <time>2012-10-14T06:00:10Z</time>
      </trkpt>
      <trkpt lat="44.60281" lon="0.97499">
        <ele>140</ele>
        <time>2012-10-14T06:00:43Z</time>
      </trkpt>
      <trkpt lat="44.60281" lon="0.975">
        <ele>140</ele>
        <time>2012-10-14T06:01:23Z</time>
      </trkpt>
      <trkpt lat="44.60279" lon="0.97502">
        <ele>140</ele>
        <time>2012-10-14T06:01:34Z</time>
      </trkpt>
      <trkpt lat="44.60274" lon="0.9751">
        <ele>140</ele>
        <time>2012-10-14T06:01:40Z</time>
      </trkpt>
      <trkpt lat="44.6027" lon="0.97518">
        <ele>140</ele>
        <time>2012-10-14T06:01:45Z</time>
      </trkpt>
      <trkpt lat="44.6026" lon="0.97534">
        <ele>139</ele>
        <time>2012-10-14T06:01:52Z</time>
      </trkpt>
      <trkpt lat="44.60248" lon="0.97557">
        <ele>137</ele>
        <time>2012-10-14T06:01:58Z</time>
      </trkpt>
      <trkpt lat="44.60239" lon="0.9758">
        <ele>137</ele>
        <time>2012-10-14T06:02:05Z</time>
      </trkpt>
      <trkpt lat="44.60235" lon="0.97606">
        <ele>137</ele>
        <time>2012-10-14T06:02:07Z</time>
      </trkpt>
      <trkpt lat="44.60235" lon="0.97615">
        <ele>137</ele>
        <time>2012-10-14T06:02:12Z</time>
      </trkpt>
      <trkpt lat="44.60237" lon="0.97645">
        <ele>137</ele>
        <time>2012-10-14T06:02:19Z</time>
      </trkpt>
      <trkpt lat="44.60239" lon="0.9768">
        <ele>137</ele>
        <time>2012-10-14T06:02:26Z</time>
      </trkpt>
      <trkpt lat="44.60239" lon="0.9772">
        <ele>137</ele>
        <time>2012-10-14T06:02:33Z</time>
      </trkpt>
      <trkpt lat="44.6024" lon="0.97758">
        <ele>137</ele>
        <time>2012-10-14T06:02:40Z</time>
      </trkpt>
      <trkpt lat="44.60231" lon="0.97794">
        <ele>136</ele>
        <time>2012-10-14T06:02:48Z</time>
      </trkpt>
      <trkpt lat="44.60213" lon="0.97822">
        <ele>136</ele>
        <time>2012-10-14T06:02:50Z</time>
      </trkpt>
      <trkpt lat="44.60208" lon="0.9783">
        <ele>136</ele>
        <time>2012-10-14T06:02:56Z</time>
      </trkpt>
      <trkpt lat="44.60194" lon="0.97864">
        <ele>136</ele>
        <time>2012-10-14T06:03:03Z</time>
      </trkpt>
      <trkpt lat="44.60185" lon="0.97897">
        <ele>138</ele>
        <time>2012-10-14T06:03:10Z</time>
      </trkpt>
      <trkpt lat="44.60178" lon="0.97932">
        <ele>141</ele>
        <time>2012-10-14T06:03:17Z</time>
      </trkpt>
      <trkpt lat="44.60171" lon="0.97955">
        <ele>144</ele>
        <time>2012-10-14T06:03:19Z</time>
      </trkpt>
      <trkpt lat="44.60168" lon="0.97967">
        <ele>146</ele>
        <time>2012-10-14T06:03:26Z</time>
      </trkpt>
      <trkpt lat="44.60165" lon="0.97989">
        <ele>149</ele>
        <time>2012-10-14T06:03:33Z</time>
      </trkpt>
      <trkpt lat="44.60166" lon="0.98015">
        <ele>153</ele>
        <time>2012-10-14T06:03:41Z</time>
      </trkpt>
      <trkpt lat="44.60167" lon="0.98034">
        <ele>156</ele>
        <time>2012-10-14T06:03:43Z</time>
      </trkpt>
      <trkpt lat="44.60167" lon="0.9804">
        <ele>157</ele>
        <time>2012-10-14T06:03:47Z</time>
      </trkpt>
      <trkpt lat="44.60165" lon="0.98057">
        <ele>160</ele>
        <time>2012-10-14T06:03:49Z</time>
      </trkpt>
      <trkpt lat="44.60163" lon="0.98066">
        <ele>162</ele>
        <time>2012-10-14T06:03:54Z</time>
      </trkpt>
      <trkpt lat="44.60156" lon="0.98081">
        <ele>168</ele>
        <time>2012-10-14T06:03:56Z</time>
      </trkpt>
      <trkpt lat="44.60154" lon="0.98088">
        <ele>171</ele>
        <time>2012-10-14T06:04:03Z</time>
      </trkpt>
      <trkpt lat="44.60157" lon="0.98109">
        <ele>174</ele>
        <time>2012-10-14T06:04:09Z</time>
      </trkpt>
      <trkpt lat="44.60161" lon="0.98123">
        <ele>177</ele>
        <time>2012-10-14T06:04:12Z</time>
      </trkpt>
      <trkpt lat="44.60163" lon="0.98133">
        <ele>179</ele>
        <time>2012-10-14T06:04:18Z</time>
      </trkpt>
      <trkpt lat="44.60174" lon="0.98166">
        <ele>181</ele>
        <time>2012-10-14T06:04:23Z</time>
      </trkpt>
      <trkpt lat="44.60176" lon="0.98178">
        <ele>183</ele>
        <time>2012-10-14T06:04:30Z</time>
      </trkpt>
      <trkpt lat="44.60171" lon="0.98199">
        <ele>186</ele>
        <time>2012-10-14T06:04:33Z</time>
      </trkpt>
      <trkpt lat="44.60168" lon="0.98208">
        <ele>187</ele>
        <time>2012-10-14T06:04:38Z</time>
      </trkpt>
      <trkpt lat="44.60162" lon="0.98221">
        <ele>187</ele>
        <time>2012-10-14T06:04:40Z</time>
      </trkpt>
      <trkpt lat="44.60159" lon="0.98226">
        <ele>187</ele>
        <time>2012-10-14T06:04:45Z</time>
      </trkpt>
      <trkpt lat="44.60147" lon="0.98239">
        <ele>187</ele>
        <time>2012-10-14T06:04:52Z</time>
      </trkpt>
      <trkpt lat="44.60135" lon="0.98248">
        <ele>187</ele>
        <time>2012-10-14T06:04:58Z</time>
      </trkpt>
      <trkpt lat="44.60123" lon="0.98257">
        <ele>186</ele>
        <time>2012-10-14T06:05:05Z</time>
      </trkpt>
      <trkpt lat="44.60111" lon="0.9827">
        <ele>183</ele>
        <time>2012-10-14T06:05:07Z</time>
      </trkpt>
      <trkpt lat="44.60106" lon="0.9828">
        <ele>179</ele>
        <time>2012-10-14T06:05:13Z</time>
      </trkpt>
      <trkpt lat="44.601" lon="0.98295">
        <ele>175</ele>
        <time>2012-10-14T06:05:15Z</time>
      </trkpt>
      <trkpt lat="44.60098" lon="0.98302">
        <ele>173</ele>
        <time>2012-10-14T06:05:20Z</time>
      </trkpt>
      <trkpt lat="44.60093" lon="0.98325">
        <ele>172</ele>
        <time>2012-10-14T06:05:27Z</time>
      </trkpt>
      <trkpt lat="44.60088" lon="0.98348">
        <ele>174</ele>
        <time>2012-10-14T06:05:33Z</time>
      </trkpt>
      <trkpt lat="44.60086" lon="0.98372">
        <ele>177</ele>
        <time>2012-10-14T06:05:40Z</time>
      </trkpt>
      <trkpt lat="44.60083" lon="0.98397">
        <ele>183</ele>
        <time>2012-10-14T06:05:47Z</time>
      </trkpt>
      <trkpt lat="44.60078" lon="0.98434">
        <ele>189</ele>
        <time>2012-10-14T06:05:53Z</time>
      </trkpt>
      <trkpt lat="44.60077" lon="0.98447">
        <ele>193</ele>
        <time>2012-10-14T06:06:00Z</time>
      </trkpt>
      <trkpt lat="44.60072" lon="0.98474">
        <ele>196</ele>
        <time>2012-10-14T06:06:07Z</time>
      </trkpt>
      <trkpt lat="44.60066" lon="0.98484">
        <ele>197</ele>
        <time>2012-10-14T06:06:14Z</time>
      </trkpt>
      <trkpt lat="44.60058" lon="0.98497">
        <ele>197</ele>
        <time>2012-10-14T06:06:21Z</time>
      </trkpt>
      <trkpt lat="44.60051" lon="0.98514">
        <ele>194</ele>
        <time>2012-10-14T06:06:28Z</time>
      </trkpt>
      <trkpt lat="44.60047" lon="0.98532">
        <ele>192</ele>
        <time>2012-10-14T06:06:35Z</time>
      </trkpt>
      <trkpt lat="44.60042" lon="0.9855">
        <ele>192</ele>
        <time>2012-10-14T06:06:42Z</time>
      </trkpt>
      <trkpt lat="44.60036" lon="0.98565">
        <ele>192</ele>
        <time>2012-10-14T06:06:49Z</time>
      </trkpt>
      <trkpt lat="44.60031" lon="0.98575">
        <ele>192</ele>
        <time>2012-10-14T06:06:56Z</time>
      </trkpt>
      <trkpt lat="44.60023" lon="0.9859">
        <ele>194</ele>
        <time>2012-10-14T06:07:03Z</time>
      </trkpt>
      <trkpt lat="44.60019" lon="0.98602">
        <ele>195</ele>
        <time>2012-10-14T06:07:05Z</time>
      </trkpt>
      <trkpt lat="44.60017" lon="0.98607">
        <ele>196</ele>
        <time>2012-10-14T06:07:07Z</time>
      </trkpt>
      <trkpt lat="44.60016" lon="0.98612">
        <ele>196</ele>
        <time>2012-10-14T06:07:13Z</time>
      </trkpt>
      <trkpt lat="44.60011" lon="0.98634">
        <ele>198</ele>
        <time>2012-10-14T06:07:20Z</time>
      </trkpt>
      <trkpt lat="44.60006" lon="0.98652">
        <ele>201</ele>
        <time>2012-10-14T06:07:27Z</time>
      </trkpt>
      <trkpt lat="44.60001" lon="0.98665">
        <ele>203</ele>
        <time>2012-10-14T06:07:29Z</time>
      </trkpt>
      <trkpt lat="44.6" lon="0.9867">
        <ele>204</ele>
        <time>2012-10-14T06:07:35Z</time>
      </trkpt>
      <trkpt lat="44.59998" lon="0.98688">
        <ele>206</ele>
        <time>2012-10-14T06:07:38Z</time>
      </trkpt>
      <trkpt lat="44.59998" lon="0.98694">
        <ele>206</ele>
        <time>2012-10-14T06:07:43Z</time>
      </trkpt>
      <trkpt lat="44.60001" lon="0.98714">
        <ele>207</ele>
        <time>2012-10-14T06:07:51Z</time>
      </trkpt>
      <trkpt lat="44.60003" lon="0.98739">
        <ele>207</ele>
        <time>2012-10-14T06:07:58Z</time>
      </trkpt>
      <trkpt lat="44.60004" lon="0.98761">
        <ele>207</ele>
        <time>2012-10-14T06:08:05Z</time>
      </trkpt>
      <trkpt lat="44.6001" lon="0.98795">
        <ele>207</ele>
        <time>2012-10-14T06:08:12Z</time>
      </trkpt>
      <trkpt lat="44.6001" lon="0.98803">
        <ele>207</ele>
        <time>2012-10-14T06:08:20Z</time>
      </trkpt>
      <trkpt lat="44.60007" lon="0.98822">
        <ele>207</ele>
        <time>2012-10-14T06:08:22Z</time>
      </trkpt>
      <trkpt lat="44.60006" lon="0.98826">
        <ele>207</ele>
        <time>2012-10-14T06:08:28Z</time>
      </trkpt>
      <trkpt lat="44.60006" lon="0.98839">
        <ele>209</ele>
        <time>2012-10-14T06:08:31Z</time>
      </trkpt>
      <trkpt lat="44.60006" lon="0.98844">
        <ele>211</ele>
        <time>2012-10-14T06:08:38Z</time>
      </trkpt>
      <trkpt lat="44.60006" lon="0.98867">
        <ele>214</ele>
        <time>2012-10-14T06:08:45Z</time>
      </trkpt>
      <trkpt lat="44.60004" lon="0.98903">
        <ele>217</ele>
        <time>2012-10-14T06:08:52Z</time>
      </trkpt>
      <trkpt lat="44.60004" lon="0.98913">
        <ele>218</ele>
        <time>2012-10-14T06:08:54Z</time>
      </trkpt>
      <trkpt lat="44.60001" lon="0.98922">
        <ele>218</ele>
        <time>2012-10-14T06:09:00Z</time>
      </trkpt>
      <trkpt lat="44.59996" lon="0.98941">
        <ele>218</ele>
        <time>2012-10-14T06:09:02Z</time>
      </trkpt>
      <trkpt lat="44.59989" lon="0.98957">
        <ele>218</ele>
        <time>2012-10-14T06:09:06Z</time>
      </trkpt>
      <trkpt lat="44.59987" lon="0.98966">
        <ele>218</ele>
        <time>2012-10-14T06:09:13Z</time>
      </trkpt>
      <trkpt lat="44.59979" lon="0.98987">
        <ele>218</ele>
        <time>2012-10-14T06:09:19Z</time>
      </trkpt>
      <trkpt lat="44.59974" lon="0.99003">
        <ele>218</ele>
        <time>2012-10-14T06:09:25Z</time>
      </trkpt>
      <trkpt lat="44.59966" lon="0.99019">
        <ele>219</ele>
        <time>2012-10-14T06:09:31Z</time>
      </trkpt>
      <trkpt lat="44.59963" lon="0.99018">
        <ele>220</ele>
        <time>2012-10-14T06:09:35Z</time>
      </trkpt>
      <trkpt lat="44.59958" lon="0.99013">
        <ele>220</ele>
        <time>2012-10-14T06:09:41Z</time>
      </trkpt>
      <trkpt lat="44.59951" lon="0.99005">
        <ele>220</ele>
        <time>2012-10-14T06:09:49Z</time>
      </trkpt>
      <trkpt lat="44.59945" lon="0.99002">
        <ele>220</ele>
        <time>2012-10-14T06:09:54Z</time>
      </trkpt>
      <trkpt lat="44.59939" lon="0.98996">
        <ele>220</ele>
        <time>2012-10-14T06:09:57Z</time>
      </trkpt>
      <trkpt lat="44.59937" lon="0.98992">
        <ele>220</ele>
        <time>2012-10-14T06:10:02Z</time>
      </trkpt>
      <trkpt lat="44.59929" lon="0.98985">
        <ele>220</ele>
        <time>2012-10-14T06:10:05Z</time>
      </trkpt>
      <trkpt lat="44.59927" lon="0.98983">
        <ele>220</ele>
        <time>2012-10-14T06:10:11Z</time>
      </trkpt>
      <trkpt lat="44.59912" lon="0.98968">
        <ele>220</ele>
        <time>2012-10-14T06:10:18Z</time>
      </trkpt>
      <trkpt lat="44.59906" lon="0.98961">
        <ele>220</ele>
        <time>2012-10-14T06:10:24Z</time>
      </trkpt>
      <trkpt lat="44.599" lon="0.98955">
        <ele>220</ele>
        <time>2012-10-14T06:10:26Z</time>
      </trkpt>
      <trkpt lat="44.5989" lon="0.98941">
        <ele>220</ele>
        <time>2012-10-14T06:10:32Z</time>
      </trkpt>
      <trkpt lat="44.59886" lon="0.98936">
        <ele>220</ele>
        <time>2012-10-14T06:10:35Z</time>
      </trkpt>
      <trkpt lat="44.59883" lon="0.98931">
        <ele>220</ele>
        <time>2012-10-14T06:10:40Z</time>
      </trkpt>
      <trkpt lat="44.59874" lon="0.98926">
        <ele>220</ele>
        <time>2012-10-14T06:10:43Z</time>
      </trkpt>
      <trkpt lat="44.59871" lon="0.98924">
        <ele>220</ele>
        <time>2012-10-14T06:10:48Z</time>
      </trkpt>
      <trkpt lat="44.59854" lon="0.98918">
        <ele>220</ele>
        <time>2012-10-14T06:10:54Z</time>
      </trkpt>
      <trkpt lat="44.59841" lon="0.98913">
        <ele>223</ele>
        <time>2012-10-14T06:11:01Z</time>
      </trkpt>
      <trkpt lat="44.59826" lon="0.98911">
        <ele>224</ele>
        <time>2012-10-14T06:11:07Z</time>
      </trkpt>
      <trkpt lat="44.59808" lon="0.98914">
        <ele>224</ele>
        <time>2012-10-14T06:11:14Z</time>
      </trkpt>
      <trkpt lat="44.59786" lon="0.98914">
        <ele>224</ele>
        <time>2012-10-14T06:11:16Z</time>
      </trkpt>
      <trkpt lat="44.59777" lon="0.98912">
        <ele>224</ele>
        <time>2012-10-14T06:11:21Z</time>
      </trkpt>
      <trkpt lat="44.59757" lon="0.98908">
        <ele>224</ele>
        <time>2012-10-14T06:11:23Z</time>
      </trkpt>
      <trkpt lat="44.59735" lon="0.98903">
        <ele>224</ele>
        <time>2012-10-14T06:11:29Z</time>
      </trkpt>
      <trkpt lat="44.59726" lon="0.98897">
        <ele>224</ele>
        <time>2012-10-14T06:11:35Z</time>
      </trkpt>
      <trkpt lat="44.59713" lon="0.98884">
        <ele>224</ele>
        <time>2012-10-14T06:11:37Z</time>
      </trkpt>
      <trkpt lat="44.59703" lon="0.98869">
        <ele>225</ele>
        <time>2012-10-14T06:11:42Z</time>
      </trkpt>
      <trkpt lat="44.597" lon="0.98863">
        <ele>225</ele>
        <time>2012-10-14T06:11:45Z</time>
      </trkpt>
      <trkpt lat="44.59696" lon="0.98852">
        <ele>225</ele>
        <time>2012-10-14T06:11:51Z</time>
      </trkpt>
      <trkpt lat="44.5969" lon="0.98817">
        <ele>224</ele>
        <time>2012-10-14T06:11:57Z</time>
      </trkpt>
      <trkpt lat="44.59685" lon="0.98792">
        <ele>223</ele>
        <time>2012-10-14T06:12:03Z</time>
      </trkpt>
      <trkpt lat="44.59679" lon="0.9879">
        <ele>223</ele>
        <time>2012-10-14T06:12:06Z</time>
      </trkpt>
      <trkpt lat="44.59675" lon="0.98791">
        <ele>223</ele>
        <time>2012-10-14T06:12:11Z</time>
      </trkpt>
      <trkpt lat="44.59661" lon="0.988">
        <ele>223</ele>
        <time>2012-10-14T06:12:13Z</time>
      </trkpt>
      <trkpt lat="44.59657" lon="0.98803">
        <ele>223</ele>
        <time>2012-10-14T06:12:19Z</time>
      </trkpt>
      <trkpt lat="44.59629" lon="0.98808">
        <ele>223</ele>
        <time>2012-10-14T06:12:25Z</time>
      </trkpt>
      <trkpt lat="44.59621" lon="0.98807">
        <ele>223</ele>
        <time>2012-10-14T06:12:28Z</time>
      </trkpt>
      <trkpt lat="44.59614" lon="0.98804">
        <ele>223</ele>
        <time>2012-10-14T06:12:33Z</time>
      </trkpt>
      <trkpt lat="44.59564" lon="0.98796">
        <ele>225</ele>
        <time>2012-10-14T06:12:39Z</time>
      </trkpt>
      <trkpt lat="44.59554" lon="0.98799">
        <ele>226</ele>
        <time>2012-10-14T06:12:42Z</time>
      </trkpt>
      <trkpt lat="44.59544" lon="0.98799">
        <ele>226</ele>
        <time>2012-10-14T06:12:47Z</time>
      </trkpt>
      <trkpt lat="44.59515" lon="0.98774">
        <ele>226</ele>
        <time>2012-10-14T06:12:50Z</time>
      </trkpt>
      <trkpt lat="44.59505" lon="0.98756">
        <ele>228</ele>
        <time>2012-10-14T06:12:56Z</time>
      </trkpt>
      <trkpt lat="44.59491" lon="0.98738">
        <ele>230</ele>
        <time>2012-10-14T06:12:58Z</time>
      </trkpt>
      <trkpt lat="44.59486" lon="0.9873">
        <ele>231</ele>
        <time>2012-10-14T06:13:03Z</time>
      </trkpt>
      <trkpt lat="44.5946" lon="0.98726">
        <ele>231</ele>
        <time>2012-10-14T06:13:06Z</time>
      </trkpt>
      <trkpt lat="44.5945" lon="0.98726">
        <ele>231</ele>
        <time>2012-10-14T06:13:11Z</time>
      </trkpt>
      <trkpt lat="44.59437" lon="0.98717">
        <ele>227</ele>
        <time>2012-10-14T06:13:13Z</time>
      </trkpt>
      <trkpt lat="44.59431" lon="0.98712">
        <ele>225</ele>
        <time>2012-10-14T06:13:19Z</time>
      </trkpt>
      <trkpt lat="44.59418" lon="0.98704">
        <ele>222</ele>
        <time>2012-10-14T06:13:26Z</time>
      </trkpt>
      <trkpt lat="44.59418" lon="0.98702">
        <ele>218</ele>
        <time>2012-10-14T06:13:35Z</time>
      </trkpt>
      <trkpt lat="44.59411" lon="0.98712">
        <ele>213</ele>
        <time>2012-10-14T06:13:43Z</time>
      </trkpt>
      <trkpt lat="44.59407" lon="0.9872">
        <ele>209</ele>
        <time>2012-10-14T06:13:46Z</time>
      </trkpt>
      <trkpt lat="44.59401" lon="0.98732">
        <ele>208</ele>
        <time>2012-10-14T06:13:51Z</time>
      </trkpt>
      <trkpt lat="44.59382" lon="0.98769">
        <ele>207</ele>
        <time>2012-10-14T06:13:58Z</time>
      </trkpt>
      <trkpt lat="44.5937" lon="0.98778">
        <ele>209</ele>
        <time>2012-10-14T06:14:00Z</time>
      </trkpt>
      <trkpt lat="44.59363" lon="0.98773">
        <ele>210</ele>
        <time>2012-10-14T06:14:08Z</time>
      </trkpt>
      <trkpt lat="44.59329" lon="0.98757">
        <ele>210</ele>
        <time>2012-10-14T06:14:10Z</time>
      </trkpt>
      <trkpt lat="44.59317" lon="0.9876">
        <ele>210</ele>
        <time>2012-10-14T06:14:16Z</time>
      </trkpt>
      <trkpt lat="44.59291" lon="0.98784">
        <ele>210</ele>
        <time>2012-10-14T06:14:18Z</time>
      </trkpt>
      <trkpt lat="44.5928" lon="0.98792">
        <ele>210</ele>
        <time>2012-10-14T06:14:24Z</time>
      </trkpt>
      <trkpt lat="44.59266" lon="0.98833">
        <ele>210</ele>
        <time>2012-10-14T06:14:26Z</time>
      </trkpt>
      <trkpt lat="44.59258" lon="0.98901">
        <ele>210</ele>
        <time>2012-10-14T06:14:32Z</time>
      </trkpt>
      <trkpt lat="44.59252" lon="0.98935">
        <ele>208</ele>
        <time>2012-10-14T06:14:40Z</time>
      </trkpt>
      <trkpt lat="44.59246" lon="0.9902">
        <ele>205</ele>
        <time>2012-10-14T06:14:47Z</time>
      </trkpt>
      <trkpt lat="44.59232" lon="0.99061">
        <ele>202</ele>
        <time>2012-10-14T06:14:49Z</time>
      </trkpt>
      <trkpt lat="44.59228" lon="0.99075">
        <ele>201</ele>
        <time>2012-10-14T06:14:55Z</time>
      </trkpt>
      <trkpt lat="44.59204" lon="0.99128">
        <ele>198</ele>
        <time>2012-10-14T06:15:03Z</time>
      </trkpt>
      <trkpt lat="44.59177" lon="0.99171">
        <ele>196</ele>
        <time>2012-10-14T06:15:05Z</time>
      </trkpt>
      <trkpt lat="44.59171" lon="0.99185">
        <ele>194</ele>
        <time>2012-10-14T06:15:09Z</time>
      </trkpt>
      <trkpt lat="44.5915" lon="0.992">
        <ele>190</ele>
        <time>2012-10-14T06:15:12Z</time>
      </trkpt>
      <trkpt lat="44.59132" lon="0.99207">
        <ele>187</ele>
        <time>2012-10-14T06:15:18Z</time>
      </trkpt>
      <trkpt lat="44.59114" lon="0.99222">
        <ele>185</ele>
        <time>2012-10-14T06:15:25Z</time>
      </trkpt>
      <trkpt lat="44.59114" lon="0.9922">
        <ele>188</ele>
        <time>2012-10-14T06:15:34Z</time>
      </trkpt>
      <trkpt lat="44.59114" lon="0.99218">
        <ele>190</ele>
        <time>2012-10-14T06:15:41Z</time>
      </trkpt>
      <trkpt lat="44.59116" lon="0.99216">
        <ele>187</ele>
        <time>2012-10-14T06:15:49Z</time>
      </trkpt>
      <trkpt lat="44.59118" lon="0.99216">
        <ele>184</ele>
        <time>2012-10-14T06:15:52Z</time>
      </trkpt>
      <trkpt lat="44.59121" lon="0.99216">
        <ele>180</ele>
        <time>2012-10-14T06:15:58Z</time>
      </trkpt>
      <trkpt lat="44.59119" lon="0.99216">
        <ele>177</ele>
        <time>2012-10-14T06:16:01Z</time>
      </trkpt>
      <trkpt lat="44.59118" lon="0.9922">
        <ele>175</ele>
        <time>2012-10-14T06:16:08Z</time>
      </trkpt>
      <trkpt lat="44.59118" lon="0.99225">
        <ele>174</ele>
        <time>2012-10-14T06:16:15Z</time>
      </trkpt>
      <trkpt lat="44.59118" lon="0.99243">
        <ele>174</ele>
        <time>2012-10-14T06:16:18Z</time>
      </trkpt>
      <trkpt lat="44.59116" lon="0.99253">
        <ele>174</ele>
        <time>2012-10-14T06:16:22Z</time>
      </trkpt>
      <trkpt lat="44.59112" lon="0.99301">
        <ele>174</ele>
        <time>2012-10-14T06:16:29Z</time>
      </trkpt>
      <trkpt lat="44.59107" lon="0.99353">
        <ele>174</ele>
        <time>2012-10-14T06:16:35Z</time>
      </trkpt>
      <trkpt lat="44.59102" lon="0.99445">
        <ele>173</ele>
        <time>2012-10-14T06:16:41Z</time>
      </trkpt>
      <trkpt lat="44.59094" lon="0.99481">
        <ele>171</ele>
        <time>2012-10-14T06:16:48Z</time>
      </trkpt>
      <trkpt lat="44.59065" lon="0.99511">
        <ele>168</ele>
        <time>2012-10-14T06:16:51Z</time>
      </trkpt>
      <trkpt lat="44.59019" lon="0.99516">
        <ele>164</ele>
        <time>2012-10-14T06:16:57Z</time>
      </trkpt>
      <trkpt lat="44.59011" lon="0.99524">
        <ele>160</ele>
        <time>2012-10-14T06:17:00Z</time>
      </trkpt>
      <trkpt lat="44.59008" lon="0.99532">
        <ele>158</ele>
        <time>2012-10-14T06:17:06Z</time>
      </trkpt>
      <trkpt lat="44.59018" lon="0.99561">
        <ele>152</ele>
        <time>2012-10-14T06:17:09Z</time>
      </trkpt>
      <trkpt lat="44.59021" lon="0.99567">
        <ele>150</ele>
        <time>2012-10-14T06:17:13Z</time>
      </trkpt>
      <trkpt lat="44.59017" lon="0.99581">
        <ele>144</ele>
        <time>2012-10-14T06:17:16Z</time>
      </trkpt>
      <trkpt lat="44.59019" lon="0.99588">
        <ele>141</ele>
        <time>2012-10-14T06:17:22Z</time>
      </trkpt>
      <trkpt lat="44.59024" lon="0.99603">
        <ele>138</ele>
        <time>2012-10-14T06:17:29Z</time>
      </trkpt>
      <trkpt lat="44.59022" lon="0.99606">
        <ele>131</ele>
        <time>2012-10-14T06:17:40Z</time>
      </trkpt>
      <trkpt lat="44.59026" lon="0.9962">
        <ele>131</ele>
        <time>2012-10-14T06:17:49Z</time>
      </trkpt>
      <trkpt lat="44.59031" lon="0.99632">
        <ele>131</ele>
        <time>2012-10-14T06:17:55Z</time>
      </trkpt>
      <trkpt lat="44.59039" lon="0.99659">
        <ele>133</ele>
        <time>2012-10-14T06:18:01Z</time>
      </trkpt>
      <trkpt lat="44.59041" lon="0.99664">
        <ele>135</ele>
        <time>2012-10-14T06:18:04Z</time>
      </trkpt>
      <trkpt lat="44.59041" lon="0.99669">
        <ele>136</ele>
        <time>2012-10-14T06:18:09Z</time>
      </trkpt>
      <trkpt lat="44.59037" lon="0.99687">
        <ele>138</ele>
        <time>2012-10-14T06:18:11Z</time>
      </trkpt>
      <trkpt lat="44.5903" lon="0.99693">
        <ele>140</ele>
        <time>2012-10-14T06:18:17Z</time>
      </trkpt>
      <trkpt lat="44.59015" lon="0.99701">
        <ele>142</ele>
        <time>2012-10-14T06:18:23Z</time>
      </trkpt>
      <trkpt lat="44.58997" lon="0.99712">
        <ele>143</ele>
        <time>2012-10-14T06:18:29Z</time>
      </trkpt>
      <trkpt lat="44.58993" lon="0.99712">
        <ele>143</ele>
        <time>2012-10-14T06:18:32Z</time>
      </trkpt>
      <trkpt lat="44.58985" lon="0.99711">
        <ele>143</ele>
        <time>2012-10-14T06:18:37Z</time>
      </trkpt>
      <trkpt lat="44.58971" lon="0.99712">
        <ele>143</ele>
        <time>2012-10-14T06:18:44Z</time>
      </trkpt>
      <trkpt lat="44.58952" lon="0.99716">
        <ele>143</ele>
        <time>2012-10-14T06:18:50Z</time>
      </trkpt>
      <trkpt lat="44.58939" lon="0.99721">
        <ele>144</ele>
        <time>2012-10-14T06:18:53Z</time>
      </trkpt>
      <trkpt lat="44.58934" lon="0.99724">
        <ele>144</ele>
        <time>2012-10-14T06:18:58Z</time>
      </trkpt>
      <trkpt lat="44.58919" lon="0.99738">
        <ele>144</ele>
        <time>2012-10-14T06:19:04Z</time>
      </trkpt>
      <trkpt lat="44.58908" lon="0.99753">
        <ele>144</ele>
        <time>2012-10-14T06:19:11Z</time>
      </trkpt>
      <trkpt lat="44.58891" lon="0.99778">
        <ele>144</ele>
        <time>2012-10-14T06:19:17Z</time>
      </trkpt>
      <trkpt lat="44.58884" lon="0.99786">
        <ele>144</ele>
        <time>2012-10-14T06:19:24Z</time>
      </trkpt>
      <trkpt lat="44.5886" lon="0.99811">
        <ele>144</ele>
        <time>2012-10-14T06:19:30Z</time>
      </trkpt>
      <trkpt lat="44.58849" lon="0.99825">
        <ele>144</ele>
        <time>2012-10-14T06:19:37Z</time>
      </trkpt>
      <trkpt lat="44.58837" lon="0.99846">
        <ele>144</ele>
        <time>2012-10-14T06:19:44Z</time>
      </trkpt>
      <trkpt lat="44.58818" lon="0.99884">
        <ele>147</ele>
        <time>2012-10-14T06:19:50Z</time>
      </trkpt>
      <trkpt lat="44.58813" lon="0.99897">
        <ele>149</ele>
        <time>2012-10-14T06:19:57Z</time>
      </trkpt>
      <trkpt lat="44.58802" lon="0.99931">
        <ele>151</ele>
        <time>2012-10-14T06:20:04Z</time>
      </trkpt>
      <trkpt lat="44.58785" lon="0.99988">
        <ele>152</ele>
        <time>2012-10-14T06:20:10Z</time>
      </trkpt>
      <trkpt lat="44.5878" lon="1.00008">
        <ele>152</ele>
        <time>2012-10-14T06:20:17Z</time>
      </trkpt>
      <trkpt lat="44.58767" lon="1.0005">
        <ele>152</ele>
        <time>2012-10-14T06:20:24Z</time>
      </trkpt>
      <trkpt lat="44.58735" lon="1.00125">
        <ele>151</ele>
        <time>2012-10-14T06:20:30Z</time>
      </trkpt>
      <trkpt lat="44.5872" lon="1.00159">
        <ele>150</ele>
        <time>2012-10-14T06:20:37Z</time>
      </trkpt>
      <trkpt lat="44.58686" lon="1.00235">
        <ele>148</ele>
        <time>2012-10-14T06:20:44Z</time>
      </trkpt>
      <trkpt lat="44.58651" lon="1.00284">
        <ele>145</ele>
        <time>2012-10-14T06:20:51Z</time>
      </trkpt>
      <trkpt lat="44.58642" lon="1.00334">
        <ele>142</ele>
        <time>2012-10-14T06:20:53Z</time>
      </trkpt>
      <trkpt lat="44.58639" lon="1.00371">
        <ele>141</ele>
        <time>2012-10-14T06:20:58Z</time>
      </trkpt>
      <trkpt lat="44.58635" lon="1.00381">
        <ele>139</ele>
        <time>2012-10-14T06:21:01Z</time>
      </trkpt>
      <trkpt lat="44.58624" lon="1.0038">
        <ele>137</ele>
        <time>2012-10-14T06:21:08Z</time>
      </trkpt>
      <trkpt lat="44.58574" lon="1.00395">
        <ele>131</ele>
        <time>2012-10-14T06:21:10Z</time>
      </trkpt>
      <trkpt lat="44.58559" lon="1.004">
        <ele>129</ele>
        <time>2012-10-14T06:21:15Z</time>
      </trkpt>
      <trkpt lat="44.58544" lon="1.00419">
        <ele>125</ele>
        <time>2012-10-14T06:21:18Z</time>
      </trkpt>
      <trkpt lat="44.58549" lon="1.00435">
        <ele>121</ele>
        <time>2012-10-14T06:21:24Z</time>
      </trkpt>
      <trkpt lat="44.58561" lon="1.00467">
        <ele>117</ele>
        <time>2012-10-14T06:21:31Z</time>
      </trkpt>
      <trkpt lat="44.58573" lon="1.00497">
        <ele>115</ele>
        <time>2012-10-14T06:21:38Z</time>
      </trkpt>
      <trkpt lat="44.58583" lon="1.00522">
        <ele>115</ele>
        <time>2012-10-14T06:21:45Z</time>
      </trkpt>
      <trkpt lat="44.58587" lon="1.0054">
        <ele>118</ele>
        <time>2012-10-14T06:21:47Z</time>
      </trkpt>
      <trkpt lat="44.58584" lon="1.00543">
        <ele>119</ele>
        <time>2012-10-14T06:21:53Z</time>
      </trkpt>
      <trkpt lat="44.58569" lon="1.00558">
        <ele>120</ele>
        <time>2012-10-14T06:22:00Z</time>
      </trkpt>
      <trkpt lat="44.58546" lon="1.00576">
        <ele>121</ele>
        <time>2012-10-14T06:22:07Z</time>
      </trkpt>
      <trkpt lat="44.58526" lon="1.00557">
        <ele>121</ele>
        <time>2012-10-14T06:22:09Z</time>
      </trkpt>
      <trkpt lat="44.58522" lon="1.00539">
        <ele>121</ele>
        <time>2012-10-14T06:22:16Z</time>
      </trkpt>
      <trkpt lat="44.58508" lon="1.00473">
        <ele>121</ele>
        <time>2012-10-14T06:22:22Z</time>
      </trkpt>
      <trkpt lat="44.58486" lon="1.00414">
        <ele>120</ele>
        <time>2012-10-14T06:22:29Z</time>
      </trkpt>
      <trkpt lat="44.58448" lon="1.00444">
        <ele>118</ele>
        <time>2012-10-14T06:22:31Z</time>
      </trkpt>
      <trkpt lat="44.58428" lon="1.00462">
        <ele>116</ele>
        <time>2012-10-14T06:22:38Z</time>
      </trkpt>
      <trkpt lat="44.58384" lon="1.00478">
        <ele>115</ele>
        <time>2012-10-14T06:22:41Z</time>
      </trkpt>
      <trkpt lat="44.5837" lon="1.00481">
        <ele>115</ele>
        <time>2012-10-14T06:22:46Z</time>
      </trkpt>
      <trkpt lat="44.58316" lon="1.00495">
        <ele>114</ele>
        <time>2012-10-14T06:22:54Z</time>
      </trkpt>
      <trkpt lat="44.5828" lon="1.00506">
        <ele>114</ele>
        <time>2012-10-14T06:22:57Z</time>
      </trkpt>
      <trkpt lat="44.58268" lon="1.00507">
        <ele>114</ele>
        <time>2012-10-14T06:23:02Z</time>
      </trkpt>
      <trkpt lat="44.58224" lon="1.00525">
        <ele>114</ele>
        <time>2012-10-14T06:23:09Z</time>
      </trkpt>
      <trkpt lat="44.58228" lon="1.00538">
        <ele>113</ele>
        <time>2012-10-14T06:23:12Z</time>
      </trkpt>
      <trkpt lat="44.58232" lon="1.00557">
        <ele>111</ele>
        <time>2012-10-14T06:23:18Z</time>
      </trkpt>
      <trkpt lat="44.58237" lon="1.00604">
        <ele>109</ele>
        <time>2012-10-14T06:23:25Z</time>
      </trkpt>
      <trkpt lat="44.58239" lon="1.00656">
        <ele>108</ele>
        <time>2012-10-14T06:23:32Z</time>
      </trkpt>
      <trkpt lat="44.5823" lon="1.00737">
        <ele>108</ele>
        <time>2012-10-14T06:23:39Z</time>
      </trkpt>
      <trkpt lat="44.58224" lon="1.00764">
        <ele>108</ele>
        <time>2012-10-14T06:23:47Z</time>
      </trkpt>
      <trkpt lat="44.58218" lon="1.00812">
        <ele>108</ele>
        <time>2012-10-14T06:23:54Z</time>
      </trkpt>
      <trkpt lat="44.58223" lon="1.00852">
        <ele>108</ele>
        <time>2012-10-14T06:23:56Z</time>
      </trkpt>
      <trkpt lat="44.58231" lon="1.00862">
        <ele>108</ele>
        <time>2012-10-14T06:24:03Z</time>
      </trkpt>
      <trkpt lat="44.58288" lon="1.00928">
        <ele>108</ele>
        <time>2012-10-14T06:24:10Z</time>
      </trkpt>
      <trkpt lat="44.58295" lon="1.00943">
        <ele>109</ele>
        <time>2012-10-14T06:24:12Z</time>
      </trkpt>
      <trkpt lat="44.5831" lon="1.0099">
        <ele>110</ele>
        <time>2012-10-14T06:24:19Z</time>
      </trkpt>
      <trkpt lat="44.58313" lon="1.01025">
        <ele>112</ele>
        <time>2012-10-14T06:24:25Z</time>
      </trkpt>
      <trkpt lat="44.58312" lon="1.01054">
        <ele>112</ele>
        <time>2012-10-14T06:24:27Z</time>
      </trkpt>
      <trkpt lat="44.58303" lon="1.01083">
        <ele>112</ele>
        <time>2012-10-14T06:24:31Z</time>
      </trkpt>
      <trkpt lat="44.58298" lon="1.01093">
        <ele>112</ele>
        <time>2012-10-14T06:24:34Z</time>
      </trkpt>
      <trkpt lat="44.58288" lon="1.01118">
        <ele>112</ele>
        <time>2012-10-14T06:24:38Z</time>
      </trkpt>
      <trkpt lat="44.58283" lon="1.0113">
        <ele>114</ele>
        <time>2012-10-14T06:24:44Z</time>
      </trkpt>
      <trkpt lat="44.58271" lon="1.01148">
        <ele>115</ele>
        <time>2012-10-14T06:24:47Z</time>
      </trkpt>
      <trkpt lat="44.58263" lon="1.01157">
        <ele>116</ele>
        <time>2012-10-14T06:24:52Z</time>
      </trkpt>
      <trkpt lat="44.58237" lon="1.01178">
        <ele>118</ele>
        <time>2012-10-14T06:24:58Z</time>
      </trkpt>
      <trkpt lat="44.58227" lon="1.01185">
        <ele>119</ele>
        <time>2012-10-14T06:25:04Z</time>
      </trkpt>
      <trkpt lat="44.58205" lon="1.01193">
        <ele>122</ele>
        <time>2012-10-14T06:25:12Z</time>
      </trkpt>
      <trkpt lat="44.58184" lon="1.01197">
        <ele>125</ele>
        <time>2012-10-14T06:25:18Z</time>
      </trkpt>
      <trkpt lat="44.58161" lon="1.01211">
        <ele>128</ele>
        <time>2012-10-14T06:25:24Z</time>
      </trkpt>
      <trkpt lat="44.58147" lon="1.01251">
        <ele>129</ele>
        <time>2012-10-14T06:25:27Z</time>
      </trkpt>
      <trkpt lat="44.58133" lon="1.01263">
        <ele>129</ele>
        <time>2012-10-14T06:25:33Z</time>
      </trkpt>
      <trkpt lat="44.581" lon="1.01282">
        <ele>129</ele>
        <time>2012-10-14T06:25:39Z</time>
      </trkpt>
      <trkpt lat="44.58081" lon="1.01304">
        <ele>128</ele>
        <time>2012-10-14T06:25:41Z</time>
      </trkpt>
      <trkpt lat="44.58075" lon="1.01313">
        <ele>128</ele>
        <time>2012-10-14T06:25:46Z</time>
      </trkpt>
      <trkpt lat="44.58057" lon="1.01339">
        <ele>128</ele>
        <time>2012-10-14T06:25:52Z</time>
      </trkpt>
      <trkpt lat="44.58041" lon="1.01377">
        <ele>128</ele>
        <time>2012-10-14T06:25:58Z</time>
      </trkpt>
      <trkpt lat="44.58057" lon="1.01391">
        <ele>128</ele>
        <time>2012-10-14T06:26:06Z</time>
      </trkpt>
      <trkpt lat="44.58086" lon="1.01416">
        <ele>125</ele>
        <time>2012-10-14T06:26:12Z</time>
      </trkpt>
      <trkpt lat="44.58098" lon="1.01437">
        <ele>123</ele>
        <time>2012-10-14T06:26:15Z</time>
      </trkpt>
      <trkpt lat="44.58099" lon="1.01447">
        <ele>123</ele>
        <time>2012-10-14T06:26:20Z</time>
      </trkpt>
      <trkpt lat="44.58101" lon="1.01477">
        <ele>123</ele>
        <time>2012-10-14T06:26:26Z</time>
      </trkpt>
      <trkpt lat="44.58097" lon="1.015">
        <ele>126</ele>
        <time>2012-10-14T06:26:28Z</time>
      </trkpt>
      <trkpt lat="44.58097" lon="1.01506">
        <ele>127</ele>
        <time>2012-10-14T06:26:33Z</time>
      </trkpt>
      <trkpt lat="44.58101" lon="1.01526">
        <ele>131</ele>
        <time>2012-10-14T06:26:35Z</time>
      </trkpt>
      <trkpt lat="44.581" lon="1.01544">
        <ele>133</ele>
        <time>2012-10-14T06:26:41Z</time>
      </trkpt>
      <trkpt lat="44.58091" lon="1.01593">
        <ele>136</ele>
        <time>2012-10-14T06:26:47Z</time>
      </trkpt>
      <trkpt lat="44.58087" lon="1.01609">
        <ele>138</ele>
        <time>2012-10-14T06:26:54Z</time>
      </trkpt>
      <trkpt lat="44.5808" lon="1.01641">
        <ele>138</ele>
        <time>2012-10-14T06:27:00Z</time>
      </trkpt>
      <trkpt lat="44.58069" lon="1.01689">
        <ele>138</ele>
        <time>2012-10-14T06:27:06Z</time>
      </trkpt>
      <trkpt lat="44.58064" lon="1.01704">
        <ele>138</ele>
        <time>2012-10-14T06:27:13Z</time>
      </trkpt>
      <trkpt lat="44.58052" lon="1.01726">
        <ele>138</ele>
        <time>2012-10-14T06:27:16Z</time>
      </trkpt>
      <trkpt lat="44.58046" lon="1.01733">
        <ele>138</ele>
        <time>2012-10-14T06:27:20Z</time>
      </trkpt>
      <trkpt lat="44.5803" lon="1.0175">
        <ele>138</ele>
        <time>2012-10-14T06:27:26Z</time>
      </trkpt>
      <trkpt lat="44.58008" lon="1.01763">
        <ele>138</ele>
        <time>2012-10-14T06:27:33Z</time>
      </trkpt>
      <trkpt lat="44.57995" lon="1.01777">
        <ele>137</ele>
        <time>2012-10-14T06:27:39Z</time>
      </trkpt>
      <trkpt lat="44.57994" lon="1.01781">
        <ele>137</ele>
        <time>2012-10-14T06:27:42Z</time>
      </trkpt>
      <trkpt lat="44.57982" lon="1.01796">
        <ele>137</ele>
        <time>2012-10-14T06:27:48Z</time>
      </trkpt>
      <trkpt lat="44.57971" lon="1.01814">
        <ele>137</ele>
        <time>2012-10-14T06:27:54Z</time>
      </trkpt>
      <trkpt lat="44.57964" lon="1.01828">
        <ele>137</ele>
        <time>2012-10-14T06:28:01Z</time>
      </trkpt>
      <trkpt lat="44.57953" lon="1.01872">
        <ele>139</ele>
        <time>2012-10-14T06:28:07Z</time>
      </trkpt>
      <trkpt lat="44.57949" lon="1.01888">
        <ele>139</ele>
        <time>2012-10-14T06:28:10Z</time>
      </trkpt>
      <trkpt lat="44.57946" lon="1.01897">
        <ele>139</ele>
        <time>2012-10-14T06:28:15Z</time>
      </trkpt>
      <trkpt lat="44.5794" lon="1.01917">
        <ele>140</ele>
        <time>2012-10-14T06:28:17Z</time>
      </trkpt>
      <trkpt lat="44.57938" lon="1.01926">
        <ele>140</ele>
        <time>2012-10-14T06:28:23Z</time>
      </trkpt>
      <trkpt lat="44.57933" lon="1.01944">
        <ele>143</ele>
        <time>2012-10-14T06:28:25Z</time>
      </trkpt>
      <trkpt lat="44.57933" lon="1.01972">
        <ele>144</ele>
        <time>2012-10-14T06:28:31Z</time>
      </trkpt>
      <trkpt lat="44.57934" lon="1.01987">
        <ele>146</ele>
        <time>2012-10-14T06:28:37Z</time>
      </trkpt>
      <trkpt lat="44.57928" lon="1.02003">
        <ele>148</ele>
        <time>2012-10-14T06:28:39Z</time>
      </trkpt>
      <trkpt lat="44.57924" lon="1.02014">
        <ele>149</ele>
        <time>2012-10-14T06:28:45Z</time>
      </trkpt>
      <trkpt lat="44.57914" lon="1.02042">
        <ele>153</ele>
        <time>2012-10-14T06:28:47Z</time>
      </trkpt>
      <trkpt lat="44.57912" lon="1.02053">
        <ele>154</ele>
        <time>2012-10-14T06:28:52Z</time>
      </trkpt>
      <trkpt lat="44.57906" lon="1.02081">
        <ele>157</ele>
        <time>2012-10-14T06:28:59Z</time>
      </trkpt>
      <trkpt lat="44.5791" lon="1.02099">
        <ele>157</ele>
        <time>2012-10-14T06:29:01Z</time>
      </trkpt>
      <trkpt lat="44.57914" lon="1.02108">
        <ele>157</ele>
        <time>2012-10-14T06:29:06Z</time>
      </trkpt>
      <trkpt lat="44.57919" lon="1.02125">
        <ele>157</ele>
        <time>2012-10-14T06:29:08Z</time>
      </trkpt>
      <trkpt lat="44.57919" lon="1.02133">
        <ele>156</ele>
        <time>2012-10-14T06:29:14Z</time>
      </trkpt>
      <trkpt lat="44.57917" lon="1.02162">
        <ele>153</ele>
        <time>2012-10-14T06:29:20Z</time>
      </trkpt>
      <trkpt lat="44.57914" lon="1.02187">
        <ele>150</ele>
        <time>2012-10-14T06:29:27Z</time>
      </trkpt>
      <trkpt lat="44.57915" lon="1.02214">
        <ele>149</ele>
        <time>2012-10-14T06:29:33Z</time>
      </trkpt>
      <trkpt lat="44.57918" lon="1.0224">
        <ele>149</ele>
        <time>2012-10-14T06:29:40Z</time>
      </trkpt>
      <trkpt lat="44.5792" lon="1.02264">
        <ele>149</ele>
        <time>2012-10-14T06:29:46Z</time>
      </trkpt>
      <trkpt lat="44.57926" lon="1.02278">
        <ele>148</ele>
        <time>2012-10-14T06:29:49Z</time>
      </trkpt>
      <trkpt lat="44.57933" lon="1.02285">
        <ele>148</ele>
        <time>2012-10-14T06:29:55Z</time>
      </trkpt>
      <trkpt lat="44.57945" lon="1.02293">
        <ele>146</ele>
        <time>2012-10-14T06:29:57Z</time>
      </trkpt>
      <trkpt lat="44.57962" lon="1.02295">
        <ele>145</ele>
        <time>2012-10-14T06:30:02Z</time>
      </trkpt>
      <trkpt lat="44.57975" lon="1.02301">
        <ele>143</ele>
        <time>2012-10-14T06:30:09Z</time>
      </trkpt>
      <trkpt lat="44.5798" lon="1.02319">
        <ele>143</ele>
        <time>2012-10-14T06:30:12Z</time>
      </trkpt>
      <trkpt lat="44.57982" lon="1.02326">
        <ele>143</ele>
        <time>2012-10-14T06:30:17Z</time>
      </trkpt>
      <trkpt lat="44.57994" lon="1.02356">
        <ele>146</ele>
        <time>2012-10-14T06:30:23Z</time>
      </trkpt>
      <trkpt lat="44.57996" lon="1.0236">
        <ele>150</ele>
        <time>2012-10-14T06:30:25Z</time>
      </trkpt>
      <trkpt lat="44.57997" lon="1.02378">
        <ele>152</ele>
        <time>2012-10-14T06:30:30Z</time>
      </trkpt>
      <trkpt lat="44.57998" lon="1.02385">
        <ele>157</ele>
        <time>2012-10-14T06:30:33Z</time>
      </trkpt>
      <trkpt lat="44.57994" lon="1.02397">
        <ele>161</ele>
        <time>2012-10-14T06:30:39Z</time>
      </trkpt>
      <trkpt lat="44.57973" lon="1.02443">
        <ele>166</ele>
        <time>2012-10-14T06:30:45Z</time>
      </trkpt>
      <trkpt lat="44.57968" lon="1.02456">
        <ele>168</ele>
        <time>2012-10-14T06:30:52Z</time>
      </trkpt>
      <trkpt lat="44.57958" lon="1.02483">
        <ele>171</ele>
        <time>2012-10-14T06:30:59Z</time>
      </trkpt>
      <trkpt lat="44.57947" lon="1.02509">
        <ele>172</ele>
        <time>2012-10-14T06:31:05Z</time>
      </trkpt>
      <trkpt lat="44.57941" lon="1.02528">
        <ele>172</ele>
        <time>2012-10-14T06:31:08Z</time>
      </trkpt>
      <trkpt lat="44.57939" lon="1.02539">
        <ele>172</ele>
        <time>2012-10-14T06:31:14Z</time>
      </trkpt>
      <trkpt lat="44.57936" lon="1.02548">
        <ele>165</ele>
        <time>2012-10-14T06:31:31Z</time>
      </trkpt>
      <trkpt lat="44.57933" lon="1.02551">
        <ele>162</ele>
        <time>2012-10-14T06:31:46Z</time>
      </trkpt>
      <trkpt lat="44.57932" lon="1.02554">
        <ele>162</ele>
        <time>2012-10-14T06:31:54Z</time>
      </trkpt>
      <trkpt lat="44.57932" lon="1.02557">
        <ele>162</ele>
        <time>2012-10-14T06:32:02Z</time>
      </trkpt>
      <trkpt lat="44.57933" lon="1.02562">
        <ele>162</ele>
        <time>2012-10-14T06:32:05Z</time>
      </trkpt>
      <trkpt lat="44.57933" lon="1.02566">
        <ele>162</ele>
        <time>2012-10-14T06:32:10Z</time>
      </trkpt>
      <trkpt lat="44.57932" lon="1.02579">
        <ele>162</ele>
        <time>2012-10-14T06:32:12Z</time>
      </trkpt>
      <trkpt lat="44.57933" lon="1.02584">
        <ele>162</ele>
        <time>2012-10-14T06:32:18Z</time>
      </trkpt>
      <trkpt lat="44.57939" lon="1.02602">
        <ele>162</ele>
        <time>2012-10-14T06:32:25Z</time>
      </trkpt>
      <trkpt lat="44.57946" lon="1.02614">
        <ele>162</ele>
        <time>2012-10-14T06:32:27Z</time>
      </trkpt>
      <trkpt lat="44.57952" lon="1.02629">
        <ele>162</ele>
        <time>2012-10-14T06:32:32Z</time>
      </trkpt>
      <trkpt lat="44.57955" lon="1.02638">
        <ele>164</ele>
        <time>2012-10-14T06:32:39Z</time>
      </trkpt>
      <trkpt lat="44.5796" lon="1.02655">
        <ele>167</ele>
        <time>2012-10-14T06:32:42Z</time>
      </trkpt>
      <trkpt lat="44.57962" lon="1.02659">
        <ele>168</ele>
        <time>2012-10-14T06:32:47Z</time>
      </trkpt>
      <trkpt lat="44.57964" lon="1.02666">
        <ele>173</ele>
        <time>2012-10-14T06:32:54Z</time>
      </trkpt>
      <trkpt lat="44.57966" lon="1.02677">
        <ele>177</ele>
        <time>2012-10-14T06:32:56Z</time>
      </trkpt>
      <trkpt lat="44.57969" lon="1.02685">
        <ele>178</ele>
        <time>2012-10-14T06:33:01Z</time>
      </trkpt>
      <trkpt lat="44.5797" lon="1.0269">
        <ele>180</ele>
        <time>2012-10-14T06:33:08Z</time>
      </trkpt>
      <trkpt lat="44.57976" lon="1.02703">
        <ele>180</ele>
        <time>2012-10-14T06:33:15Z</time>
      </trkpt>
      <trkpt lat="44.57983" lon="1.0272">
        <ele>180</ele>
        <time>2012-10-14T06:33:21Z</time>
      </trkpt>
      <trkpt lat="44.57986" lon="1.02726">
        <ele>182</ele>
        <time>2012-10-14T06:33:28Z</time>
      </trkpt>
      <trkpt lat="44.57989" lon="1.02736">
        <ele>182</ele>
        <time>2012-10-14T06:33:35Z</time>
      </trkpt>
      <trkpt lat="44.57996" lon="1.02741">
        <ele>182</ele>
        <time>2012-10-14T06:33:37Z</time>
      </trkpt>
      <trkpt lat="44.58002" lon="1.02745">
        <ele>181</ele>
        <time>2012-10-14T06:33:42Z</time>
      </trkpt>
      <trkpt lat="44.58012" lon="1.02753">
        <ele>179</ele>
        <time>2012-10-14T06:33:49Z</time>
      </trkpt>
      <trkpt lat="44.58014" lon="1.02754">
        <ele>179</ele>
        <time>2012-10-14T06:33:51Z</time>
      </trkpt>
      <trkpt lat="44.58017" lon="1.02757">
        <ele>179</ele>
        <time>2012-10-14T06:33:58Z</time>
      </trkpt>
      <trkpt lat="44.58028" lon="1.02767">
        <ele>179</ele>
        <time>2012-10-14T06:34:04Z</time>
      </trkpt>
      <trkpt lat="44.58035" lon="1.02772">
        <ele>179</ele>
        <time>2012-10-14T06:34:06Z</time>
      </trkpt>
      <trkpt lat="44.58037" lon="1.02774">
        <ele>179</ele>
        <time>2012-10-14T06:34:11Z</time>
      </trkpt>
      <trkpt lat="44.58046" lon="1.02773">
        <ele>179</ele>
        <time>2012-10-14T06:34:13Z</time>
      </trkpt>
      <trkpt lat="44.58049" lon="1.02773">
        <ele>179</ele>
        <time>2012-10-14T06:34:19Z</time>
      </trkpt>
      <trkpt lat="44.58052" lon="1.02776">
        <ele>179</ele>
        <time>2012-10-14T06:34:37Z</time>
      </trkpt>
      <trkpt lat="44.58053" lon="1.02776">
        <ele>179</ele>
        <time>2012-10-14T06:35:12Z</time>
      </trkpt>
      <trkpt lat="44.58059" lon="1.02782">
        <ele>179</ele>
        <time>2012-10-14T06:35:21Z</time>
      </trkpt>
      <trkpt lat="44.58068" lon="1.0278">
        <ele>179</ele>
        <time>2012-10-14T06:35:29Z</time>
      </trkpt>
      <trkpt lat="44.58092" lon="1.02768">
        <ele>179</ele>
        <time>2012-10-14T06:35:35Z</time>
      </trkpt>
      <trkpt lat="44.58136" lon="1.02745">
        <ele>179</ele>
        <time>2012-10-14T06:35:42Z</time>
      </trkpt>
      <trkpt lat="44.58198" lon="1.02734">
        <ele>179</ele>
        <time>2012-10-14T06:35:45Z</time>
      </trkpt>
      <trkpt lat="44.58234" lon="1.02736">
        <ele>178</ele>
        <time>2012-10-14T06:35:50Z</time>
      </trkpt>
      <trkpt lat="44.58234" lon="1.02737">
        <ele>176</ele>
        <time>2012-10-14T06:35:57Z</time>
      </trkpt>
      <trkpt lat="44.58237" lon="1.0274">
        <ele>173</ele>
        <time>2012-10-14T06:35:59Z</time>
      </trkpt>
      <trkpt lat="44.58241" lon="1.0274">
        <ele>171</ele>
        <time>2012-10-14T06:36:05Z</time>
      </trkpt>
      <trkpt lat="44.58242" lon="1.0274">
        <ele>171</ele>
        <time>2012-10-14T06:36:09Z</time>
      </trkpt>
      <trkpt lat="44.58244" lon="1.02739">
        <ele>171</ele>
        <time>2012-10-14T06:36:16Z</time>
      </trkpt>
      <trkpt lat="44.58246" lon="1.02738">
        <ele>174</ele>
        <time>2012-10-14T06:36:24Z</time>
      </trkpt>
      <trkpt lat="44.58247" lon="1.02737">
        <ele>178</ele>
        <time>2012-10-14T06:36:33Z</time>
      </trkpt>
      <trkpt lat="44.58249" lon="1.02736">
        <ele>181</ele>
        <time>2012-10-14T06:36:36Z</time>
      </trkpt>
      <trkpt lat="44.5825" lon="1.02735">
        <ele>184</ele>
        <time>2012-10-14T06:36:44Z</time>
      </trkpt>
      <trkpt lat="44.58251" lon="1.02733">
        <ele>190</ele>
        <time>2012-10-14T06:37:01Z</time>
      </trkpt>
      <trkpt lat="44.58252" lon="1.02731">
        <ele>193</ele>
        <time>2012-10-14T06:37:21Z</time>
      </trkpt>
      <trkpt lat="44.5825" lon="1.02731">
        <ele>194</ele>
        <time>2012-10-14T06:37:45Z</time>
      </trkpt>
      <trkpt lat="44.58249" lon="1.02732">
        <ele>194</ele>
        <time>2012-10-14T06:37:54Z</time>
      </trkpt>
      <trkpt lat="44.58245" lon="1.02736">
        <ele>191</ele>
        <time>2012-10-14T06:38:02Z</time>
      </trkpt>
      <trkpt lat="44.58244" lon="1.02738">
        <ele>182</ele>
        <time>2012-10-14T06:38:21Z</time>
      </trkpt>
      <trkpt lat="44.58244" lon="1.0274">
        <ele>179</ele>
        <time>2012-10-14T06:38:39Z</time>
      </trkpt>
      <trkpt lat="44.58244" lon="1.02741">
        <ele>177</ele>
        <time>2012-10-14T06:39:06Z</time>
      </trkpt>
      <trkpt lat="44.58244" lon="1.02739">
        <ele>175</ele>
        <time>2012-10-14T06:39:39Z</time>
      </trkpt>
      <trkpt lat="44.58245" lon="1.02739">
        <ele>175</ele>
        <time>2012-10-14T06:39:48Z</time>
      </trkpt>
      <trkpt lat="44.58247" lon="1.02738">
        <ele>174</ele>
        <time>2012-10-14T06:39:50Z</time>
      </trkpt>
      <trkpt lat="44.58257" lon="1.0274">
        <ele>174</ele>
        <time>2012-10-14T06:39:56Z</time>
      </trkpt>
      <trkpt lat="44.58256" lon="1.02738">
        <ele>173</ele>
        <time>2012-10-14T06:40:05Z</time>
      </trkpt>
      <trkpt lat="44.58255" lon="1.0274">
        <ele>168</ele>
        <time>2012-10-14T06:40:15Z</time>
      </trkpt>
      <trkpt lat="44.58258" lon="1.0274">
        <ele>166</ele>
        <time>2012-10-14T06:40:22Z</time>
      </trkpt>
      <trkpt lat="44.58307" lon="1.02722">
        <ele>164</ele>
        <time>2012-10-14T06:40:28Z</time>
      </trkpt>
      <trkpt lat="44.58386" lon="1.027">
        <ele>161</ele>
        <time>2012-10-14T06:40:35Z</time>
      </trkpt>
      <trkpt lat="44.58409" lon="1.02689">
        <ele>159</ele>
        <time>2012-10-14T06:40:42Z</time>
      </trkpt>
      <trkpt lat="44.5845" lon="1.02665">
        <ele>156</ele>
        <time>2012-10-14T06:40:49Z</time>
      </trkpt>
      <trkpt lat="44.58462" lon="1.02674">
        <ele>154</ele>
        <time>2012-10-14T06:40:51Z</time>
      </trkpt>
      <trkpt lat="44.58465" lon="1.02684">
        <ele>154</ele>
        <time>2012-10-14T06:40:56Z</time>
      </trkpt>
      <trkpt lat="44.58466" lon="1.0269">
        <ele>154</ele>
        <time>2012-10-14T06:40:59Z</time>
      </trkpt>
      <trkpt lat="44.58466" lon="1.02698">
        <ele>155</ele>
        <time>2012-10-14T06:41:04Z</time>
      </trkpt>
      <trkpt lat="44.58465" lon="1.0272">
        <ele>158</ele>
        <time>2012-10-14T06:41:11Z</time>
      </trkpt>
      <trkpt lat="44.58463" lon="1.02736">
        <ele>161</ele>
        <time>2012-10-14T06:41:17Z</time>
      </trkpt>
      <trkpt lat="44.58459" lon="1.02756">
        <ele>165</ele>
        <time>2012-10-14T06:41:24Z</time>
      </trkpt>
      <trkpt lat="44.58458" lon="1.0277">
        <ele>167</ele>
        <time>2012-10-14T06:41:26Z</time>
      </trkpt>
      <trkpt lat="44.58459" lon="1.0278">
        <ele>169</ele>
        <time>2012-10-14T06:41:33Z</time>
      </trkpt>
      <trkpt lat="44.58461" lon="1.02805">
        <ele>172</ele>
        <time>2012-10-14T06:41:40Z</time>
      </trkpt>
      <trkpt lat="44.58465" lon="1.02832">
        <ele>174</ele>
        <time>2012-10-14T06:41:47Z</time>
      </trkpt>
      <trkpt lat="44.58461" lon="1.02847">
        <ele>174</ele>
        <time>2012-10-14T06:41:49Z</time>
      </trkpt>
      <trkpt lat="44.58458" lon="1.02852">
        <ele>174</ele>
        <time>2012-10-14T06:41:55Z</time>
      </trkpt>
      <trkpt lat="44.58444" lon="1.02886">
        <ele>174</ele>
        <time>2012-10-14T06:42:02Z</time>
      </trkpt>
      <trkpt lat="44.58425" lon="1.02908">
        <ele>174</ele>
        <time>2012-10-14T06:42:04Z</time>
      </trkpt>
      <trkpt lat="44.58418" lon="1.0292">
        <ele>174</ele>
        <time>2012-10-14T06:42:11Z</time>
      </trkpt>
      <trkpt lat="44.58399" lon="1.02938">
        <ele>172</ele>
        <time>2012-10-14T06:42:13Z</time>
      </trkpt>
      <trkpt lat="44.58392" lon="1.0294">
        <ele>172</ele>
        <time>2012-10-14T06:42:18Z</time>
      </trkpt>
      <trkpt lat="44.5836" lon="1.02947">
        <ele>170</ele>
        <time>2012-10-14T06:42:21Z</time>
      </trkpt>
      <trkpt lat="44.58348" lon="1.02957">
        <ele>169</ele>
        <time>2012-10-14T06:42:26Z</time>
      </trkpt>
      <trkpt lat="44.58344" lon="1.02969">
        <ele>163</ele>
        <time>2012-10-14T06:42:37Z</time>
      </trkpt>
      <trkpt lat="44.58347" lon="1.02968">
        <ele>160</ele>
        <time>2012-10-14T06:42:46Z</time>
      </trkpt>
      <trkpt lat="44.58349" lon="1.0297">
        <ele>161</ele>
        <time>2012-10-14T06:42:49Z</time>
      </trkpt>
      <trkpt lat="44.58359" lon="1.02978">
        <ele>162</ele>
        <time>2012-10-14T06:42:55Z</time>
      </trkpt>
      <trkpt lat="44.58364" lon="1.02984">
        <ele>163</ele>
        <time>2012-10-14T06:42:58Z</time>
      </trkpt>
      <trkpt lat="44.58369" lon="1.02989">
        <ele>163</ele>
        <time>2012-10-14T06:43:03Z</time>
      </trkpt>
      <trkpt lat="44.58374" lon="1.03005">
        <ele>163</ele>
        <time>2012-10-14T06:43:05Z</time>
      </trkpt>
      <trkpt lat="44.58376" lon="1.03012">
        <ele>163</ele>
        <time>2012-10-14T06:43:12Z</time>
      </trkpt>
      <trkpt lat="44.58381" lon="1.0302">
        <ele>161</ele>
        <time>2012-10-14T06:43:14Z</time>
      </trkpt>
      <trkpt lat="44.58384" lon="1.03022">
        <ele>160</ele>
        <time>2012-10-14T06:43:21Z</time>
      </trkpt>
      <trkpt lat="44.58393" lon="1.03031">
        <ele>158</ele>
        <time>2012-10-14T06:43:23Z</time>
      </trkpt>
      <trkpt lat="44.584" lon="1.03034">
        <ele>156</ele>
        <time>2012-10-14T06:43:25Z</time>
      </trkpt>
      <trkpt lat="44.58408" lon="1.03037">
        <ele>155</ele>
        <time>2012-10-14T06:43:30Z</time>
      </trkpt>
      <trkpt lat="44.58437" lon="1.03053">
        <ele>152</ele>
        <time>2012-10-14T06:43:37Z</time>
      </trkpt>
      <trkpt lat="44.58445" lon="1.03087">
        <ele>149</ele>
        <time>2012-10-14T06:43:40Z</time>
      </trkpt>
      <trkpt lat="44.58447" lon="1.03098">
        <ele>148</ele>
        <time>2012-10-14T06:43:45Z</time>
      </trkpt>
      <trkpt lat="44.58446" lon="1.03112">
        <ele>150</ele>
        <time>2012-10-14T06:43:55Z</time>
      </trkpt>
      <trkpt lat="44.58449" lon="1.03115">
        <ele>152</ele>
        <time>2012-10-14T06:43:57Z</time>
      </trkpt>
      <trkpt lat="44.58448" lon="1.03114">
        <ele>153</ele>
        <time>2012-10-14T06:44:03Z</time>
      </trkpt>
      <trkpt lat="44.58447" lon="1.03117">
        <ele>156</ele>
        <time>2012-10-14T06:44:06Z</time>
      </trkpt>
      <trkpt lat="44.58439" lon="1.03119">
        <ele>157</ele>
        <time>2012-10-14T06:44:13Z</time>
      </trkpt>
      <trkpt lat="44.58433" lon="1.03123">
        <ele>157</ele>
        <time>2012-10-14T06:44:20Z</time>
      </trkpt>
      <trkpt lat="44.58421" lon="1.03129">
        <ele>157</ele>
        <time>2012-10-14T06:44:27Z</time>
      </trkpt>
      <trkpt lat="44.5841" lon="1.03134">
        <ele>157</ele>
        <time>2012-10-14T06:44:34Z</time>
      </trkpt>
      <trkpt lat="44.58398" lon="1.03139">
        <ele>157</ele>
        <time>2012-10-14T06:44:41Z</time>
      </trkpt>
      <trkpt lat="44.5839" lon="1.03144">
        <ele>158</ele>
        <time>2012-10-14T06:44:43Z</time>
      </trkpt>
      <trkpt lat="44.58387" lon="1.03146">
        <ele>159</ele>
        <time>2012-10-14T06:44:49Z</time>
      </trkpt>
      <trkpt lat="44.58372" lon="1.03156">
        <ele>159</ele>
        <time>2012-10-14T06:44:56Z</time>
      </trkpt>
      <trkpt lat="44.58357" lon="1.03167">
        <ele>157</ele>
        <time>2012-10-14T06:44:58Z</time>
      </trkpt>
      <trkpt lat="44.58352" lon="1.03171">
        <ele>156</ele>
        <time>2012-10-14T06:45:04Z</time>
      </trkpt>
      <trkpt lat="44.58338" lon="1.03182">
        <ele>155</ele>
        <time>2012-10-14T06:45:11Z</time>
      </trkpt>
      <trkpt lat="44.5832" lon="1.03199">
        <ele>155</ele>
        <time>2012-10-14T06:45:18Z</time>
      </trkpt>
      <trkpt lat="44.58305" lon="1.03211">
        <ele>155</ele>
        <time>2012-10-14T06:45:25Z</time>
      </trkpt>
      <trkpt lat="44.58275" lon="1.03226">
        <ele>154</ele>
        <time>2012-10-14T06:45:32Z</time>
      </trkpt>
      <trkpt lat="44.58271" lon="1.03228">
        <ele>152</ele>
        <time>2012-10-14T06:45:34Z</time>
      </trkpt>
      <trkpt lat="44.5825" lon="1.03234">
        <ele>152</ele>
        <time>2012-10-14T06:45:41Z</time>
      </trkpt>
      <trkpt lat="44.5824" lon="1.03236">
        <ele>152</ele>
        <time>2012-10-14T06:45:48Z</time>
      </trkpt>
      <trkpt lat="44.58219" lon="1.03242">
        <ele>152</ele>
        <time>2012-10-14T06:45:55Z</time>
      </trkpt>
      <trkpt lat="44.58197" lon="1.03251">
        <ele>152</ele>
        <time>2012-10-14T06:46:02Z</time>
      </trkpt>
      <trkpt lat="44.58178" lon="1.03256">
        <ele>152</ele>
        <time>2012-10-14T06:46:09Z</time>
      </trkpt>
      <trkpt lat="44.58161" lon="1.0326">
        <ele>152</ele>
        <time>2012-10-14T06:46:16Z</time>
      </trkpt>
      <trkpt lat="44.58144" lon="1.0327">
        <ele>152</ele>
        <time>2012-10-14T06:46:23Z</time>
      </trkpt>
      <trkpt lat="44.58125" lon="1.03281">
        <ele>152</ele>
        <time>2012-10-14T06:46:30Z</time>
      </trkpt>
      <trkpt lat="44.58094" lon="1.03298">
        <ele>152</ele>
        <time>2012-10-14T06:46:37Z</time>
      </trkpt>
      <trkpt lat="44.58078" lon="1.03308">
        <ele>152</ele>
        <time>2012-10-14T06:46:44Z</time>
      </trkpt>
      <trkpt lat="44.58068" lon="1.03314">
        <ele>152</ele>
        <time>2012-10-14T06:46:52Z</time>
      </trkpt>
      <trkpt lat="44.58047" lon="1.03331">
        <ele>152</ele>
        <time>2012-10-14T06:46:59Z</time>
      </trkpt>
      <trkpt lat="44.58035" lon="1.03346">
        <ele>152</ele>
        <time>2012-10-14T06:47:01Z</time>
      </trkpt>
      <trkpt lat="44.58031" lon="1.03351">
        <ele>152</ele>
        <time>2012-10-14T06:47:07Z</time>
      </trkpt>
      <trkpt lat="44.58015" lon="1.03374">
        <ele>152</ele>
        <time>2012-10-14T06:47:14Z</time>
      </trkpt>
      <trkpt lat="44.57999" lon="1.03386">
        <ele>153</ele>
        <time>2012-10-14T06:47:17Z</time>
      </trkpt>
      <trkpt lat="44.57978" lon="1.03381">
        <ele>155</ele>
        <time>2012-10-14T06:47:23Z</time>
      </trkpt>
      <trkpt lat="44.57963" lon="1.03383">
        <ele>156</ele>
        <time>2012-10-14T06:47:30Z</time>
      </trkpt>
      <trkpt lat="44.57962" lon="1.03387">
        <ele>157</ele>
        <time>2012-10-14T06:47:33Z</time>
      </trkpt>
      <trkpt lat="44.57961" lon="1.03393">
        <ele>157</ele>
        <time>2012-10-14T06:47:38Z</time>
      </trkpt>
      <trkpt lat="44.57953" lon="1.03437">
        <ele>159</ele>
        <time>2012-10-14T06:47:45Z</time>
      </trkpt>
      <trkpt lat="44.57947" lon="1.03453">
        <ele>160</ele>
        <time>2012-10-14T06:47:53Z</time>
      </trkpt>
      <trkpt lat="44.57939" lon="1.03479">
        <ele>160</ele>
        <time>2012-10-14T06:48:00Z</time>
      </trkpt>
      <trkpt lat="44.57931" lon="1.03504">
        <ele>161</ele>
        <time>2012-10-14T06:48:07Z</time>
      </trkpt>
      <trkpt lat="44.57918" lon="1.03545">
        <ele>163</ele>
        <time>2012-10-14T06:48:14Z</time>
      </trkpt>
      <trkpt lat="44.57914" lon="1.03559">
        <ele>165</ele>
        <time>2012-10-14T06:48:22Z</time>
      </trkpt>
      <trkpt lat="44.57901" lon="1.0358">
        <ele>167</ele>
        <time>2012-10-14T06:48:24Z</time>
      </trkpt>
      <trkpt lat="44.57898" lon="1.03586">
        <ele>167</ele>
        <time>2012-10-14T06:48:30Z</time>
      </trkpt>
      <trkpt lat="44.57887" lon="1.03611">
        <ele>168</ele>
        <time>2012-10-14T06:48:37Z</time>
      </trkpt>
      <trkpt lat="44.57874" lon="1.03636">
        <ele>168</ele>
        <time>2012-10-14T06:48:44Z</time>
      </trkpt>
      <trkpt lat="44.57856" lon="1.03655">
        <ele>170</ele>
        <time>2012-10-14T06:48:53Z</time>
      </trkpt>
      <trkpt lat="44.57838" lon="1.03675">
        <ele>172</ele>
        <time>2012-10-14T06:49:00Z</time>
      </trkpt>
      <trkpt lat="44.57819" lon="1.03689">
        <ele>172</ele>
        <time>2012-10-14T06:49:07Z</time>
      </trkpt>
      <trkpt lat="44.57788" lon="1.03718">
        <ele>171</ele>
        <time>2012-10-14T06:49:14Z</time>
      </trkpt>
      <trkpt lat="44.57782" lon="1.03729">
        <ele>170</ele>
        <time>2012-10-14T06:49:22Z</time>
      </trkpt>
      <trkpt lat="44.57773" lon="1.03745">
        <ele>170</ele>
        <time>2012-10-14T06:49:24Z</time>
      </trkpt>
      <trkpt lat="44.57771" lon="1.03751">
        <ele>170</ele>
        <time>2012-10-14T06:49:30Z</time>
      </trkpt>
      <trkpt lat="44.57767" lon="1.03765">
        <ele>170</ele>
        <time>2012-10-14T06:49:32Z</time>
      </trkpt>
      <trkpt lat="44.57766" lon="1.03769">
        <ele>170</ele>
        <time>2012-10-14T06:49:38Z</time>
      </trkpt>
      <trkpt lat="44.57757" lon="1.038">
        <ele>173</ele>
        <time>2012-10-14T06:49:45Z</time>
      </trkpt>
      <trkpt lat="44.57756" lon="1.03806">
        <ele>174</ele>
        <time>2012-10-14T06:49:47Z</time>
      </trkpt>
      <trkpt lat="44.57756" lon="1.03814">
        <ele>175</ele>
        <time>2012-10-14T06:49:53Z</time>
      </trkpt>
      <trkpt lat="44.5775" lon="1.03852">
        <ele>175</ele>
        <time>2012-10-14T06:50:00Z</time>
      </trkpt>
      <trkpt lat="44.5775" lon="1.03867">
        <ele>176</ele>
        <time>2012-10-14T06:50:08Z</time>
      </trkpt>
      <trkpt lat="44.5775" lon="1.03889">
        <ele>176</ele>
        <time>2012-10-14T06:50:10Z</time>
      </trkpt>
      <trkpt lat="44.57757" lon="1.03913">
        <ele>176</ele>
        <time>2012-10-14T06:50:17Z</time>
      </trkpt>
      <trkpt lat="44.57761" lon="1.0392">
        <ele>178</ele>
        <time>2012-10-14T06:50:19Z</time>
      </trkpt>
      <trkpt lat="44.57763" lon="1.03926">
        <ele>179</ele>
        <time>2012-10-14T06:50:25Z</time>
      </trkpt>
      <trkpt lat="44.57763" lon="1.03954">
        <ele>182</ele>
        <time>2012-10-14T06:50:32Z</time>
      </trkpt>
      <trkpt lat="44.57758" lon="1.03978">
        <ele>185</ele>
        <time>2012-10-14T06:50:35Z</time>
      </trkpt>
      <trkpt lat="44.57756" lon="1.03984">
        <ele>186</ele>
        <time>2012-10-14T06:50:40Z</time>
      </trkpt>
      <trkpt lat="44.57744" lon="1.04015">
        <ele>188</ele>
        <time>2012-10-14T06:50:48Z</time>
      </trkpt>
      <trkpt lat="44.57728" lon="1.04053">
        <ele>190</ele>
        <time>2012-10-14T06:50:55Z</time>
      </trkpt>
      <trkpt lat="44.57722" lon="1.04063">
        <ele>191</ele>
        <time>2012-10-14T06:51:03Z</time>
      </trkpt>
      <trkpt lat="44.57717" lon="1.04079">
        <ele>191</ele>
        <time>2012-10-14T06:51:05Z</time>
      </trkpt>
      <trkpt lat="44.57713" lon="1.04086">
        <ele>191</ele>
        <time>2012-10-14T06:51:09Z</time>
      </trkpt>
      <trkpt lat="44.57703" lon="1.04109">
        <ele>191</ele>
        <time>2012-10-14T06:51:15Z</time>
      </trkpt>
      <trkpt lat="44.57686" lon="1.04138">
        <ele>191</ele>
        <time>2012-10-14T06:51:21Z</time>
      </trkpt>
      <trkpt lat="44.57677" lon="1.04155">
        <ele>192</ele>
        <time>2012-10-14T06:51:27Z</time>
      </trkpt>
      <trkpt lat="44.57671" lon="1.04164">
        <ele>193</ele>
        <time>2012-10-14T06:51:33Z</time>
      </trkpt>
      <trkpt lat="44.57664" lon="1.04178">
        <ele>195</ele>
        <time>2012-10-14T06:51:35Z</time>
      </trkpt>
      <trkpt lat="44.57661" lon="1.04184">
        <ele>196</ele>
        <time>2012-10-14T06:51:40Z</time>
      </trkpt>
      <trkpt lat="44.57655" lon="1.042">
        <ele>198</ele>
        <time>2012-10-14T06:51:46Z</time>
      </trkpt>
      <trkpt lat="44.57656" lon="1.04219">
        <ele>201</ele>
        <time>2012-10-14T06:51:48Z</time>
      </trkpt>
      <trkpt lat="44.57657" lon="1.04234">
        <ele>203</ele>
        <time>2012-10-14T06:51:54Z</time>
      </trkpt>
      <trkpt lat="44.57662" lon="1.04256">
        <ele>203</ele>
        <time>2012-10-14T06:51:56Z</time>
      </trkpt>
      <trkpt lat="44.57663" lon="1.04267">
        <ele>203</ele>
        <time>2012-10-14T06:52:01Z</time>
      </trkpt>
      <trkpt lat="44.57668" lon="1.04295">
        <ele>203</ele>
        <time>2012-10-14T06:52:07Z</time>
      </trkpt>
      <trkpt lat="44.57667" lon="1.04321">
        <ele>203</ele>
        <time>2012-10-14T06:52:09Z</time>
      </trkpt>
      <trkpt lat="44.57663" lon="1.04329">
        <ele>203</ele>
        <time>2012-10-14T06:52:15Z</time>
      </trkpt>
      <trkpt lat="44.57644" lon="1.04363">
        <ele>203</ele>
        <time>2012-10-14T06:52:21Z</time>
      </trkpt>
      <trkpt lat="44.57634" lon="1.04374">
        <ele>203</ele>
        <time>2012-10-14T06:52:23Z</time>
      </trkpt>
      <trkpt lat="44.57629" lon="1.04383">
        <ele>203</ele>
        <time>2012-10-14T06:52:29Z</time>
      </trkpt>
      <trkpt lat="44.57626" lon="1.04394">
        <ele>203</ele>
        <time>2012-10-14T06:52:31Z</time>
      </trkpt>
      <trkpt lat="44.57624" lon="1.04397">
        <ele>203</ele>
        <time>2012-10-14T06:52:36Z</time>
      </trkpt>
      <trkpt lat="44.57616" lon="1.04408">
        <ele>203</ele>
        <time>2012-10-14T06:52:42Z</time>
      </trkpt>
      <trkpt lat="44.57616" lon="1.04406">
        <ele>203</ele>
        <time>2012-10-14T06:52:44Z</time>
      </trkpt>
      <trkpt lat="44.57615" lon="1.04405">
        <ele>203</ele>
        <time>2012-10-14T06:52:51Z</time>
      </trkpt>
      <trkpt lat="44.57614" lon="1.04407">
        <ele>200</ele>
        <time>2012-10-14T06:52:59Z</time>
      </trkpt>
      <trkpt lat="44.57616" lon="1.04411">
        <ele>200</ele>
        <time>2012-10-14T06:53:06Z</time>
      </trkpt>
      <trkpt lat="44.57608" lon="1.04417">
        <ele>200</ele>
        <time>2012-10-14T06:53:09Z</time>
      </trkpt>
      <trkpt lat="44.57607" lon="1.04419">
        <ele>200</ele>
        <time>2012-10-14T06:53:13Z</time>
      </trkpt>
      <trkpt lat="44.576" lon="1.0442">
        <ele>200</ele>
        <time>2012-10-14T06:53:16Z</time>
      </trkpt>
      <trkpt lat="44.57596" lon="1.04425">
        <ele>200</ele>
        <time>2012-10-14T06:53:24Z</time>
      </trkpt>
      <trkpt lat="44.57595" lon="1.04427">
        <ele>200</ele>
        <time>2012-10-14T06:53:30Z</time>
      </trkpt>
      <trkpt lat="44.57591" lon="1.04431">
        <ele>200</ele>
        <time>2012-10-14T06:53:33Z</time>
      </trkpt>
      <trkpt lat="44.57587" lon="1.04433">
        <ele>200</ele>
        <time>2012-10-14T06:53:38Z</time>
      </trkpt>
      <trkpt lat="44.57576" lon="1.04446">
        <ele>200</ele>
        <time>2012-10-14T06:53:45Z</time>
      </trkpt>
      <trkpt lat="44.57574" lon="1.04446">
        <ele>201</ele>
        <time>2012-10-14T06:53:47Z</time>
      </trkpt>
      <trkpt lat="44.57571" lon="1.04449">
        <ele>202</ele>
        <time>2012-10-14T06:53:50Z</time>
      </trkpt>
      <trkpt lat="44.57569" lon="1.04451">
        <ele>204</ele>
        <time>2012-10-14T06:53:56Z</time>
      </trkpt>
      <trkpt lat="44.57562" lon="1.04454">
        <ele>208</ele>
        <time>2012-10-14T06:53:59Z</time>
      </trkpt>
      <trkpt lat="44.57558" lon="1.04455">
        <ele>210</ele>
        <time>2012-10-14T06:54:04Z</time>
      </trkpt>
      <trkpt lat="44.57547" lon="1.04462">
        <ele>215</ele>
        <time>2012-10-14T06:54:07Z</time>
      </trkpt>
      <trkpt lat="44.57545" lon="1.04464">
        <ele>217</ele>
        <time>2012-10-14T06:54:12Z</time>
      </trkpt>
      <trkpt lat="44.57545" lon="1.04468">
        <ele>222</ele>
        <time>2012-10-14T06:54:21Z</time>
      </trkpt>
      <trkpt lat="44.57547" lon="1.04466">
        <ele>223</ele>
        <time>2012-10-14T06:54:28Z</time>
      </trkpt>
      <trkpt lat="44.5755" lon="1.04463">
        <ele>221</ele>
        <time>2012-10-14T06:54:30Z</time>
      </trkpt>
      <trkpt lat="44.57553" lon="1.04458">
        <ele>220</ele>
        <time>2012-10-14T06:54:36Z</time>
      </trkpt>
      <trkpt lat="44.57559" lon="1.0445">
        <ele>216</ele>
        <time>2012-10-14T06:54:38Z</time>
      </trkpt>
      <trkpt lat="44.57561" lon="1.04448">
        <ele>215</ele>
        <time>2012-10-14T06:54:43Z</time>
      </trkpt>
      <trkpt lat="44.57564" lon="1.04444">
        <ele>213</ele>
        <time>2012-10-14T06:54:51Z</time>
      </trkpt>
      <trkpt lat="44.57565" lon="1.04443">
        <ele>213</ele>
        <time>2012-10-14T06:55:01Z</time>
      </trkpt>
      <trkpt lat="44.57565" lon="1.0444">
        <ele>213</ele>
        <time>2012-10-14T06:55:07Z</time>
      </trkpt>
      <trkpt lat="44.57565" lon="1.04438">
        <ele>214</ele>
        <time>2012-10-14T06:55:17Z</time>
      </trkpt>
      <trkpt lat="44.57566" lon="1.0444">
        <ele>218</ele>
        <time>2012-10-14T06:55:34Z</time>
      </trkpt>
      <trkpt lat="44.57566" lon="1.04438">
        <ele>220</ele>
        <time>2012-10-14T06:55:43Z</time>
      </trkpt>
      <trkpt lat="44.57565" lon="1.04439">
        <ele>222</ele>
        <time>2012-10-14T06:55:53Z</time>
      </trkpt>
      <trkpt lat="44.57563" lon="1.04441">
        <ele>222</ele>
        <time>2012-10-14T06:56:00Z</time>
      </trkpt>
      <trkpt lat="44.57562" lon="1.04441">
        <ele>221</ele>
        <time>2012-10-14T06:56:03Z</time>
      </trkpt>
      <trkpt lat="44.57564" lon="1.04443">
        <ele>217</ele>
        <time>2012-10-14T06:56:11Z</time>
      </trkpt>
      <trkpt lat="44.57565" lon="1.04448">
        <ele>214</ele>
        <time>2012-10-14T06:56:17Z</time>
      </trkpt>
      <trkpt lat="44.57567" lon="1.04455">
        <ele>212</ele>
        <time>2012-10-14T06:56:19Z</time>
      </trkpt>
      <trkpt lat="44.57567" lon="1.0446">
        <ele>212</ele>
        <time>2012-10-14T06:56:24Z</time>
      </trkpt>
      <trkpt lat="44.57565" lon="1.04473">
        <ele>212</ele>
        <time>2012-10-14T06:56:32Z</time>
      </trkpt>
      <trkpt lat="44.5756" lon="1.04493">
        <ele>212</ele>
        <time>2012-10-14T06:56:39Z</time>
      </trkpt>
      <trkpt lat="44.57554" lon="1.04508">
        <ele>212</ele>
        <time>2012-10-14T06:56:41Z</time>
      </trkpt>
      <trkpt lat="44.5755" lon="1.04516">
        <ele>212</ele>
        <time>2012-10-14T06:56:47Z</time>
      </trkpt>
      <trkpt lat="44.57545" lon="1.04518">
        <ele>212</ele>
        <time>2012-10-14T06:56:55Z</time>
      </trkpt>
      <trkpt lat="44.57551" lon="1.04519">
        <ele>213</ele>
        <time>2012-10-14T06:57:03Z</time>
      </trkpt>
      <trkpt lat="44.57548" lon="1.04515">
        <ele>216</ele>
        <time>2012-10-14T06:57:06Z</time>
      </trkpt>
      <trkpt lat="44.57547" lon="1.04513">
        <ele>217</ele>
        <time>2012-10-14T06:57:11Z</time>
      </trkpt>
      <trkpt lat="44.57548" lon="1.04514">
        <ele>219</ele>
        <time>2012-10-14T06:57:14Z</time>
      </trkpt>
      <trkpt lat="44.5755" lon="1.04514">
        <ele>220</ele>
        <time>2012-10-14T06:57:19Z</time>
      </trkpt>
      <trkpt lat="44.57552" lon="1.04513">
        <ele>221</ele>
        <time>2012-10-14T06:57:22Z</time>
      </trkpt>
      <trkpt lat="44.57554" lon="1.04513">
        <ele>221</ele>
        <time>2012-10-14T06:57:27Z</time>
      </trkpt>
      <trkpt lat="44.57554" lon="1.04511">
        <ele>220</ele>
        <time>2012-10-14T06:57:35Z</time>
      </trkpt>
      <trkpt lat="44.57549" lon="1.04509">
        <ele>216</ele>
        <time>2012-10-14T06:57:38Z</time>
      </trkpt>
      <trkpt lat="44.57546" lon="1.04508">
        <ele>212</ele>
        <time>2012-10-14T06:57:43Z</time>
      </trkpt>
      <trkpt lat="44.57547" lon="1.04512">
        <ele>204</ele>
        <time>2012-10-14T06:57:47Z</time>
      </trkpt>
      <trkpt lat="44.57545" lon="1.0451">
        <ele>200</ele>
        <time>2012-10-14T06:57:52Z</time>
      </trkpt>
      <trkpt lat="44.57546" lon="1.04513">
        <ele>194</ele>
        <time>2012-10-14T06:58:02Z</time>
      </trkpt>
      <trkpt lat="44.57552" lon="1.0452">
        <ele>192</ele>
        <time>2012-10-14T06:58:08Z</time>
      </trkpt>
      <trkpt lat="44.5755" lon="1.04521">
        <ele>194</ele>
        <time>2012-10-14T06:58:10Z</time>
      </trkpt>
      <trkpt lat="44.57554" lon="1.04517">
        <ele>203</ele>
        <time>2012-10-14T06:58:25Z</time>
      </trkpt>
      <trkpt lat="44.57557" lon="1.04516">
        <ele>205</ele>
        <time>2012-10-14T06:58:33Z</time>
      </trkpt>
      <trkpt lat="44.57555" lon="1.04514">
        <ele>207</ele>
        <time>2012-10-14T06:58:49Z</time>
      </trkpt>
      <trkpt lat="44.57552" lon="1.04513">
        <ele>214</ele>
        <time>2012-10-14T06:59:05Z</time>
      </trkpt>
      <trkpt lat="44.57551" lon="1.04512">
        <ele>214</ele>
        <time>2012-10-14T06:59:12Z</time>
      </trkpt>
      <trkpt lat="44.57542" lon="1.04511">
        <ele>214</ele>
        <time>2012-10-14T06:59:22Z</time>
      </trkpt>
      <trkpt lat="44.57537" lon="1.04509">
        <ele>214</ele>
        <time>2012-10-14T06:59:24Z</time>
      </trkpt>
      <trkpt lat="44.57533" lon="1.04509">
        <ele>213</ele>
        <time>2012-10-14T06:59:28Z</time>
      </trkpt>
      <trkpt lat="44.57519" lon="1.04508">
        <ele>210</ele>
        <time>2012-10-14T06:59:31Z</time>
      </trkpt>
      <trkpt lat="44.57512" lon="1.04508">
        <ele>209</ele>
        <time>2012-10-14T06:59:38Z</time>
      </trkpt>
      <trkpt lat="44.57494" lon="1.04506">
        <ele>208</ele>
        <time>2012-10-14T06:59:43Z</time>
      </trkpt>
      <trkpt lat="44.57486" lon="1.04501">
        <ele>208</ele>
        <time>2012-10-14T06:59:50Z</time>
      </trkpt>
      <trkpt lat="44.57473" lon="1.04496">
        <ele>208</ele>
        <time>2012-10-14T06:59:52Z</time>
      </trkpt>
      <trkpt lat="44.57463" lon="1.04495">
        <ele>208</ele>
        <time>2012-10-14T06:59:58Z</time>
      </trkpt>
      <trkpt lat="44.57447" lon="1.04497">
        <ele>208</ele>
        <time>2012-10-14T07:00:00Z</time>
      </trkpt>
      <trkpt lat="44.5744" lon="1.04496">
        <ele>208</ele>
        <time>2012-10-14T07:00:05Z</time>
      </trkpt>
      <trkpt lat="44.57424" lon="1.045">
        <ele>209</ele>
        <time>2012-10-14T07:00:11Z</time>
      </trkpt>
      <trkpt lat="44.57408" lon="1.04506">
        <ele>209</ele>
        <time>2012-10-14T07:00:13Z</time>
      </trkpt>
      <trkpt lat="44.57399" lon="1.04516">
        <ele>210</ele>
        <time>2012-10-14T07:00:19Z</time>
      </trkpt>
      <trkpt lat="44.57384" lon="1.04523">
        <ele>212</ele>
        <time>2012-10-14T07:00:25Z</time>
      </trkpt>
      <trkpt lat="44.57361" lon="1.04529">
        <ele>213</ele>
        <time>2012-10-14T07:00:31Z</time>
      </trkpt>
      <trkpt lat="44.57354" lon="1.04534">
        <ele>214</ele>
        <time>2012-10-14T07:00:37Z</time>
      </trkpt>
      <trkpt lat="44.57345" lon="1.04545">
        <ele>214</ele>
        <time>2012-10-14T07:00:40Z</time>
      </trkpt>
      <trkpt lat="44.57333" lon="1.04576">
        <ele>216</ele>
        <time>2012-10-14T07:00:47Z</time>
      </trkpt>
      <trkpt lat="44.5733" lon="1.04584">
        <ele>218</ele>
        <time>2012-10-14T07:00:49Z</time>
      </trkpt>
      <trkpt lat="44.57327" lon="1.04588">
        <ele>219</ele>
        <time>2012-10-14T07:00:54Z</time>
      </trkpt>
      <trkpt lat="44.57313" lon="1.04606">
        <ele>222</ele>
        <time>2012-10-14T07:01:00Z</time>
      </trkpt>
      <trkpt lat="44.573" lon="1.04615">
        <ele>224</ele>
        <time>2012-10-14T07:01:06Z</time>
      </trkpt>
      <trkpt lat="44.57286" lon="1.04631">
        <ele>224</ele>
        <time>2012-10-14T07:01:13Z</time>
      </trkpt>
      <trkpt lat="44.57272" lon="1.04643">
        <ele>224</ele>
        <time>2012-10-14T07:01:19Z</time>
      </trkpt>
      <trkpt lat="44.57254" lon="1.04652">
        <ele>224</ele>
        <time>2012-10-14T07:01:25Z</time>
      </trkpt>
      <trkpt lat="44.57239" lon="1.04664">
        <ele>224</ele>
        <time>2012-10-14T07:01:32Z</time>
      </trkpt>
      <trkpt lat="44.57224" lon="1.04679">
        <ele>224</ele>
        <time>2012-10-14T07:01:38Z</time>
      </trkpt>
      <trkpt lat="44.57199" lon="1.04704">
        <ele>224</ele>
        <time>2012-10-14T07:01:44Z</time>
      </trkpt>
      <trkpt lat="44.57192" lon="1.04712">
        <ele>224</ele>
        <time>2012-10-14T07:01:50Z</time>
      </trkpt>
      <trkpt lat="44.57177" lon="1.04732">
        <ele>224</ele>
        <time>2012-10-14T07:01:57Z</time>
      </trkpt>
      <trkpt lat="44.57166" lon="1.04748">
        <ele>224</ele>
        <time>2012-10-14T07:01:59Z</time>
      </trkpt>
      <trkpt lat="44.5716" lon="1.04757">
        <ele>224</ele>
        <time>2012-10-14T07:02:04Z</time>
      </trkpt>
      <trkpt lat="44.57151" lon="1.04776">
        <ele>224</ele>
        <time>2012-10-14T07:02:06Z</time>
      </trkpt>
      <trkpt lat="44.57149" lon="1.04781">
        <ele>225</ele>
        <time>2012-10-14T07:02:11Z</time>
      </trkpt>
      <trkpt lat="44.57146" lon="1.04786">
        <ele>226</ele>
        <time>2012-10-14T07:02:29Z</time>
      </trkpt>
      <trkpt lat="44.57139" lon="1.04794">
        <ele>228</ele>
        <time>2012-10-14T07:02:37Z</time>
      </trkpt>
      <trkpt lat="44.57136" lon="1.04798">
        <ele>228</ele>
        <time>2012-10-14T07:02:40Z</time>
      </trkpt>
      <trkpt lat="44.57131" lon="1.04802">
        <ele>228</ele>
        <time>2012-10-14T07:02:44Z</time>
      </trkpt>
      <trkpt lat="44.5712" lon="1.04807">
        <ele>228</ele>
        <time>2012-10-14T07:02:47Z</time>
      </trkpt>
      <trkpt lat="44.57116" lon="1.04807">
        <ele>228</ele>
        <time>2012-10-14T07:02:53Z</time>
      </trkpt>
      <trkpt lat="44.57097" lon="1.04806">
        <ele>227</ele>
        <time>2012-10-14T07:02:59Z</time>
      </trkpt>
      <trkpt lat="44.57083" lon="1.04808">
        <ele>227</ele>
        <time>2012-10-14T07:03:05Z</time>
      </trkpt>
      <trkpt lat="44.5707" lon="1.04813">
        <ele>227</ele>
        <time>2012-10-14T07:03:07Z</time>
      </trkpt>
      <trkpt lat="44.57066" lon="1.04813">
        <ele>228</ele>
        <time>2012-10-14T07:03:12Z</time>
      </trkpt>
      <trkpt lat="44.57053" lon="1.04811">
        <ele>231</ele>
        <time>2012-10-14T07:03:14Z</time>
      </trkpt>
      <trkpt lat="44.57048" lon="1.04809">
        <ele>232</ele>
        <time>2012-10-14T07:03:19Z</time>
      </trkpt>
      <trkpt lat="44.57035" lon="1.04814">
        <ele>232</ele>
        <time>2012-10-14T07:03:21Z</time>
      </trkpt>
      <trkpt lat="44.57029" lon="1.04815">
        <ele>232</ele>
        <time>2012-10-14T07:03:26Z</time>
      </trkpt>
      <trkpt lat="44.57004" lon="1.04821">
        <ele>232</ele>
        <time>2012-10-14T07:03:32Z</time>
      </trkpt>
      <trkpt lat="44.56995" lon="1.04823">
        <ele>232</ele>
        <time>2012-10-14T07:03:38Z</time>
      </trkpt>
      <trkpt lat="44.56978" lon="1.04827">
        <ele>232</ele>
        <time>2012-10-14T07:03:45Z</time>
      </trkpt>
      <trkpt lat="44.56967" lon="1.04833">
        <ele>232</ele>
        <time>2012-10-14T07:03:47Z</time>
      </trkpt>
      <trkpt lat="44.56961" lon="1.04833">
        <ele>232</ele>
        <time>2012-10-14T07:03:52Z</time>
      </trkpt>
      <trkpt lat="44.56951" lon="1.04839">
        <ele>233</ele>
        <time>2012-10-14T07:03:58Z</time>
      </trkpt>
      <trkpt lat="44.56947" lon="1.04848">
        <ele>235</ele>
        <time>2012-10-14T07:04:00Z</time>
      </trkpt>
      <trkpt lat="44.56944" lon="1.04852">
        <ele>236</ele>
        <time>2012-10-14T07:04:05Z</time>
      </trkpt>
      <trkpt lat="44.56927" lon="1.04875">
        <ele>239</ele>
        <time>2012-10-14T07:04:11Z</time>
      </trkpt>
      <trkpt lat="44.56919" lon="1.04883">
        <ele>241</ele>
        <time>2012-10-14T07:04:18Z</time>
      </trkpt>
      <trkpt lat="44.56918" lon="1.04894">
        <ele>242</ele>
        <time>2012-10-14T07:04:21Z</time>
      </trkpt>
      <trkpt lat="44.56923" lon="1.04898">
        <ele>242</ele>
        <time>2012-10-14T07:04:27Z</time>
      </trkpt>
      <trkpt lat="44.56934" lon="1.04917">
        <ele>243</ele>
        <time>2012-10-14T07:04:34Z</time>
      </trkpt>
      <trkpt lat="44.56941" lon="1.04933">
        <ele>243</ele>
        <time>2012-10-14T07:04:36Z</time>
      </trkpt>
      <trkpt lat="44.56944" lon="1.0494">
        <ele>244</ele>
        <time>2012-10-14T07:04:41Z</time>
      </trkpt>
      <trkpt lat="44.56949" lon="1.04962">
        <ele>244</ele>
        <time>2012-10-14T07:04:47Z</time>
      </trkpt>
      <trkpt lat="44.56955" lon="1.04986">
        <ele>244</ele>
        <time>2012-10-14T07:04:54Z</time>
      </trkpt>
      <trkpt lat="44.56965" lon="1.05016">
        <ele>245</ele>
        <time>2012-10-14T07:05:00Z</time>
      </trkpt>
      <trkpt lat="44.56966" lon="1.05025">
        <ele>247</ele>
        <time>2012-10-14T07:05:03Z</time>
      </trkpt>
      <trkpt lat="44.56972" lon="1.05055">
        <ele>248</ele>
        <time>2012-10-14T07:05:07Z</time>
      </trkpt>
      <trkpt lat="44.56979" lon="1.05069">
        <ele>249</ele>
        <time>2012-10-14T07:05:09Z</time>
      </trkpt>
      <trkpt lat="44.56985" lon="1.05086">
        <ele>249</ele>
        <time>2012-10-14T07:05:14Z</time>
      </trkpt>
      <trkpt lat="44.56988" lon="1.05125">
        <ele>249</ele>
        <time>2012-10-14T07:05:16Z</time>
      </trkpt>
      <trkpt lat="44.5699" lon="1.05141">
        <ele>249</ele>
        <time>2012-10-14T07:05:21Z</time>
      </trkpt>
      <trkpt lat="44.56996" lon="1.05186">
        <ele>249</ele>
        <time>2012-10-14T07:05:27Z</time>
      </trkpt>
      <trkpt lat="44.56997" lon="1.05194">
        <ele>249</ele>
        <time>2012-10-14T07:05:33Z</time>
      </trkpt>
      <trkpt lat="44.57002" lon="1.05216">
        <ele>249</ele>
        <time>2012-10-14T07:05:40Z</time>
      </trkpt>
      <trkpt lat="44.57005" lon="1.05219">
        <ele>249</ele>
        <time>2012-10-14T07:05:43Z</time>
      </trkpt>
      <trkpt lat="44.57002" lon="1.05219">
        <ele>249</ele>
        <time>2012-10-14T07:05:50Z</time>
      </trkpt>
      <trkpt lat="44.57001" lon="1.05219">
        <ele>249</ele>
        <time>2012-10-14T07:05:56Z</time>
      </trkpt>
      <trkpt lat="44.57006" lon="1.05219">
        <ele>249</ele>
        <time>2012-10-14T07:05:58Z</time>
      </trkpt>
      <trkpt lat="44.57007" lon="1.0522">
        <ele>249</ele>
        <time>2012-10-14T07:06:05Z</time>
      </trkpt>
      <trkpt lat="44.57008" lon="1.05243">
        <ele>249</ele>
        <time>2012-10-14T07:06:11Z</time>
      </trkpt>
      <trkpt lat="44.57008" lon="1.05285">
        <ele>249</ele>
        <time>2012-10-14T07:06:13Z</time>
      </trkpt>
      <trkpt lat="44.57005" lon="1.053">
        <ele>249</ele>
        <time>2012-10-14T07:06:18Z</time>
      </trkpt>
      <trkpt lat="44.57" lon="1.05357">
        <ele>249</ele>
        <time>2012-10-14T07:06:24Z</time>
      </trkpt>
      <trkpt lat="44.57001" lon="1.05368">
        <ele>247</ele>
        <time>2012-10-14T07:06:26Z</time>
      </trkpt>
      <trkpt lat="44.57005" lon="1.05383">
        <ele>247</ele>
        <time>2012-10-14T07:06:32Z</time>
      </trkpt>
      <trkpt lat="44.57015" lon="1.05423">
        <ele>247</ele>
        <time>2012-10-14T07:06:38Z</time>
      </trkpt>
      <trkpt lat="44.57016" lon="1.05431">
        <ele>247</ele>
        <time>2012-10-14T07:06:45Z</time>
      </trkpt>
      <trkpt lat="44.57023" lon="1.05443">
        <ele>247</ele>
        <time>2012-10-14T07:06:47Z</time>
      </trkpt>
      <trkpt lat="44.57023" lon="1.05448">
        <ele>247</ele>
        <time>2012-10-14T07:06:54Z</time>
      </trkpt>
      <trkpt lat="44.57033" lon="1.05459">
        <ele>247</ele>
        <time>2012-10-14T07:07:01Z</time>
      </trkpt>
      <trkpt lat="44.57036" lon="1.05469">
        <ele>249</ele>
        <time>2012-10-14T07:07:04Z</time>
      </trkpt>
      <trkpt lat="44.57039" lon="1.05479">
        <ele>249</ele>
        <time>2012-10-14T07:07:08Z</time>
      </trkpt>
      <trkpt lat="44.57045" lon="1.05485">
        <ele>252</ele>
        <time>2012-10-14T07:07:15Z</time>
      </trkpt>
      <trkpt lat="44.57049" lon="1.05492">
        <ele>254</ele>
        <time>2012-10-14T07:07:17Z</time>
      </trkpt>
      <trkpt lat="44.57052" lon="1.05497">
        <ele>255</ele>
        <time>2012-10-14T07:07:19Z</time>
      </trkpt>
      <trkpt lat="44.57054" lon="1.055">
        <ele>255</ele>
        <time>2012-10-14T07:07:24Z</time>
      </trkpt>
      <trkpt lat="44.57066" lon="1.05515">
        <ele>255</ele>
        <time>2012-10-14T07:07:27Z</time>
      </trkpt>
      <trkpt lat="44.5707" lon="1.0552">
        <ele>255</ele>
        <time>2012-10-14T07:07:32Z</time>
      </trkpt>
      <trkpt lat="44.57081" lon="1.05532">
        <ele>256</ele>
        <time>2012-10-14T07:07:34Z</time>
      </trkpt>
      <trkpt lat="44.57083" lon="1.05536">
        <ele>257</ele>
        <time>2012-10-14T07:07:39Z</time>
      </trkpt>
      <trkpt lat="44.57094" lon="1.05555">
        <ele>258</ele>
        <time>2012-10-14T07:07:45Z</time>
      </trkpt>
      <trkpt lat="44.57098" lon="1.0556">
        <ele>258</ele>
        <time>2012-10-14T07:07:48Z</time>
      </trkpt>
      <trkpt lat="44.571" lon="1.05564">
        <ele>258</ele>
        <time>2012-10-14T07:07:54Z</time>
      </trkpt>
      <trkpt lat="44.57114" lon="1.05603">
        <ele>259</ele>
        <time>2012-10-14T07:08:00Z</time>
      </trkpt>
      <trkpt lat="44.57117" lon="1.05614">
        <ele>260</ele>
        <time>2012-10-14T07:08:02Z</time>
      </trkpt>
      <trkpt lat="44.57121" lon="1.05624">
        <ele>260</ele>
        <time>2012-10-14T07:08:08Z</time>
      </trkpt>
      <trkpt lat="44.57132" lon="1.05655">
        <ele>261</ele>
        <time>2012-10-14T07:08:14Z</time>
      </trkpt>
      <trkpt lat="44.57138" lon="1.05677">
        <ele>261</ele>
        <time>2012-10-14T07:08:16Z</time>
      </trkpt>
      <trkpt lat="44.57145" lon="1.05688">
        <ele>261</ele>
        <time>2012-10-14T07:08:22Z</time>
      </trkpt>
      <trkpt lat="44.5715" lon="1.05709">
        <ele>261</ele>
        <time>2012-10-14T07:08:24Z</time>
      </trkpt>
      <trkpt lat="44.57152" lon="1.05718">
        <ele>261</ele>
        <time>2012-10-14T07:08:30Z</time>
      </trkpt>
      <trkpt lat="44.5715" lon="1.05725">
        <ele>261</ele>
        <time>2012-10-14T07:08:33Z</time>
      </trkpt>
      <trkpt lat="44.57151" lon="1.05728">
        <ele>262</ele>
        <time>2012-10-14T07:08:39Z</time>
      </trkpt>
      <trkpt lat="44.57156" lon="1.05741">
        <ele>264</ele>
        <time>2012-10-14T07:08:41Z</time>
      </trkpt>
      <trkpt lat="44.57164" lon="1.05755">
        <ele>265</ele>
        <time>2012-10-14T07:08:47Z</time>
      </trkpt>
      <trkpt lat="44.57177" lon="1.05783">
        <ele>265</ele>
        <time>2012-10-14T07:08:53Z</time>
      </trkpt>
      <trkpt lat="44.57189" lon="1.05803">
        <ele>265</ele>
        <time>2012-10-14T07:08:55Z</time>
      </trkpt>
      <trkpt lat="44.57191" lon="1.05811">
        <ele>265</ele>
        <time>2012-10-14T07:09:00Z</time>
      </trkpt>
      <trkpt lat="44.57203" lon="1.05836">
        <ele>265</ele>
        <time>2012-10-14T07:09:06Z</time>
      </trkpt>
      <trkpt lat="44.57217" lon="1.05864">
        <ele>263</ele>
        <time>2012-10-14T07:09:13Z</time>
      </trkpt>
      <trkpt lat="44.57232" lon="1.05886">
        <ele>263</ele>
        <time>2012-10-14T07:09:19Z</time>
      </trkpt>
      <trkpt lat="44.57248" lon="1.05909">
        <ele>263</ele>
        <time>2012-10-14T07:09:26Z</time>
      </trkpt>
      <trkpt lat="44.57255" lon="1.05919">
        <ele>263</ele>
        <time>2012-10-14T07:09:28Z</time>
      </trkpt>
      <trkpt lat="44.57257" lon="1.05923">
        <ele>263</ele>
        <time>2012-10-14T07:09:33Z</time>
      </trkpt>
      <trkpt lat="44.57267" lon="1.05936">
        <ele>263</ele>
        <time>2012-10-14T07:09:35Z</time>
      </trkpt>
      <trkpt lat="44.57273" lon="1.05943">
        <ele>263</ele>
        <time>2012-10-14T07:09:40Z</time>
      </trkpt>
      <trkpt lat="44.57281" lon="1.05958">
        <ele>263</ele>
        <time>2012-10-14T07:09:46Z</time>
      </trkpt>
      <trkpt lat="44.57294" lon="1.05977">
        <ele>263</ele>
        <time>2012-10-14T07:09:53Z</time>
      </trkpt>
      <trkpt lat="44.57307" lon="1.05986">
        <ele>263</ele>
        <time>2012-10-14T07:09:55Z</time>
      </trkpt>
      <trkpt lat="44.57312" lon="1.0599">
        <ele>263</ele>
        <time>2012-10-14T07:10:00Z</time>
      </trkpt>
      <trkpt lat="44.57322" lon="1.06003">
        <ele>264</ele>
        <time>2012-10-14T07:10:07Z</time>
      </trkpt>
      <trkpt lat="44.57329" lon="1.06015">
        <ele>264</ele>
        <time>2012-10-14T07:10:09Z</time>
      </trkpt>
      <trkpt lat="44.5733" lon="1.06019">
        <ele>264</ele>
        <time>2012-10-14T07:10:13Z</time>
      </trkpt>
      <trkpt lat="44.57338" lon="1.06033">
        <ele>264</ele>
        <time>2012-10-14T07:10:16Z</time>
      </trkpt>
      <trkpt lat="44.57343" lon="1.0604">
        <ele>264</ele>
        <time>2012-10-14T07:10:21Z</time>
      </trkpt>
      <trkpt lat="44.57357" lon="1.06059">
        <ele>264</ele>
        <time>2012-10-14T07:10:24Z</time>
      </trkpt>
      <trkpt lat="44.5736" lon="1.06066">
        <ele>264</ele>
        <time>2012-10-14T07:10:29Z</time>
      </trkpt>
      <trkpt lat="44.57366" lon="1.06088">
        <ele>264</ele>
        <time>2012-10-14T07:10:35Z</time>
      </trkpt>
      <trkpt lat="44.57378" lon="1.06126">
        <ele>264</ele>
        <time>2012-10-14T07:10:43Z</time>
      </trkpt>
      <trkpt lat="44.57386" lon="1.06146">
        <ele>263</ele>
        <time>2012-10-14T07:10:49Z</time>
      </trkpt>
      <trkpt lat="44.57399" lon="1.06176">
        <ele>262</ele>
        <time>2012-10-14T07:10:52Z</time>
      </trkpt>
      <trkpt lat="44.57404" lon="1.06184">
        <ele>262</ele>
        <time>2012-10-14T07:10:57Z</time>
      </trkpt>
      <trkpt lat="44.57412" lon="1.06202">
        <ele>262</ele>
        <time>2012-10-14T07:10:59Z</time>
      </trkpt>
      <trkpt lat="44.57413" lon="1.06206">
        <ele>261</ele>
        <time>2012-10-14T07:11:05Z</time>
      </trkpt>
      <trkpt lat="44.57422" lon="1.06221">
        <ele>261</ele>
        <time>2012-10-14T07:11:08Z</time>
      </trkpt>
      <trkpt lat="44.57426" lon="1.0623">
        <ele>261</ele>
        <time>2012-10-14T07:11:12Z</time>
      </trkpt>
      <trkpt lat="44.57446" lon="1.06265">
        <ele>260</ele>
        <time>2012-10-14T07:11:19Z</time>
      </trkpt>
      <trkpt lat="44.57455" lon="1.06288">
        <ele>258</ele>
        <time>2012-10-14T07:11:21Z</time>
      </trkpt>
      <trkpt lat="44.57458" lon="1.06297">
        <ele>258</ele>
        <time>2012-10-14T07:11:26Z</time>
      </trkpt>
      <trkpt lat="44.5747" lon="1.06323">
        <ele>258</ele>
        <time>2012-10-14T07:11:32Z</time>
      </trkpt>
      <trkpt lat="44.57473" lon="1.06359">
        <ele>258</ele>
        <time>2012-10-14T07:11:35Z</time>
      </trkpt>
      <trkpt lat="44.57479" lon="1.06393">
        <ele>258</ele>
        <time>2012-10-14T07:11:40Z</time>
      </trkpt>
      <trkpt lat="44.57485" lon="1.06415">
        <ele>257</ele>
        <time>2012-10-14T07:11:47Z</time>
      </trkpt>
      <trkpt lat="44.57495" lon="1.06441">
        <ele>254</ele>
        <time>2012-10-14T07:11:50Z</time>
      </trkpt>
      <trkpt lat="44.57499" lon="1.06452">
        <ele>252</ele>
        <time>2012-10-14T07:11:56Z</time>
      </trkpt>
      <trkpt lat="44.57509" lon="1.06474">
        <ele>252</ele>
        <time>2012-10-14T07:11:59Z</time>
      </trkpt>
      <trkpt lat="44.57518" lon="1.06494">
        <ele>252</ele>
        <time>2012-10-14T07:12:04Z</time>
      </trkpt>
      <trkpt lat="44.57522" lon="1.06503">
        <ele>253</ele>
        <time>2012-10-14T07:12:06Z</time>
      </trkpt>
      <trkpt lat="44.57521" lon="1.06513">
        <ele>254</ele>
        <time>2012-10-14T07:12:11Z</time>
      </trkpt>
      <trkpt lat="44.57528" lon="1.06536">
        <ele>255</ele>
        <time>2012-10-14T07:12:13Z</time>
      </trkpt>
      <trkpt lat="44.57529" lon="1.06546">
        <ele>255</ele>
        <time>2012-10-14T07:12:18Z</time>
      </trkpt>
      <trkpt lat="44.57532" lon="1.06574">
        <ele>253</ele>
        <time>2012-10-14T07:12:25Z</time>
      </trkpt>
      <trkpt lat="44.57536" lon="1.06624">
        <ele>250</ele>
        <time>2012-10-14T07:12:31Z</time>
      </trkpt>
      <trkpt lat="44.57539" lon="1.06636">
        <ele>250</ele>
        <time>2012-10-14T07:12:33Z</time>
      </trkpt>
      <trkpt lat="44.57541" lon="1.06648">
        <ele>250</ele>
        <time>2012-10-14T07:12:38Z</time>
      </trkpt>
      <trkpt lat="44.57547" lon="1.06685">
        <ele>250</ele>
        <time>2012-10-14T07:12:45Z</time>
      </trkpt>
      <trkpt lat="44.57564" lon="1.06744">
        <ele>247</ele>
        <time>2012-10-14T07:12:51Z</time>
      </trkpt>
      <trkpt lat="44.5757" lon="1.06765">
        <ele>246</ele>
        <time>2012-10-14T07:12:58Z</time>
      </trkpt>
      <trkpt lat="44.57582" lon="1.06815">
        <ele>246</ele>
        <time>2012-10-14T07:13:04Z</time>
      </trkpt>
      <trkpt lat="44.57599" lon="1.06853">
        <ele>246</ele>
        <time>2012-10-14T07:13:11Z</time>
      </trkpt>
      <trkpt lat="44.57595" lon="1.06855">
        <ele>249</ele>
        <time>2012-10-14T07:13:13Z</time>
      </trkpt>
      <trkpt lat="44.57595" lon="1.06858">
        <ele>249</ele>
        <time>2012-10-14T07:13:21Z</time>
      </trkpt>
      <trkpt lat="44.57597" lon="1.06861">
        <ele>252</ele>
        <time>2012-10-14T07:13:29Z</time>
      </trkpt>
      <trkpt lat="44.57598" lon="1.06862">
        <ele>252</ele>
        <time>2012-10-14T07:13:31Z</time>
      </trkpt>
      <trkpt lat="44.57597" lon="1.06864">
        <ele>253</ele>
        <time>2012-10-14T07:13:37Z</time>
      </trkpt>
      <trkpt lat="44.57602" lon="1.06861">
        <ele>257</ele>
        <time>2012-10-14T07:13:45Z</time>
      </trkpt>
      <trkpt lat="44.57599" lon="1.06856">
        <ele>260</ele>
        <time>2012-10-14T07:13:47Z</time>
      </trkpt>
      <trkpt lat="44.57598" lon="1.06858">
        <ele>262</ele>
        <time>2012-10-14T07:13:54Z</time>
      </trkpt>
      <trkpt lat="44.57597" lon="1.06858">
        <ele>262</ele>
        <time>2012-10-14T07:13:57Z</time>
      </trkpt>
      <trkpt lat="44.57594" lon="1.06859">
        <ele>262</ele>
        <time>2012-10-14T07:14:03Z</time>
      </trkpt>
      <trkpt lat="44.57595" lon="1.0686">
        <ele>262</ele>
        <time>2012-10-14T07:14:06Z</time>
      </trkpt>
      <trkpt lat="44.57594" lon="1.06862">
        <ele>263</ele>
        <time>2012-10-14T07:14:11Z</time>
      </trkpt>
      <trkpt lat="44.57593" lon="1.0686">
        <ele>263</ele>
        <time>2012-10-14T07:14:20Z</time>
      </trkpt>
      <trkpt lat="44.57593" lon="1.06858">
        <ele>264</ele>
        <time>2012-10-14T07:14:29Z</time>
      </trkpt>
      <trkpt lat="44.57597" lon="1.06858">
        <ele>265</ele>
        <time>2012-10-14T07:14:32Z</time>
      </trkpt>
      <trkpt lat="44.57597" lon="1.06861">
        <ele>265</ele>
        <time>2012-10-14T07:14:39Z</time>
      </trkpt>
      <trkpt lat="44.57599" lon="1.06862">
        <ele>265</ele>
        <time>2012-10-14T07:14:45Z</time>
      </trkpt>
      <trkpt lat="44.57601" lon="1.06871">
        <ele>265</ele>
        <time>2012-10-14T07:14:47Z</time>
      </trkpt>
      <trkpt lat="44.57605" lon="1.06882">
        <ele>264</ele>
        <time>2012-10-14T07:14:55Z</time>
      </trkpt>
      <trkpt lat="44.5762" lon="1.06909">
        <ele>261</ele>
        <time>2012-10-14T07:15:01Z</time>
      </trkpt>
      <trkpt lat="44.57644" lon="1.06949">
        <ele>255</ele>
        <time>2012-10-14T07:15:07Z</time>
      </trkpt>
      <trkpt lat="44.57652" lon="1.06959">
        <ele>252</ele>
        <time>2012-10-14T07:15:14Z</time>
      </trkpt>
      <trkpt lat="44.57667" lon="1.06981">
        <ele>249</ele>
        <time>2012-10-14T07:15:20Z</time>
      </trkpt>
      <trkpt lat="44.57683" lon="1.06999">
        <ele>248</ele>
        <time>2012-10-14T07:15:23Z</time>
      </trkpt>
      <trkpt lat="44.577" lon="1.0702">
        <ele>248</ele>
        <time>2012-10-14T07:15:28Z</time>
      </trkpt>
      <trkpt lat="44.57708" lon="1.07028">
        <ele>248</ele>
        <time>2012-10-14T07:15:30Z</time>
      </trkpt>
      <trkpt lat="44.57715" lon="1.07036">
        <ele>248</ele>
        <time>2012-10-14T07:15:35Z</time>
      </trkpt>
      <trkpt lat="44.57735" lon="1.07068">
        <ele>250</ele>
        <time>2012-10-14T07:15:42Z</time>
      </trkpt>
      <trkpt lat="44.57762" lon="1.07107">
        <ele>250</ele>
        <time>2012-10-14T07:15:48Z</time>
      </trkpt>
      <trkpt lat="44.57791" lon="1.07144">
        <ele>250</ele>
        <time>2012-10-14T07:15:55Z</time>
      </trkpt>
      <trkpt lat="44.57815" lon="1.0717">
        <ele>250</ele>
        <time>2012-10-14T07:16:02Z</time>
      </trkpt>
      <trkpt lat="44.57846" lon="1.07184">
        <ele>250</ele>
        <time>2012-10-14T07:16:08Z</time>
      </trkpt>
      <trkpt lat="44.57872" lon="1.07194">
        <ele>250</ele>
        <time>2012-10-14T07:16:15Z</time>
      </trkpt>
      <trkpt lat="44.57883" lon="1.07194">
        <ele>253</ele>
        <time>2012-10-14T07:16:17Z</time>
      </trkpt>
      <trkpt lat="44.57894" lon="1.07193">
        <ele>254</ele>
        <time>2012-10-14T07:16:22Z</time>
      </trkpt>
      <trkpt lat="44.57896" lon="1.07192">
        <ele>256</ele>
        <time>2012-10-14T07:16:24Z</time>
      </trkpt>
      <trkpt lat="44.57898" lon="1.07192">
        <ele>257</ele>
        <time>2012-10-14T07:16:29Z</time>
      </trkpt>
      <trkpt lat="44.57922" lon="1.07181">
        <ele>260</ele>
        <time>2012-10-14T07:16:36Z</time>
      </trkpt>
      <trkpt lat="44.57949" lon="1.0718">
        <ele>263</ele>
        <time>2012-10-14T07:16:38Z</time>
      </trkpt>
      <trkpt lat="44.57958" lon="1.07181">
        <ele>264</ele>
        <time>2012-10-14T07:16:44Z</time>
      </trkpt>
      <trkpt lat="44.57996" lon="1.07185">
        <ele>265</ele>
        <time>2012-10-14T07:16:50Z</time>
      </trkpt>
      <trkpt lat="44.58041" lon="1.07192">
        <ele>265</ele>
        <time>2012-10-14T07:16:57Z</time>
      </trkpt>
      <trkpt lat="44.58049" lon="1.07192">
        <ele>265</ele>
        <time>2012-10-14T07:17:00Z</time>
      </trkpt>
      <trkpt lat="44.58073" lon="1.07196">
        <ele>263</ele>
        <time>2012-10-14T07:17:05Z</time>
      </trkpt>
      <trkpt lat="44.58085" lon="1.07197">
        <ele>263</ele>
        <time>2012-10-14T07:17:10Z</time>
      </trkpt>
      <trkpt lat="44.58102" lon="1.072">
        <ele>263</ele>
        <time>2012-10-14T07:17:13Z</time>
      </trkpt>
      <trkpt lat="44.58121" lon="1.07204">
        <ele>263</ele>
        <time>2012-10-14T07:17:18Z</time>
      </trkpt>
      <trkpt lat="44.58167" lon="1.07199">
        <ele>263</ele>
        <time>2012-10-14T07:17:24Z</time>
      </trkpt>
      <trkpt lat="44.58193" lon="1.07194">
        <ele>263</ele>
        <time>2012-10-14T07:17:31Z</time>
      </trkpt>
      <trkpt lat="44.58207" lon="1.07192">
        <ele>263</ele>
        <time>2012-10-14T07:17:38Z</time>
      </trkpt>
      <trkpt lat="44.58263" lon="1.07158">
        <ele>261</ele>
        <time>2012-10-14T07:17:40Z</time>
      </trkpt>
      <trkpt lat="44.58314" lon="1.0711">
        <ele>260</ele>
        <time>2012-10-14T07:17:45Z</time>
      </trkpt>
      <trkpt lat="44.58329" lon="1.07086">
        <ele>258</ele>
        <time>2012-10-14T07:17:47Z</time>
      </trkpt>
      <trkpt lat="44.58341" lon="1.07064">
        <ele>257</ele>
        <time>2012-10-14T07:17:52Z</time>
      </trkpt>
      <trkpt lat="44.58381" lon="1.06992">
        <ele>254</ele>
        <time>2012-10-14T07:17:59Z</time>
      </trkpt>
      <trkpt lat="44.58384" lon="1.06985">
        <ele>252</ele>
        <time>2012-10-14T07:18:06Z</time>
      </trkpt>
      <trkpt lat="44.58374" lon="1.06999">
        <ele>249</ele>
        <time>2012-10-14T07:18:08Z</time>
      </trkpt>
      <trkpt lat="44.5837" lon="1.07008">
        <ele>248</ele>
        <time>2012-10-14T07:18:15Z</time>
      </trkpt>
      <trkpt lat="44.5835" lon="1.07045">
        <ele>246</ele>
        <time>2012-10-14T07:18:21Z</time>
      </trkpt>
      <trkpt lat="44.58331" lon="1.07084">
        <ele>245</ele>
        <time>2012-10-14T07:18:27Z</time>
      </trkpt>
      <trkpt lat="44.58308" lon="1.07119">
        <ele>245</ele>
        <time>2012-10-14T07:18:34Z</time>
      </trkpt>
      <trkpt lat="44.5828" lon="1.07157">
        <ele>245</ele>
        <time>2012-10-14T07:18:41Z</time>
      </trkpt>
      <trkpt lat="44.58275" lon="1.07161">
        <ele>246</ele>
        <time>2012-10-14T07:18:43Z</time>
      </trkpt>
      <trkpt lat="44.58263" lon="1.07168">
        <ele>247</ele>
        <time>2012-10-14T07:18:48Z</time>
      </trkpt>
      <trkpt lat="44.58258" lon="1.07169">
        <ele>249</ele>
        <time>2012-10-14T07:18:55Z</time>
      </trkpt>
      <trkpt lat="44.58248" lon="1.07176">
        <ele>253</ele>
        <time>2012-10-14T07:18:59Z</time>
      </trkpt>
      <trkpt lat="44.58245" lon="1.07176">
        <ele>253</ele>
        <time>2012-10-14T07:19:04Z</time>
      </trkpt>
      <trkpt lat="44.58231" lon="1.07188">
        <ele>253</ele>
        <time>2012-10-14T07:19:08Z</time>
      </trkpt>
      <trkpt lat="44.58226" lon="1.07192">
        <ele>253</ele>
        <time>2012-10-14T07:19:13Z</time>
      </trkpt>
      <trkpt lat="44.58209" lon="1.07201">
        <ele>256</ele>
        <time>2012-10-14T07:19:15Z</time>
      </trkpt>
      <trkpt lat="44.58192" lon="1.07203">
        <ele>257</ele>
        <time>2012-10-14T07:19:20Z</time>
      </trkpt>
      <trkpt lat="44.58181" lon="1.07205">
        <ele>259</ele>
        <time>2012-10-14T07:19:27Z</time>
      </trkpt>
      <trkpt lat="44.58177" lon="1.07206">
        <ele>259</ele>
        <time>2012-10-14T07:19:31Z</time>
      </trkpt>
      <trkpt lat="44.58177" lon="1.07204">
        <ele>259</ele>
        <time>2012-10-14T07:19:39Z</time>
      </trkpt>
      <trkpt lat="44.58179" lon="1.07203">
        <ele>261</ele>
        <time>2012-10-14T07:19:41Z</time>
      </trkpt>
      <trkpt lat="44.58183" lon="1.07203">
        <ele>263</ele>
        <time>2012-10-14T07:19:48Z</time>
      </trkpt>
      <trkpt lat="44.58185" lon="1.07203">
        <ele>266</ele>
        <time>2012-10-14T07:19:51Z</time>
      </trkpt>
      <trkpt lat="44.58188" lon="1.07204">
        <ele>268</ele>
        <time>2012-10-14T07:19:57Z</time>
      </trkpt>
      <trkpt lat="44.58186" lon="1.07204">
        <ele>273</ele>
        <time>2012-10-14T07:20:06Z</time>
      </trkpt>
      <trkpt lat="44.58187" lon="1.0721">
        <ele>275</ele>
        <time>2012-10-14T07:20:09Z</time>
      </trkpt>
      <trkpt lat="44.58189" lon="1.07214">
        <ele>276</ele>
        <time>2012-10-14T07:20:14Z</time>
      </trkpt>
      <trkpt lat="44.58202" lon="1.07221">
        <ele>276</ele>
        <time>2012-10-14T07:20:17Z</time>
      </trkpt>
      <trkpt lat="44.58211" lon="1.07225">
        <ele>275</ele>
        <time>2012-10-14T07:20:23Z</time>
      </trkpt>
      <trkpt lat="44.58247" lon="1.07229">
        <ele>269</ele>
        <time>2012-10-14T07:20:25Z</time>
      </trkpt>
      <trkpt lat="44.58256" lon="1.07228">
        <ele>267</ele>
        <time>2012-10-14T07:20:30Z</time>
      </trkpt>
      <trkpt lat="44.58286" lon="1.07236">
        <ele>261</ele>
        <time>2012-10-14T07:20:33Z</time>
      </trkpt>
      <trkpt lat="44.58297" lon="1.07244">
        <ele>259</ele>
        <time>2012-10-14T07:20:38Z</time>
      </trkpt>
      <trkpt lat="44.58313" lon="1.07267">
        <ele>256</ele>
        <time>2012-10-14T07:20:40Z</time>
      </trkpt>
      <trkpt lat="44.58323" lon="1.07279">
        <ele>254</ele>
        <time>2012-10-14T07:20:47Z</time>
      </trkpt>
      <trkpt lat="44.5833" lon="1.07292">
        <ele>254</ele>
        <time>2012-10-14T07:20:49Z</time>
      </trkpt>
      <trkpt lat="44.58334" lon="1.07299">
        <ele>254</ele>
        <time>2012-10-14T07:20:55Z</time>
      </trkpt>
      <trkpt lat="44.58346" lon="1.0732">
        <ele>252</ele>
        <time>2012-10-14T07:21:02Z</time>
      </trkpt>
      <trkpt lat="44.58353" lon="1.07337">
        <ele>249</ele>
        <time>2012-10-14T07:21:05Z</time>
      </trkpt>
      <trkpt lat="44.58356" lon="1.07338">
        <ele>248</ele>
        <time>2012-10-14T07:21:11Z</time>
      </trkpt>
      <trkpt lat="44.58358" lon="1.07341">
        <ele>248</ele>
        <time>2012-10-14T07:21:19Z</time>
      </trkpt>
      <trkpt lat="44.58363" lon="1.07344">
        <ele>248</ele>
        <time>2012-10-14T07:21:22Z</time>
      </trkpt>
      <trkpt lat="44.58363" lon="1.07347">
        <ele>248</ele>
        <time>2012-10-14T07:21:27Z</time>
      </trkpt>
      <trkpt lat="44.58363" lon="1.07357">
        <ele>249</ele>
        <time>2012-10-14T07:21:34Z</time>
      </trkpt>
      <trkpt lat="44.58361" lon="1.07358">
        <ele>249</ele>
        <time>2012-10-14T07:21:40Z</time>
      </trkpt>
      <trkpt lat="44.5836" lon="1.07364">
        <ele>249</ele>
        <time>2012-10-14T07:21:46Z</time>
      </trkpt>
      <trkpt lat="44.58359" lon="1.07366">
        <ele>251</ele>
        <time>2012-10-14T07:21:48Z</time>
      </trkpt>
      <trkpt lat="44.58354" lon="1.07371">
        <ele>253</ele>
        <time>2012-10-14T07:21:55Z</time>
      </trkpt>
      <trkpt lat="44.58353" lon="1.07373">
        <ele>255</ele>
        <time>2012-10-14T07:21:57Z</time>
      </trkpt>
      <trkpt lat="44.58355" lon="1.07378">
        <ele>256</ele>
        <time>2012-10-14T07:22:04Z</time>
      </trkpt>
      <trkpt lat="44.58358" lon="1.07384">
        <ele>256</ele>
        <time>2012-10-14T07:22:06Z</time>
      </trkpt>
      <trkpt lat="44.58362" lon="1.07391">
        <ele>256</ele>
        <time>2012-10-14T07:22:11Z</time>
      </trkpt>
      <trkpt lat="44.58374" lon="1.07422">
        <ele>252</ele>
        <time>2012-10-14T07:22:18Z</time>
      </trkpt>
      <trkpt lat="44.58387" lon="1.07453">
        <ele>246</ele>
        <time>2012-10-14T07:22:25Z</time>
      </trkpt>
      <trkpt lat="44.58395" lon="1.07473">
        <ele>240</ele>
        <time>2012-10-14T07:22:28Z</time>
      </trkpt>
      <trkpt lat="44.584" lon="1.0748">
        <ele>238</ele>
        <time>2012-10-14T07:22:33Z</time>
      </trkpt>
      <trkpt lat="44.58419" lon="1.07511">
        <ele>233</ele>
        <time>2012-10-14T07:22:40Z</time>
      </trkpt>
      <trkpt lat="44.58438" lon="1.07551">
        <ele>230</ele>
        <time>2012-10-14T07:22:47Z</time>
      </trkpt>
      <trkpt lat="44.58458" lon="1.07591">
        <ele>229</ele>
        <time>2012-10-14T07:22:54Z</time>
      </trkpt>
      <trkpt lat="44.58466" lon="1.07614">
        <ele>229</ele>
        <time>2012-10-14T07:23:01Z</time>
      </trkpt>
      <trkpt lat="44.58474" lon="1.07634">
        <ele>227</ele>
        <time>2012-10-14T07:23:04Z</time>
      </trkpt>
      <trkpt lat="44.58476" lon="1.07641">
        <ele>226</ele>
        <time>2012-10-14T07:23:10Z</time>
      </trkpt>
      <trkpt lat="44.58481" lon="1.07657">
        <ele>224</ele>
        <time>2012-10-14T07:23:12Z</time>
      </trkpt>
      <trkpt lat="44.58485" lon="1.07659">
        <ele>223</ele>
        <time>2012-10-14T07:23:18Z</time>
      </trkpt>
      <trkpt lat="44.58495" lon="1.0766">
        <ele>220</ele>
        <time>2012-10-14T07:23:20Z</time>
      </trkpt>
      <trkpt lat="44.58501" lon="1.07655">
        <ele>218</ele>
        <time>2012-10-14T07:23:27Z</time>
      </trkpt>
      <trkpt lat="44.58519" lon="1.07657">
        <ele>216</ele>
        <time>2012-10-14T07:23:30Z</time>
      </trkpt>
      <trkpt lat="44.58522" lon="1.07657">
        <ele>215</ele>
        <time>2012-10-14T07:23:35Z</time>
      </trkpt>
      <trkpt lat="44.58531" lon="1.07653">
        <ele>214</ele>
        <time>2012-10-14T07:23:37Z</time>
      </trkpt>
      <trkpt lat="44.58536" lon="1.07649">
        <ele>212</ele>
        <time>2012-10-14T07:23:43Z</time>
      </trkpt>
      <trkpt lat="44.58558" lon="1.07645">
        <ele>209</ele>
        <time>2012-10-14T07:23:46Z</time>
      </trkpt>
      <trkpt lat="44.58564" lon="1.07651">
        <ele>208</ele>
        <time>2012-10-14T07:23:52Z</time>
      </trkpt>
      <trkpt lat="44.58584" lon="1.07658">
        <ele>206</ele>
        <time>2012-10-14T07:23:54Z</time>
      </trkpt>
      <trkpt lat="44.58593" lon="1.07656">
        <ele>204</ele>
        <time>2012-10-14T07:24:01Z</time>
      </trkpt>
      <trkpt lat="44.58616" lon="1.0765">
        <ele>201</ele>
        <time>2012-10-14T07:24:07Z</time>
      </trkpt>
      <trkpt lat="44.5864" lon="1.07647">
        <ele>198</ele>
        <time>2012-10-14T07:24:14Z</time>
      </trkpt>
      <trkpt lat="44.58644" lon="1.07641">
        <ele>194</ele>
        <time>2012-10-14T07:24:21Z</time>
      </trkpt>
      <trkpt lat="44.58651" lon="1.07644">
        <ele>192</ele>
        <time>2012-10-14T07:24:23Z</time>
      </trkpt>
      <trkpt lat="44.58652" lon="1.07654">
        <ele>190</ele>
        <time>2012-10-14T07:24:30Z</time>
      </trkpt>
      <trkpt lat="44.58651" lon="1.07684">
        <ele>187</ele>
        <time>2012-10-14T07:24:33Z</time>
      </trkpt>
      <trkpt lat="44.58654" lon="1.077">
        <ele>186</ele>
        <time>2012-10-14T07:24:39Z</time>
      </trkpt>
      <trkpt lat="44.58671" lon="1.07775">
        <ele>184</ele>
        <time>2012-10-14T07:24:46Z</time>
      </trkpt>
      <trkpt lat="44.58671" lon="1.07819">
        <ele>185</ele>
        <time>2012-10-14T07:24:53Z</time>
      </trkpt>
      <trkpt lat="44.58672" lon="1.07794">
        <ele>188</ele>
        <time>2012-10-14T07:24:55Z</time>
      </trkpt>
      <trkpt lat="44.58673" lon="1.07787">
        <ele>189</ele>
        <time>2012-10-14T07:25:01Z</time>
      </trkpt>
      <trkpt lat="44.58661" lon="1.07758">
        <ele>192</ele>
        <time>2012-10-14T07:25:03Z</time>
      </trkpt>
      <trkpt lat="44.58659" lon="1.0775">
        <ele>192</ele>
        <time>2012-10-14T07:25:08Z</time>
      </trkpt>
      <trkpt lat="44.5866" lon="1.07722">
        <ele>192</ele>
        <time>2012-10-14T07:25:11Z</time>
      </trkpt>
      <trkpt lat="44.58663" lon="1.07707">
        <ele>193</ele>
        <time>2012-10-14T07:25:17Z</time>
      </trkpt>
      <trkpt lat="44.58662" lon="1.07669">
        <ele>199</ele>
        <time>2012-10-14T07:25:23Z</time>
      </trkpt>
      <trkpt lat="44.5867" lon="1.07661">
        <ele>209</ele>
        <time>2012-10-14T07:25:32Z</time>
      </trkpt>
      <trkpt lat="44.58669" lon="1.07667">
        <ele>213</ele>
        <time>2012-10-14T07:25:41Z</time>
      </trkpt>
      <trkpt lat="44.58667" lon="1.07672">
        <ele>214</ele>
        <time>2012-10-14T07:25:43Z</time>
      </trkpt>
      <trkpt lat="44.58668" lon="1.07678">
        <ele>214</ele>
        <time>2012-10-14T07:25:49Z</time>
      </trkpt>
      <trkpt lat="44.58668" lon="1.07707">
        <ele>212</ele>
        <time>2012-10-14T07:25:51Z</time>
      </trkpt>
      <trkpt lat="44.58667" lon="1.07716">
        <ele>211</ele>
        <time>2012-10-14T07:25:56Z</time>
      </trkpt>
      <trkpt lat="44.5867" lon="1.0774">
        <ele>205</ele>
        <time>2012-10-14T07:26:03Z</time>
      </trkpt>
      <trkpt lat="44.58668" lon="1.07769">
        <ele>201</ele>
        <time>2012-10-14T07:26:06Z</time>
      </trkpt>
      <trkpt lat="44.5867" lon="1.07783">
        <ele>197</ele>
        <time>2012-10-14T07:26:12Z</time>
      </trkpt>
      <trkpt lat="44.58669" lon="1.07814">
        <ele>190</ele>
        <time>2012-10-14T07:26:19Z</time>
      </trkpt>
      <trkpt lat="44.58683" lon="1.07834">
        <ele>183</ele>
        <time>2012-10-14T07:26:21Z</time>
      </trkpt>
      <trkpt lat="44.58689" lon="1.07839">
        <ele>181</ele>
        <time>2012-10-14T07:26:26Z</time>
      </trkpt>
      <trkpt lat="44.58714" lon="1.07838">
        <ele>179</ele>
        <time>2012-10-14T07:26:29Z</time>
      </trkpt>
      <trkpt lat="44.58722" lon="1.07837">
        <ele>179</ele>
        <time>2012-10-14T07:26:34Z</time>
      </trkpt>
      <trkpt lat="44.58735" lon="1.07831">
        <ele>180</ele>
        <time>2012-10-14T07:26:36Z</time>
      </trkpt>
      <trkpt lat="44.58742" lon="1.07825">
        <ele>182</ele>
        <time>2012-10-14T07:26:42Z</time>
      </trkpt>
      <trkpt lat="44.58756" lon="1.07816">
        <ele>184</ele>
        <time>2012-10-14T07:26:49Z</time>
      </trkpt>
      <trkpt lat="44.58767" lon="1.07813">
        <ele>187</ele>
        <time>2012-10-14T07:26:52Z</time>
      </trkpt>
      <trkpt lat="44.58769" lon="1.07814">
        <ele>187</ele>
        <time>2012-10-14T07:26:57Z</time>
      </trkpt>
      <trkpt lat="44.58779" lon="1.0781">
        <ele>190</ele>
        <time>2012-10-14T07:27:00Z</time>
      </trkpt>
      <trkpt lat="44.58783" lon="1.07807">
        <ele>191</ele>
        <time>2012-10-14T07:27:05Z</time>
      </trkpt>
      <trkpt lat="44.58791" lon="1.07802">
        <ele>194</ele>
        <time>2012-10-14T07:27:12Z</time>
      </trkpt>
      <trkpt lat="44.58797" lon="1.07794">
        <ele>196</ele>
        <time>2012-10-14T07:27:14Z</time>
      </trkpt>
      <trkpt lat="44.58802" lon="1.07791">
        <ele>197</ele>
        <time>2012-10-14T07:27:20Z</time>
      </trkpt>
      <trkpt lat="44.58809" lon="1.07785">
        <ele>201</ele>
        <time>2012-10-14T07:27:29Z</time>
      </trkpt>
      <trkpt lat="44.58817" lon="1.07781">
        <ele>203</ele>
        <time>2012-10-14T07:27:31Z</time>
      </trkpt>
      <trkpt lat="44.58818" lon="1.07781">
        <ele>204</ele>
        <time>2012-10-14T07:27:37Z</time>
      </trkpt>
      <trkpt lat="44.58827" lon="1.0778">
        <ele>206</ele>
        <time>2012-10-14T07:27:44Z</time>
      </trkpt>
      <trkpt lat="44.58836" lon="1.07778">
        <ele>208</ele>
        <time>2012-10-14T07:27:46Z</time>
      </trkpt>
      <trkpt lat="44.58843" lon="1.07773">
        <ele>210</ele>
        <time>2012-10-14T07:27:52Z</time>
      </trkpt>
      <trkpt lat="44.58848" lon="1.07771">
        <ele>213</ele>
        <time>2012-10-14T07:27:58Z</time>
      </trkpt>
      <trkpt lat="44.58855" lon="1.07767">
        <ele>216</ele>
        <time>2012-10-14T07:28:01Z</time>
      </trkpt>
      <trkpt lat="44.58859" lon="1.07766">
        <ele>218</ele>
        <time>2012-10-14T07:28:08Z</time>
      </trkpt>
      <trkpt lat="44.58864" lon="1.07765">
        <ele>222</ele>
        <time>2012-10-14T07:28:17Z</time>
      </trkpt>
      <trkpt lat="44.58878" lon="1.07759">
        <ele>225</ele>
        <time>2012-10-14T07:28:19Z</time>
      </trkpt>
      <trkpt lat="44.58883" lon="1.07756">
        <ele>226</ele>
        <time>2012-10-14T07:28:25Z</time>
      </trkpt>
      <trkpt lat="44.58892" lon="1.07755">
        <ele>229</ele>
        <time>2012-10-14T07:28:27Z</time>
      </trkpt>
      <trkpt lat="44.58893" lon="1.07756">
        <ele>230</ele>
        <time>2012-10-14T07:28:32Z</time>
      </trkpt>
      <trkpt lat="44.58898" lon="1.07757">
        <ele>231</ele>
        <time>2012-10-14T07:28:35Z</time>
      </trkpt>
      <trkpt lat="44.58904" lon="1.07756">
        <ele>231</ele>
        <time>2012-10-14T07:28:42Z</time>
      </trkpt>
      <trkpt lat="44.58913" lon="1.07755">
        <ele>232</ele>
        <time>2012-10-14T07:28:45Z</time>
      </trkpt>
      <trkpt lat="44.58916" lon="1.07753">
        <ele>232</ele>
        <time>2012-10-14T07:28:52Z</time>
      </trkpt>
      <trkpt lat="44.58928" lon="1.07749">
        <ele>232</ele>
        <time>2012-10-14T07:28:58Z</time>
      </trkpt>
      <trkpt lat="44.58934" lon="1.07747">
        <ele>232</ele>
        <time>2012-10-14T07:29:00Z</time>
      </trkpt>
      <trkpt lat="44.58936" lon="1.07746">
        <ele>232</ele>
        <time>2012-10-14T07:29:06Z</time>
      </trkpt>
      <trkpt lat="44.58944" lon="1.07747">
        <ele>232</ele>
        <time>2012-10-14T07:29:09Z</time>
      </trkpt>
      <trkpt lat="44.58948" lon="1.07745">
        <ele>233</ele>
        <time>2012-10-14T07:29:14Z</time>
      </trkpt>
      <trkpt lat="44.58954" lon="1.07744">
        <ele>235</ele>
        <time>2012-10-14T07:29:16Z</time>
      </trkpt>
      <trkpt lat="44.58958" lon="1.07743">
        <ele>235</ele>
        <time>2012-10-14T07:29:22Z</time>
      </trkpt>
      <trkpt lat="44.58968" lon="1.07737">
        <ele>237</ele>
        <time>2012-10-14T07:29:29Z</time>
      </trkpt>
      <trkpt lat="44.58979" lon="1.07733">
        <ele>237</ele>
        <time>2012-10-14T07:29:31Z</time>
      </trkpt>
      <trkpt lat="44.58982" lon="1.07731">
        <ele>237</ele>
        <time>2012-10-14T07:29:36Z</time>
      </trkpt>
      <trkpt lat="44.58998" lon="1.07722">
        <ele>237</ele>
        <time>2012-10-14T07:29:43Z</time>
      </trkpt>
      <trkpt lat="44.59013" lon="1.07713">
        <ele>237</ele>
        <time>2012-10-14T07:29:50Z</time>
      </trkpt>
      <trkpt lat="44.59024" lon="1.07706">
        <ele>237</ele>
        <time>2012-10-14T07:29:57Z</time>
      </trkpt>
      <trkpt lat="44.59036" lon="1.07698">
        <ele>237</ele>
        <time>2012-10-14T07:30:04Z</time>
      </trkpt>
      <trkpt lat="44.59046" lon="1.07693">
        <ele>240</ele>
        <time>2012-10-14T07:30:07Z</time>
      </trkpt>
      <trkpt lat="44.5905" lon="1.07691">
        <ele>241</ele>
        <time>2012-10-14T07:30:13Z</time>
      </trkpt>
      <trkpt lat="44.59061" lon="1.0768">
        <ele>244</ele>
        <time>2012-10-14T07:30:20Z</time>
      </trkpt>
      <trkpt lat="44.59073" lon="1.07669">
        <ele>245</ele>
        <time>2012-10-14T07:30:27Z</time>
      </trkpt>
      <trkpt lat="44.59086" lon="1.07657">
        <ele>245</ele>
        <time>2012-10-14T07:30:34Z</time>
      </trkpt>
      <trkpt lat="44.59098" lon="1.07645">
        <ele>245</ele>
        <time>2012-10-14T07:30:41Z</time>
      </trkpt>
      <trkpt lat="44.59109" lon="1.07633">
        <ele>245</ele>
        <time>2012-10-14T07:30:48Z</time>
      </trkpt>
      <trkpt lat="44.59117" lon="1.07621">
        <ele>245</ele>
        <time>2012-10-14T07:30:55Z</time>
      </trkpt>
      <trkpt lat="44.59116" lon="1.07619">
        <ele>245</ele>
        <time>2012-10-14T07:31:25Z</time>
      </trkpt>
      <trkpt lat="44.59117" lon="1.0762">
        <ele>245</ele>
        <time>2012-10-14T07:32:05Z</time>
      </trkpt>
      <trkpt lat="44.59116" lon="1.07621">
        <ele>246</ele>
        <time>2012-10-14T07:32:07Z</time>
      </trkpt>
      <trkpt lat="44.59115" lon="1.07622">
        <ele>247</ele>
        <time>2012-10-14T07:32:10Z</time>
      </trkpt>
      <trkpt lat="44.59115" lon="1.07617">
        <ele>262</ele>
        <time>2012-10-14T07:32:22Z</time>
      </trkpt>
      <trkpt lat="44.59119" lon="1.07616">
        <ele>260</ele>
        <time>2012-10-14T07:32:29Z</time>
      </trkpt>
      <trkpt lat="44.59119" lon="1.07618">
        <ele>255</ele>
        <time>2012-10-14T07:33:06Z</time>
      </trkpt>
      <trkpt lat="44.5912" lon="1.07614">
        <ele>255</ele>
        <time>2012-10-14T07:33:16Z</time>
      </trkpt>
      <trkpt lat="44.59125" lon="1.07603">
        <ele>255</ele>
        <time>2012-10-14T07:33:24Z</time>
      </trkpt>
      <trkpt lat="44.59131" lon="1.07593">
        <ele>255</ele>
        <time>2012-10-14T07:33:31Z</time>
      </trkpt>
      <trkpt lat="44.59143" lon="1.07571">
        <ele>255</ele>
        <time>2012-10-14T07:33:38Z</time>
      </trkpt>
      <trkpt lat="44.59154" lon="1.07554">
        <ele>255</ele>
        <time>2012-10-14T07:33:45Z</time>
      </trkpt>
      <trkpt lat="44.59159" lon="1.07546">
        <ele>257</ele>
        <time>2012-10-14T07:33:52Z</time>
      </trkpt>
      <trkpt lat="44.59176" lon="1.07525">
        <ele>260</ele>
        <time>2012-10-14T07:33:59Z</time>
      </trkpt>
      <trkpt lat="44.59192" lon="1.07503">
        <ele>261</ele>
        <time>2012-10-14T07:34:06Z</time>
      </trkpt>
      <trkpt lat="44.59209" lon="1.0748">
        <ele>262</ele>
        <time>2012-10-14T07:34:13Z</time>
      </trkpt>
      <trkpt lat="44.59217" lon="1.07468">
        <ele>263</ele>
        <time>2012-10-14T07:34:20Z</time>
      </trkpt>
      <trkpt lat="44.59224" lon="1.07459">
        <ele>263</ele>
        <time>2012-10-14T07:34:28Z</time>
      </trkpt>
      <trkpt lat="44.59252" lon="1.07435">
        <ele>263</ele>
        <time>2012-10-14T07:34:35Z</time>
      </trkpt>
      <trkpt lat="44.59261" lon="1.07429">
        <ele>263</ele>
        <time>2012-10-14T07:34:42Z</time>
      </trkpt>
      <trkpt lat="44.59291" lon="1.07412">
        <ele>263</ele>
        <time>2012-10-14T07:34:49Z</time>
      </trkpt>
      <trkpt lat="44.59318" lon="1.07399">
        <ele>263</ele>
        <time>2012-10-14T07:34:56Z</time>
      </trkpt>
      <trkpt lat="44.59333" lon="1.07387">
        <ele>263</ele>
        <time>2012-10-14T07:34:58Z</time>
      </trkpt>
      <trkpt lat="44.59342" lon="1.0738">
        <ele>263</ele>
        <time>2012-10-14T07:35:04Z</time>
      </trkpt>
      <trkpt lat="44.59363" lon="1.07361">
        <ele>263</ele>
        <time>2012-10-14T07:35:12Z</time>
      </trkpt>
      <trkpt lat="44.59403" lon="1.07326">
        <ele>263</ele>
        <time>2012-10-14T07:35:19Z</time>
      </trkpt>
      <trkpt lat="44.59426" lon="1.07309">
        <ele>263</ele>
        <time>2012-10-14T07:35:26Z</time>
      </trkpt>
      <trkpt lat="44.59441" lon="1.07301">
        <ele>265</ele>
        <time>2012-10-14T07:35:34Z</time>
      </trkpt>
      <trkpt lat="44.59467" lon="1.07302">
        <ele>267</ele>
        <time>2012-10-14T07:35:36Z</time>
      </trkpt>
      <trkpt lat="44.59481" lon="1.07306">
        <ele>269</ele>
        <time>2012-10-14T07:35:42Z</time>
      </trkpt>
      <trkpt lat="44.59511" lon="1.07321">
        <ele>271</ele>
        <time>2012-10-14T07:35:50Z</time>
      </trkpt>
      <trkpt lat="44.59548" lon="1.07334">
        <ele>272</ele>
        <time>2012-10-14T07:35:57Z</time>
      </trkpt>
      <trkpt lat="44.59552" lon="1.07333">
        <ele>274</ele>
        <time>2012-10-14T07:35:59Z</time>
      </trkpt>
      <trkpt lat="44.59558" lon="1.07331">
        <ele>275</ele>
        <time>2012-10-14T07:36:04Z</time>
      </trkpt>
      <trkpt lat="44.5958" lon="1.07322">
        <ele>278</ele>
        <time>2012-10-14T07:36:11Z</time>
      </trkpt>
      <trkpt lat="44.5961" lon="1.07309">
        <ele>281</ele>
        <time>2012-10-14T07:36:18Z</time>
      </trkpt>
      <trkpt lat="44.59636" lon="1.07295">
        <ele>280</ele>
        <time>2012-10-14T07:36:26Z</time>
      </trkpt>
      <trkpt lat="44.59636" lon="1.07297">
        <ele>276</ele>
        <time>2012-10-14T07:36:35Z</time>
      </trkpt>
      <trkpt lat="44.59637" lon="1.07299">
        <ele>276</ele>
        <time>2012-10-14T07:36:43Z</time>
      </trkpt>
      <trkpt lat="44.59638" lon="1.073">
        <ele>275</ele>
        <time>2012-10-14T07:36:51Z</time>
      </trkpt>
      <trkpt lat="44.5964" lon="1.07298">
        <ele>274</ele>
        <time>2012-10-14T07:37:08Z</time>
      </trkpt>
      <trkpt lat="44.59647" lon="1.07272">
        <ele>274</ele>
        <time>2012-10-14T07:37:11Z</time>
      </trkpt>
      <trkpt lat="44.59655" lon="1.07265">
        <ele>274</ele>
        <time>2012-10-14T07:37:17Z</time>
      </trkpt>
      <trkpt lat="44.59693" lon="1.07218">
        <ele>274</ele>
        <time>2012-10-14T07:37:24Z</time>
      </trkpt>
      <trkpt lat="44.59734" lon="1.07177">
        <ele>274</ele>
        <time>2012-10-14T07:37:31Z</time>
      </trkpt>
      <trkpt lat="44.59762" lon="1.07135">
        <ele>274</ele>
        <time>2012-10-14T07:37:34Z</time>
      </trkpt>
      <trkpt lat="44.5977" lon="1.07121">
        <ele>274</ele>
        <time>2012-10-14T07:37:39Z</time>
      </trkpt>
      <trkpt lat="44.59786" lon="1.07082">
        <ele>274</ele>
        <time>2012-10-14T07:37:41Z</time>
      </trkpt>
      <trkpt lat="44.59825" lon="1.07038">
        <ele>274</ele>
        <time>2012-10-14T07:37:47Z</time>
      </trkpt>
      <trkpt lat="44.59842" lon="1.07007">
        <ele>270</ele>
        <time>2012-10-14T07:37:55Z</time>
      </trkpt>
      <trkpt lat="44.59871" lon="1.06931">
        <ele>264</ele>
        <time>2012-10-14T07:38:02Z</time>
      </trkpt>
      <trkpt lat="44.59884" lon="1.06875">
        <ele>256</ele>
        <time>2012-10-14T07:38:09Z</time>
      </trkpt>
      <trkpt lat="44.59852" lon="1.06877">
        <ele>250</ele>
        <time>2012-10-14T07:38:12Z</time>
      </trkpt>
      <trkpt lat="44.59846" lon="1.06871">
        <ele>249</ele>
        <time>2012-10-14T07:38:18Z</time>
      </trkpt>
      <trkpt lat="44.5985" lon="1.06803">
        <ele>243</ele>
        <time>2012-10-14T07:38:20Z</time>
      </trkpt>
      <trkpt lat="44.59851" lon="1.06779">
        <ele>241</ele>
        <time>2012-10-14T07:38:26Z</time>
      </trkpt>
      <trkpt lat="44.59855" lon="1.06692">
        <ele>235</ele>
        <time>2012-10-14T07:38:33Z</time>
      </trkpt>
      <trkpt lat="44.59874" lon="1.06635">
        <ele>230</ele>
        <time>2012-10-14T07:38:35Z</time>
      </trkpt>
      <trkpt lat="44.59884" lon="1.06608">
        <ele>226</ele>
        <time>2012-10-14T07:38:41Z</time>
      </trkpt>
      <trkpt lat="44.59897" lon="1.06567">
        <ele>224</ele>
        <time>2012-10-14T07:38:49Z</time>
      </trkpt>
      <trkpt lat="44.59918" lon="1.06532">
        <ele>226</ele>
        <time>2012-10-14T07:38:56Z</time>
      </trkpt>
      <trkpt lat="44.59942" lon="1.06505">
        <ele>229</ele>
        <time>2012-10-14T07:39:03Z</time>
      </trkpt>
      <trkpt lat="44.59954" lon="1.06466">
        <ele>231</ele>
        <time>2012-10-14T07:39:06Z</time>
      </trkpt>
      <trkpt lat="44.59959" lon="1.06456">
        <ele>231</ele>
        <time>2012-10-14T07:39:11Z</time>
      </trkpt>
      <trkpt lat="44.59977" lon="1.06412">
        <ele>231</ele>
        <time>2012-10-14T07:39:19Z</time>
      </trkpt>
      <trkpt lat="44.59993" lon="1.06392">
        <ele>231</ele>
        <time>2012-10-14T07:39:21Z</time>
      </trkpt>
      <trkpt lat="44.59998" lon="1.06391">
        <ele>231</ele>
        <time>2012-10-14T07:39:28Z</time>
      </trkpt>
      <trkpt lat="44.59995" lon="1.0639">
        <ele>237</ele>
        <time>2012-10-14T07:39:38Z</time>
      </trkpt>
      <trkpt lat="44.59997" lon="1.06392">
        <ele>240</ele>
        <time>2012-10-14T07:39:41Z</time>
      </trkpt>
      <trkpt lat="44.59999" lon="1.06389">
        <ele>242</ele>
        <time>2012-10-14T07:39:48Z</time>
      </trkpt>
      <trkpt lat="44.60001" lon="1.06388">
        <ele>243</ele>
        <time>2012-10-14T07:39:58Z</time>
      </trkpt>
      <trkpt lat="44.60004" lon="1.06385">
        <ele>242</ele>
        <time>2012-10-14T07:40:06Z</time>
      </trkpt>
      <trkpt lat="44.60021" lon="1.06353">
        <ele>240</ele>
        <time>2012-10-14T07:40:13Z</time>
      </trkpt>
      <trkpt lat="44.60047" lon="1.06296">
        <ele>234</ele>
        <time>2012-10-14T07:40:20Z</time>
      </trkpt>
      <trkpt lat="44.60075" lon="1.06255">
        <ele>225</ele>
        <time>2012-10-14T07:40:23Z</time>
      </trkpt>
      <trkpt lat="44.60082" lon="1.0624">
        <ele>222</ele>
        <time>2012-10-14T07:40:29Z</time>
      </trkpt>
      <trkpt lat="44.60094" lon="1.06194">
        <ele>215</ele>
        <time>2012-10-14T07:40:32Z</time>
      </trkpt>
      <trkpt lat="44.60098" lon="1.0618">
        <ele>213</ele>
        <time>2012-10-14T07:40:37Z</time>
      </trkpt>
      <trkpt lat="44.60116" lon="1.0615">
        <ele>208</ele>
        <time>2012-10-14T07:40:40Z</time>
      </trkpt>
      <trkpt lat="44.60122" lon="1.06142">
        <ele>207</ele>
        <time>2012-10-14T07:40:45Z</time>
      </trkpt>
      <trkpt lat="44.60107" lon="1.06089">
        <ele>204</ele>
        <time>2012-10-14T07:40:48Z</time>
      </trkpt>
      <trkpt lat="44.60097" lon="1.06063">
        <ele>204</ele>
        <time>2012-10-14T07:40:53Z</time>
      </trkpt>
      <trkpt lat="44.60082" lon="1.05991">
        <ele>203</ele>
        <time>2012-10-14T07:40:56Z</time>
      </trkpt>
      <trkpt lat="44.6008" lon="1.05973">
        <ele>203</ele>
        <time>2012-10-14T07:41:01Z</time>
      </trkpt>
      <trkpt lat="44.60075" lon="1.0593">
        <ele>203</ele>
        <time>2012-10-14T07:41:09Z</time>
      </trkpt>
      <trkpt lat="44.60077" lon="1.05911">
        <ele>203</ele>
        <time>2012-10-14T07:41:17Z</time>
      </trkpt>
      <trkpt lat="44.60076" lon="1.0591">
        <ele>204</ele>
        <time>2012-10-14T07:41:28Z</time>
      </trkpt>
      <trkpt lat="44.60075" lon="1.05908">
        <ele>206</ele>
        <time>2012-10-14T07:41:35Z</time>
      </trkpt>
      <trkpt lat="44.60074" lon="1.05907">
        <ele>207</ele>
        <time>2012-10-14T07:41:43Z</time>
      </trkpt>
      <trkpt lat="44.60075" lon="1.05905">
        <ele>206</ele>
        <time>2012-10-14T07:41:59Z</time>
      </trkpt>
      <trkpt lat="44.60076" lon="1.059">
        <ele>206</ele>
        <time>2012-10-14T07:42:02Z</time>
      </trkpt>
      <trkpt lat="44.60076" lon="1.05895">
        <ele>206</ele>
        <time>2012-10-14T07:42:07Z</time>
      </trkpt>
      <trkpt lat="44.60075" lon="1.05881">
        <ele>206</ele>
        <time>2012-10-14T07:42:09Z</time>
      </trkpt>
      <trkpt lat="44.60075" lon="1.05873">
        <ele>206</ele>
        <time>2012-10-14T07:42:15Z</time>
      </trkpt>
      <trkpt lat="44.60075" lon="1.05857">
        <ele>208</ele>
        <time>2012-10-14T07:42:20Z</time>
      </trkpt>
      <trkpt lat="44.60077" lon="1.0584">
        <ele>211</ele>
        <time>2012-10-14T07:42:26Z</time>
      </trkpt>
      <trkpt lat="44.60076" lon="1.05822">
        <ele>214</ele>
        <time>2012-10-14T07:42:32Z</time>
      </trkpt>
      <trkpt lat="44.60073" lon="1.05805">
        <ele>217</ele>
        <time>2012-10-14T07:42:39Z</time>
      </trkpt>
      <trkpt lat="44.60075" lon="1.05791">
        <ele>220</ele>
        <time>2012-10-14T07:42:45Z</time>
      </trkpt>
      <trkpt lat="44.60074" lon="1.05789">
        <ele>222</ele>
        <time>2012-10-14T07:42:47Z</time>
      </trkpt>
      <trkpt lat="44.60073" lon="1.05788">
        <ele>223</ele>
        <time>2012-10-14T07:42:52Z</time>
      </trkpt>
      <trkpt lat="44.6008" lon="1.0578">
        <ele>224</ele>
        <time>2012-10-14T07:43:00Z</time>
      </trkpt>
      <trkpt lat="44.60082" lon="1.0578">
        <ele>224</ele>
        <time>2012-10-14T07:43:08Z</time>
      </trkpt>
      <trkpt lat="44.60082" lon="1.05778">
        <ele>224</ele>
        <time>2012-10-14T07:43:15Z</time>
      </trkpt>
      <trkpt lat="44.6008" lon="1.05771">
        <ele>224</ele>
        <time>2012-10-14T07:43:18Z</time>
      </trkpt>
      <trkpt lat="44.6008" lon="1.05766">
        <ele>224</ele>
        <time>2012-10-14T07:43:24Z</time>
      </trkpt>
      <trkpt lat="44.6008" lon="1.05765">
        <ele>225</ele>
        <time>2012-10-14T07:43:26Z</time>
      </trkpt>
      <trkpt lat="44.60077" lon="1.05764">
        <ele>225</ele>
        <time>2012-10-14T07:43:31Z</time>
      </trkpt>
      <trkpt lat="44.60072" lon="1.05758">
        <ele>229</ele>
        <time>2012-10-14T07:43:39Z</time>
      </trkpt>
      <trkpt lat="44.6007" lon="1.05758">
        <ele>233</ele>
        <time>2012-10-14T07:43:47Z</time>
      </trkpt>
      <trkpt lat="44.60072" lon="1.05761">
        <ele>235</ele>
        <time>2012-10-14T07:43:54Z</time>
      </trkpt>
      <trkpt lat="44.60071" lon="1.05763">
        <ele>235</ele>
        <time>2012-10-14T07:44:04Z</time>
      </trkpt>
      <trkpt lat="44.6007" lon="1.05762">
        <ele>238</ele>
        <time>2012-10-14T07:44:19Z</time>
      </trkpt>
      <trkpt lat="44.60071" lon="1.0576">
        <ele>237</ele>
        <time>2012-10-14T07:44:28Z</time>
      </trkpt>
      <trkpt lat="44.6007" lon="1.05741">
        <ele>235</ele>
        <time>2012-10-14T07:44:34Z</time>
      </trkpt>
      <trkpt lat="44.6007" lon="1.05727">
        <ele>233</ele>
        <time>2012-10-14T07:44:39Z</time>
      </trkpt>
      <trkpt lat="44.60078" lon="1.05713">
        <ele>230</ele>
        <time>2012-10-14T07:44:42Z</time>
      </trkpt>
      <trkpt lat="44.60081" lon="1.05714">
        <ele>229</ele>
        <time>2012-10-14T07:44:47Z</time>
      </trkpt>
      <trkpt lat="44.60094" lon="1.05724">
        <ele>228</ele>
        <time>2012-10-14T07:44:50Z</time>
      </trkpt>
      <trkpt lat="44.60099" lon="1.05729">
        <ele>227</ele>
        <time>2012-10-14T07:44:54Z</time>
      </trkpt>
      <trkpt lat="44.60121" lon="1.05746">
        <ele>225</ele>
        <time>2012-10-14T07:45:00Z</time>
      </trkpt>
      <trkpt lat="44.60152" lon="1.05763">
        <ele>223</ele>
        <time>2012-10-14T07:45:06Z</time>
      </trkpt>
      <trkpt lat="44.60185" lon="1.05769">
        <ele>222</ele>
        <time>2012-10-14T07:45:13Z</time>
      </trkpt>
      <trkpt lat="44.60233" lon="1.05783">
        <ele>222</ele>
        <time>2012-10-14T07:45:19Z</time>
      </trkpt>
      <trkpt lat="44.60258" lon="1.05796">
        <ele>221</ele>
        <time>2012-10-14T07:45:25Z</time>
      </trkpt>
      <trkpt lat="44.6029" lon="1.05813">
        <ele>218</ele>
        <time>2012-10-14T07:45:31Z</time>
      </trkpt>
      <trkpt lat="44.60329" lon="1.0582">
        <ele>216</ele>
        <time>2012-10-14T07:45:38Z</time>
      </trkpt>
      <trkpt lat="44.60387" lon="1.05829">
        <ele>215</ele>
        <time>2012-10-14T07:45:44Z</time>
      </trkpt>
      <trkpt lat="44.60406" lon="1.05832">
        <ele>214</ele>
        <time>2012-10-14T07:45:50Z</time>
      </trkpt>
      <trkpt lat="44.60453" lon="1.05831">
        <ele>211</ele>
        <time>2012-10-14T07:45:56Z</time>
      </trkpt>
      <trkpt lat="44.60494" lon="1.05828">
        <ele>208</ele>
        <time>2012-10-14T07:46:02Z</time>
      </trkpt>
      <trkpt lat="44.60535" lon="1.05825">
        <ele>205</ele>
        <time>2012-10-14T07:46:08Z</time>
      </trkpt>
      <trkpt lat="44.60603" lon="1.05802">
        <ele>202</ele>
        <time>2012-10-14T07:46:15Z</time>
      </trkpt>
      <trkpt lat="44.60627" lon="1.05792">
        <ele>200</ele>
        <time>2012-10-14T07:46:21Z</time>
      </trkpt>
      <trkpt lat="44.60666" lon="1.05775">
        <ele>197</ele>
        <time>2012-10-14T07:46:27Z</time>
      </trkpt>
      <trkpt lat="44.60666" lon="1.05773">
        <ele>194</ele>
        <time>2012-10-14T07:46:30Z</time>
      </trkpt>
      <trkpt lat="44.60663" lon="1.05773">
        <ele>192</ele>
        <time>2012-10-14T07:46:36Z</time>
      </trkpt>
      <trkpt lat="44.60659" lon="1.05775">
        <ele>191</ele>
        <time>2012-10-14T07:46:43Z</time>
      </trkpt>
      <trkpt lat="44.6066" lon="1.05777">
        <ele>191</ele>
        <time>2012-10-14T07:46:50Z</time>
      </trkpt>
      <trkpt lat="44.6066" lon="1.05778">
        <ele>191</ele>
        <time>2012-10-14T07:46:53Z</time>
      </trkpt>
      <trkpt lat="44.60657" lon="1.05778">
        <ele>191</ele>
        <time>2012-10-14T07:46:58Z</time>
      </trkpt>
      <trkpt lat="44.60654" lon="1.05775">
        <ele>191</ele>
        <time>2012-10-14T07:47:05Z</time>
      </trkpt>
      <trkpt lat="44.60653" lon="1.05772">
        <ele>191</ele>
        <time>2012-10-14T07:47:12Z</time>
      </trkpt>
      <trkpt lat="44.60649" lon="1.05733">
        <ele>190</ele>
        <time>2012-10-14T07:47:19Z</time>
      </trkpt>
      <trkpt lat="44.60648" lon="1.05723">
        <ele>190</ele>
        <time>2012-10-14T07:47:21Z</time>
      </trkpt>
      <trkpt lat="44.60645" lon="1.05714">
        <ele>189</ele>
        <time>2012-10-14T07:47:26Z</time>
      </trkpt>
      <trkpt lat="44.60635" lon="1.05693">
        <ele>188</ele>
        <time>2012-10-14T07:47:28Z</time>
      </trkpt>
      <trkpt lat="44.60627" lon="1.05681">
        <ele>187</ele>
        <time>2012-10-14T07:47:32Z</time>
      </trkpt>
      <trkpt lat="44.60602" lon="1.05652">
        <ele>184</ele>
        <time>2012-10-14T07:47:35Z</time>
      </trkpt>
      <trkpt lat="44.60595" lon="1.05637">
        <ele>184</ele>
        <time>2012-10-14T07:47:41Z</time>
      </trkpt>
      <trkpt lat="44.60571" lon="1.05601">
        <ele>182</ele>
        <time>2012-10-14T07:47:47Z</time>
      </trkpt>
      <trkpt lat="44.60551" lon="1.05556">
        <ele>180</ele>
        <time>2012-10-14T07:47:54Z</time>
      </trkpt>
      <trkpt lat="44.60572" lon="1.05523">
        <ele>180</ele>
        <time>2012-10-14T07:47:57Z</time>
      </trkpt>
      <trkpt lat="44.60581" lon="1.05517">
        <ele>180</ele>
        <time>2012-10-14T07:48:02Z</time>
      </trkpt>
      <trkpt lat="44.60607" lon="1.055">
        <ele>180</ele>
        <time>2012-10-14T07:48:08Z</time>
      </trkpt>
      <trkpt lat="44.60615" lon="1.05487">
        <ele>181</ele>
        <time>2012-10-14T07:48:11Z</time>
      </trkpt>
      <trkpt lat="44.60617" lon="1.0548">
        <ele>182</ele>
        <time>2012-10-14T07:48:15Z</time>
      </trkpt>
      <trkpt lat="44.60624" lon="1.05458">
        <ele>183</ele>
        <time>2012-10-14T07:48:21Z</time>
      </trkpt>
      <trkpt lat="44.60624" lon="1.05438">
        <ele>186</ele>
        <time>2012-10-14T07:48:24Z</time>
      </trkpt>
      <trkpt lat="44.60626" lon="1.05425">
        <ele>188</ele>
        <time>2012-10-14T07:48:29Z</time>
      </trkpt>
      <trkpt lat="44.60634" lon="1.05412">
        <ele>191</ele>
        <time>2012-10-14T07:48:32Z</time>
      </trkpt>
      <trkpt lat="44.60638" lon="1.05408">
        <ele>192</ele>
        <time>2012-10-14T07:48:36Z</time>
      </trkpt>
      <trkpt lat="44.60651" lon="1.05394">
        <ele>193</ele>
        <time>2012-10-14T07:48:40Z</time>
      </trkpt>
      <trkpt lat="44.60659" lon="1.05391">
        <ele>193</ele>
        <time>2012-10-14T07:48:45Z</time>
      </trkpt>
      <trkpt lat="44.60669" lon="1.05379">
        <ele>195</ele>
        <time>2012-10-14T07:48:48Z</time>
      </trkpt>
      <trkpt lat="44.60671" lon="1.05375">
        <ele>195</ele>
        <time>2012-10-14T07:48:52Z</time>
      </trkpt>
      <trkpt lat="44.6068" lon="1.05364">
        <ele>196</ele>
        <time>2012-10-14T07:48:58Z</time>
      </trkpt>
      <trkpt lat="44.60689" lon="1.05349">
        <ele>196</ele>
        <time>2012-10-14T07:49:05Z</time>
      </trkpt>
      <trkpt lat="44.60691" lon="1.05342">
        <ele>196</ele>
        <time>2012-10-14T07:49:07Z</time>
      </trkpt>
      <trkpt lat="44.60694" lon="1.05335">
        <ele>196</ele>
        <time>2012-10-14T07:49:12Z</time>
      </trkpt>
      <trkpt lat="44.607" lon="1.0531">
        <ele>196</ele>
        <time>2012-10-14T07:49:18Z</time>
      </trkpt>
      <trkpt lat="44.60706" lon="1.05295">
        <ele>196</ele>
        <time>2012-10-14T07:49:24Z</time>
      </trkpt>
      <trkpt lat="44.60712" lon="1.05277">
        <ele>196</ele>
        <time>2012-10-14T07:49:27Z</time>
      </trkpt>
      <trkpt lat="44.60714" lon="1.05267">
        <ele>196</ele>
        <time>2012-10-14T07:49:33Z</time>
      </trkpt>
      <trkpt lat="44.60724" lon="1.05231">
        <ele>196</ele>
        <time>2012-10-14T07:49:38Z</time>
      </trkpt>
      <trkpt lat="44.60735" lon="1.05212">
        <ele>196</ele>
        <time>2012-10-14T07:49:41Z</time>
      </trkpt>
      <trkpt lat="44.60737" lon="1.05207">
        <ele>196</ele>
        <time>2012-10-14T07:49:46Z</time>
      </trkpt>
      <trkpt lat="44.60741" lon="1.05192">
        <ele>196</ele>
        <time>2012-10-14T07:49:53Z</time>
      </trkpt>
      <trkpt lat="44.60741" lon="1.05186">
        <ele>199</ele>
        <time>2012-10-14T07:50:03Z</time>
      </trkpt>
      <trkpt lat="44.60736" lon="1.05185">
        <ele>199</ele>
        <time>2012-10-14T07:50:09Z</time>
      </trkpt>
      <trkpt lat="44.60735" lon="1.05183">
        <ele>199</ele>
        <time>2012-10-14T07:50:15Z</time>
      </trkpt>
      <trkpt lat="44.60736" lon="1.05185">
        <ele>200</ele>
        <time>2012-10-14T07:50:18Z</time>
      </trkpt>
      <trkpt lat="44.60737" lon="1.05187">
        <ele>201</ele>
        <time>2012-10-14T07:50:24Z</time>
      </trkpt>
      <trkpt lat="44.60735" lon="1.05187">
        <ele>203</ele>
        <time>2012-10-14T07:50:31Z</time>
      </trkpt>
      <trkpt lat="44.60736" lon="1.05188">
        <ele>205</ele>
        <time>2012-10-14T07:50:39Z</time>
      </trkpt>
      <trkpt lat="44.60735" lon="1.05187">
        <ele>205</ele>
        <time>2012-10-14T07:50:47Z</time>
      </trkpt>
      <trkpt lat="44.60733" lon="1.05187">
        <ele>205</ele>
        <time>2012-10-14T07:50:54Z</time>
      </trkpt>
      <trkpt lat="44.60725" lon="1.05187">
        <ele>205</ele>
        <time>2012-10-14T07:50:56Z</time>
      </trkpt>
      <trkpt lat="44.60711" lon="1.05189">
        <ele>205</ele>
        <time>2012-10-14T07:51:02Z</time>
      </trkpt>
      <trkpt lat="44.60704" lon="1.05188">
        <ele>205</ele>
        <time>2012-10-14T07:51:07Z</time>
      </trkpt>
      <trkpt lat="44.60684" lon="1.05189">
        <ele>208</ele>
        <time>2012-10-14T07:51:13Z</time>
      </trkpt>
      <trkpt lat="44.60651" lon="1.05192">
        <ele>209</ele>
        <time>2012-10-14T07:51:20Z</time>
      </trkpt>
      <trkpt lat="44.60636" lon="1.05192">
        <ele>209</ele>
        <time>2012-10-14T07:51:26Z</time>
      </trkpt>
      <trkpt lat="44.60618" lon="1.05195">
        <ele>209</ele>
        <time>2012-10-14T07:51:32Z</time>
      </trkpt>
      <trkpt lat="44.60592" lon="1.05197">
        <ele>209</ele>
        <time>2012-10-14T07:51:39Z</time>
      </trkpt>
      <trkpt lat="44.60579" lon="1.05198">
        <ele>209</ele>
        <time>2012-10-14T07:51:45Z</time>
      </trkpt>
      <trkpt lat="44.60561" lon="1.05195">
        <ele>211</ele>
        <time>2012-10-14T07:51:51Z</time>
      </trkpt>
      <trkpt lat="44.60532" lon="1.05194">
        <ele>214</ele>
        <time>2012-10-14T07:51:58Z</time>
      </trkpt>
      <trkpt lat="44.60521" lon="1.05191">
        <ele>216</ele>
        <time>2012-10-14T07:52:04Z</time>
      </trkpt>
      <trkpt lat="44.60501" lon="1.05192">
        <ele>219</ele>
        <time>2012-10-14T07:52:10Z</time>
      </trkpt>
      <trkpt lat="44.60466" lon="1.05196">
        <ele>219</ele>
        <time>2012-10-14T07:52:17Z</time>
      </trkpt>
      <trkpt lat="44.60451" lon="1.05197">
        <ele>219</ele>
        <time>2012-10-14T07:52:23Z</time>
      </trkpt>
      <trkpt lat="44.60428" lon="1.05195">
        <ele>219</ele>
        <time>2012-10-14T07:52:29Z</time>
      </trkpt>
      <trkpt lat="44.60409" lon="1.05186">
        <ele>219</ele>
        <time>2012-10-14T07:52:35Z</time>
      </trkpt>
      <trkpt lat="44.60376" lon="1.05168">
        <ele>218</ele>
        <time>2012-10-14T07:52:42Z</time>
      </trkpt>
      <trkpt lat="44.60362" lon="1.05159">
        <ele>218</ele>
        <time>2012-10-14T07:52:48Z</time>
      </trkpt>
      <trkpt lat="44.60342" lon="1.05145">
        <ele>216</ele>
        <time>2012-10-14T07:52:54Z</time>
      </trkpt>
      <trkpt lat="44.60313" lon="1.05126">
        <ele>214</ele>
        <time>2012-10-14T07:53:01Z</time>
      </trkpt>
      <trkpt lat="44.603" lon="1.05117">
        <ele>214</ele>
        <time>2012-10-14T07:53:07Z</time>
      </trkpt>
      <trkpt lat="44.60279" lon="1.05106">
        <ele>214</ele>
        <time>2012-10-14T07:53:13Z</time>
      </trkpt>
      <trkpt lat="44.60259" lon="1.05085">
        <ele>214</ele>
        <time>2012-10-14T07:53:20Z</time>
      </trkpt>
      <trkpt lat="44.60262" lon="1.05079">
        <ele>214</ele>
        <time>2012-10-14T07:53:22Z</time>
      </trkpt>
      <trkpt lat="44.60263" lon="1.05075">
        <ele>214</ele>
        <time>2012-10-14T07:53:27Z</time>
      </trkpt>
      <trkpt lat="44.60274" lon="1.0505">
        <ele>215</ele>
        <time>2012-10-14T07:53:33Z</time>
      </trkpt>
      <trkpt lat="44.60285" lon="1.05025">
        <ele>216</ele>
        <time>2012-10-14T07:53:39Z</time>
      </trkpt>
      <trkpt lat="44.60289" lon="1.05022">
        <ele>216</ele>
        <time>2012-10-14T07:54:03Z</time>
      </trkpt>
      <trkpt lat="44.60294" lon="1.05023">
        <ele>216</ele>
        <time>2012-10-14T07:54:10Z</time>
      </trkpt>
      <trkpt lat="44.60309" lon="1.05001">
        <ele>216</ele>
        <time>2012-10-14T07:54:13Z</time>
      </trkpt>
      <trkpt lat="44.60323" lon="1.04971">
        <ele>216</ele>
        <time>2012-10-14T07:54:18Z</time>
      </trkpt>
      <trkpt lat="44.60331" lon="1.04961">
        <ele>216</ele>
        <time>2012-10-14T07:54:20Z</time>
      </trkpt>
      <trkpt lat="44.60342" lon="1.04952">
        <ele>216</ele>
        <time>2012-10-14T07:54:26Z</time>
      </trkpt>
      <trkpt lat="44.60357" lon="1.04928">
        <ele>217</ele>
        <time>2012-10-14T07:54:28Z</time>
      </trkpt>
      <trkpt lat="44.60363" lon="1.04921">
        <ele>218</ele>
        <time>2012-10-14T07:54:32Z</time>
      </trkpt>
      <trkpt lat="44.60381" lon="1.04902">
        <ele>220</ele>
        <time>2012-10-14T07:54:38Z</time>
      </trkpt>
      <trkpt lat="44.60391" lon="1.04889">
        <ele>221</ele>
        <time>2012-10-14T07:54:41Z</time>
      </trkpt>
      <trkpt lat="44.60402" lon="1.04877">
        <ele>222</ele>
        <time>2012-10-14T07:54:46Z</time>
      </trkpt>
      <trkpt lat="44.60413" lon="1.04863">
        <ele>223</ele>
        <time>2012-10-14T07:54:52Z</time>
      </trkpt>
      <trkpt lat="44.60447" lon="1.04811">
        <ele>223</ele>
        <time>2012-10-14T07:54:58Z</time>
      </trkpt>
      <trkpt lat="44.60485" lon="1.04756">
        <ele>220</ele>
        <time>2012-10-14T07:55:04Z</time>
      </trkpt>
      <trkpt lat="44.60518" lon="1.04705">
        <ele>217</ele>
        <time>2012-10-14T07:55:11Z</time>
      </trkpt>
      <trkpt lat="44.60543" lon="1.04651">
        <ele>211</ele>
        <time>2012-10-14T07:55:17Z</time>
      </trkpt>
      <trkpt lat="44.60567" lon="1.046">
        <ele>205</ele>
        <time>2012-10-14T07:55:24Z</time>
      </trkpt>
      <trkpt lat="44.60578" lon="1.04561">
        <ele>199</ele>
        <time>2012-10-14T07:55:26Z</time>
      </trkpt>
      <trkpt lat="44.60581" lon="1.04551">
        <ele>198</ele>
        <time>2012-10-14T07:55:31Z</time>
      </trkpt>
      <trkpt lat="44.60582" lon="1.04534">
        <ele>196</ele>
        <time>2012-10-14T07:55:33Z</time>
      </trkpt>
      <trkpt lat="44.60583" lon="1.04528">
        <ele>194</ele>
        <time>2012-10-14T07:55:38Z</time>
      </trkpt>
      <trkpt lat="44.60582" lon="1.04525">
        <ele>194</ele>
        <time>2012-10-14T07:55:46Z</time>
      </trkpt>
      <trkpt lat="44.60583" lon="1.04522">
        <ele>194</ele>
        <time>2012-10-14T07:56:02Z</time>
      </trkpt>
      <trkpt lat="44.60586" lon="1.04511">
        <ele>194</ele>
        <time>2012-10-14T07:56:08Z</time>
      </trkpt>
      <trkpt lat="44.6059" lon="1.04487">
        <ele>193</ele>
        <time>2012-10-14T07:56:10Z</time>
      </trkpt>
      <trkpt lat="44.6059" lon="1.04471">
        <ele>193</ele>
        <time>2012-10-14T07:56:15Z</time>
      </trkpt>
      <trkpt lat="44.60595" lon="1.04411">
        <ele>193</ele>
        <time>2012-10-14T07:56:22Z</time>
      </trkpt>
      <trkpt lat="44.60603" lon="1.04381">
        <ele>193</ele>
        <time>2012-10-14T07:56:28Z</time>
      </trkpt>
      <trkpt lat="44.60616" lon="1.04314">
        <ele>193</ele>
        <time>2012-10-14T07:56:35Z</time>
      </trkpt>
      <trkpt lat="44.60616" lon="1.04299">
        <ele>193</ele>
        <time>2012-10-14T07:56:37Z</time>
      </trkpt>
      <trkpt lat="44.60616" lon="1.04284">
        <ele>193</ele>
        <time>2012-10-14T07:56:41Z</time>
      </trkpt>
      <trkpt lat="44.60609" lon="1.04243">
        <ele>193</ele>
        <time>2012-10-14T07:56:48Z</time>
      </trkpt>
      <trkpt lat="44.60622" lon="1.04203">
        <ele>193</ele>
        <time>2012-10-14T07:56:55Z</time>
      </trkpt>
      <trkpt lat="44.60631" lon="1.04162">
        <ele>194</ele>
        <time>2012-10-14T07:57:03Z</time>
      </trkpt>
      <trkpt lat="44.60637" lon="1.04151">
        <ele>194</ele>
        <time>2012-10-14T07:57:08Z</time>
      </trkpt>
      <trkpt lat="44.60648" lon="1.04119">
        <ele>194</ele>
        <time>2012-10-14T07:57:15Z</time>
      </trkpt>
      <trkpt lat="44.60653" lon="1.04101">
        <ele>194</ele>
        <time>2012-10-14T07:57:21Z</time>
      </trkpt>
      <trkpt lat="44.60671" lon="1.04072">
        <ele>194</ele>
        <time>2012-10-14T07:57:23Z</time>
      </trkpt>
      <trkpt lat="44.60683" lon="1.04056">
        <ele>194</ele>
        <time>2012-10-14T07:57:29Z</time>
      </trkpt>
      <trkpt lat="44.60704" lon="1.04024">
        <ele>194</ele>
        <time>2012-10-14T07:57:35Z</time>
      </trkpt>
      <trkpt lat="44.60735" lon="1.03965">
        <ele>193</ele>
        <time>2012-10-14T07:57:42Z</time>
      </trkpt>
      <trkpt lat="44.60744" lon="1.03959">
        <ele>191</ele>
        <time>2012-10-14T07:57:44Z</time>
      </trkpt>
      <trkpt lat="44.60753" lon="1.03955">
        <ele>190</ele>
        <time>2012-10-14T07:57:48Z</time>
      </trkpt>
      <trkpt lat="44.6077" lon="1.03939">
        <ele>187</ele>
        <time>2012-10-14T07:57:51Z</time>
      </trkpt>
      <trkpt lat="44.60787" lon="1.03909">
        <ele>186</ele>
        <time>2012-10-14T07:57:57Z</time>
      </trkpt>
      <trkpt lat="44.60789" lon="1.03891">
        <ele>182</ele>
        <time>2012-10-14T07:57:59Z</time>
      </trkpt>
      <trkpt lat="44.60794" lon="1.0385">
        <ele>180</ele>
        <time>2012-10-14T07:58:04Z</time>
      </trkpt>
      <trkpt lat="44.60796" lon="1.03832">
        <ele>176</ele>
        <time>2012-10-14T07:58:10Z</time>
      </trkpt>
      <trkpt lat="44.6081" lon="1.03807">
        <ele>170</ele>
        <time>2012-10-14T07:58:12Z</time>
      </trkpt>
      <trkpt lat="44.60815" lon="1.03795">
        <ele>168</ele>
        <time>2012-10-14T07:58:17Z</time>
      </trkpt>
      <trkpt lat="44.60838" lon="1.03761">
        <ele>162</ele>
        <time>2012-10-14T07:58:24Z</time>
      </trkpt>
      <trkpt lat="44.60852" lon="1.03731">
        <ele>158</ele>
        <time>2012-10-14T07:58:32Z</time>
      </trkpt>
      <trkpt lat="44.6085" lon="1.03714">
        <ele>156</ele>
        <time>2012-10-14T07:58:37Z</time>
      </trkpt>
      <trkpt lat="44.60831" lon="1.03693">
        <ele>154</ele>
        <time>2012-10-14T07:58:40Z</time>
      </trkpt>
      <trkpt lat="44.60829" lon="1.03687">
        <ele>153</ele>
        <time>2012-10-14T07:58:45Z</time>
      </trkpt>
      <trkpt lat="44.60833" lon="1.03677">
        <ele>150</ele>
        <time>2012-10-14T07:58:48Z</time>
      </trkpt>
      <trkpt lat="44.60835" lon="1.03677">
        <ele>149</ele>
        <time>2012-10-14T07:58:53Z</time>
      </trkpt>
      <trkpt lat="44.60838" lon="1.03676">
        <ele>147</ele>
        <time>2012-10-14T07:59:01Z</time>
      </trkpt>
      <trkpt lat="44.60836" lon="1.03679">
        <ele>147</ele>
        <time>2012-10-14T07:59:11Z</time>
      </trkpt>
      <trkpt lat="44.60835" lon="1.03679">
        <ele>147</ele>
        <time>2012-10-14T07:59:18Z</time>
      </trkpt>
      <trkpt lat="44.60836" lon="1.03677">
        <ele>145</ele>
        <time>2012-10-14T07:59:34Z</time>
      </trkpt>
      <trkpt lat="44.60835" lon="1.0368">
        <ele>145</ele>
        <time>2012-10-14T08:00:05Z</time>
      </trkpt>
      <trkpt lat="44.60835" lon="1.03678">
        <ele>145</ele>
        <time>2012-10-14T08:00:07Z</time>
      </trkpt>
      <trkpt lat="44.60835" lon="1.03677">
        <ele>145</ele>
        <time>2012-10-14T08:00:13Z</time>
      </trkpt>
      <trkpt lat="44.60836" lon="1.03675">
        <ele>145</ele>
        <time>2012-10-14T08:00:23Z</time>
      </trkpt>
      <trkpt lat="44.60836" lon="1.03673">
        <ele>145</ele>
        <time>2012-10-14T08:00:29Z</time>
      </trkpt>
      <trkpt lat="44.60836" lon="1.03671">
        <ele>145</ele>
        <time>2012-10-14T08:00:38Z</time>
      </trkpt>
      <trkpt lat="44.60836" lon="1.03673">
        <ele>145</ele>
        <time>2012-10-14T08:00:46Z</time>
      </trkpt>
      <trkpt lat="44.60836" lon="1.03675">
        <ele>145</ele>
        <time>2012-10-14T08:00:53Z</time>
      </trkpt>
      <trkpt lat="44.60837" lon="1.03671">
        <ele>145</ele>
        <time>2012-10-14T08:01:09Z</time>
      </trkpt>
      <trkpt lat="44.60837" lon="1.03669">
        <ele>144</ele>
        <time>2012-10-14T08:01:16Z</time>
      </trkpt>
      <trkpt lat="44.60837" lon="1.03667">
        <ele>144</ele>
        <time>2012-10-14T08:01:26Z</time>
      </trkpt>
      <trkpt lat="44.60837" lon="1.0367">
        <ele>144</ele>
        <time>2012-10-14T08:01:42Z</time>
      </trkpt>
      <trkpt lat="44.60838" lon="1.03668">
        <ele>144</ele>
        <time>2012-10-14T08:01:44Z</time>
      </trkpt>
      <trkpt lat="44.60846" lon="1.03654">
        <ele>144</ele>
        <time>2012-10-14T08:01:50Z</time>
      </trkpt>
      <trkpt lat="44.60846" lon="1.03647">
        <ele>144</ele>
        <time>2012-10-14T08:01:52Z</time>
      </trkpt>
      <trkpt lat="44.60845" lon="1.03625">
        <ele>144</ele>
        <time>2012-10-14T08:01:57Z</time>
      </trkpt>
      <trkpt lat="44.60844" lon="1.03612">
        <ele>144</ele>
        <time>2012-10-14T08:02:03Z</time>
      </trkpt>
      <trkpt lat="44.60842" lon="1.03582">
        <ele>144</ele>
        <time>2012-10-14T08:02:06Z</time>
      </trkpt>
      <trkpt lat="44.60837" lon="1.03571">
        <ele>144</ele>
        <time>2012-10-14T08:02:11Z</time>
      </trkpt>
      <trkpt lat="44.60827" lon="1.03527">
        <ele>144</ele>
        <time>2012-10-14T08:02:14Z</time>
      </trkpt>
      <trkpt lat="44.60825" lon="1.03512">
        <ele>144</ele>
        <time>2012-10-14T08:02:18Z</time>
      </trkpt>
      <trkpt lat="44.60808" lon="1.03475">
        <ele>144</ele>
        <time>2012-10-14T08:02:21Z</time>
      </trkpt>
      <trkpt lat="44.60799" lon="1.03463">
        <ele>144</ele>
        <time>2012-10-14T08:02:26Z</time>
      </trkpt>
      <trkpt lat="44.60772" lon="1.03418">
        <ele>141</ele>
        <time>2012-10-14T08:02:32Z</time>
      </trkpt>
      <trkpt lat="44.60749" lon="1.03375">
        <ele>138</ele>
        <time>2012-10-14T08:02:39Z</time>
      </trkpt>
      <trkpt lat="44.60744" lon="1.03369">
        <ele>134</ele>
        <time>2012-10-14T08:02:42Z</time>
      </trkpt>
      <trkpt lat="44.60736" lon="1.03372">
        <ele>132</ele>
        <time>2012-10-14T08:02:48Z</time>
      </trkpt>
      <trkpt lat="44.60718" lon="1.03387">
        <ele>130</ele>
        <time>2012-10-14T08:02:51Z</time>
      </trkpt>
      <trkpt lat="44.60712" lon="1.03392">
        <ele>130</ele>
        <time>2012-10-14T08:02:56Z</time>
      </trkpt>
      <trkpt lat="44.60688" lon="1.03409">
        <ele>130</ele>
        <time>2012-10-14T08:03:02Z</time>
      </trkpt>
      <trkpt lat="44.60672" lon="1.0341">
        <ele>130</ele>
        <time>2012-10-14T08:03:05Z</time>
      </trkpt>
      <trkpt lat="44.60664" lon="1.03402">
        <ele>130</ele>
        <time>2012-10-14T08:03:11Z</time>
      </trkpt>
      <trkpt lat="44.60637" lon="1.03396">
        <ele>130</ele>
        <time>2012-10-14T08:03:14Z</time>
      </trkpt>
      <trkpt lat="44.60628" lon="1.03392">
        <ele>130</ele>
        <time>2012-10-14T08:03:18Z</time>
      </trkpt>
      <trkpt lat="44.60619" lon="1.03369">
        <ele>130</ele>
        <time>2012-10-14T08:03:21Z</time>
      </trkpt>
      <trkpt lat="44.60625" lon="1.03355">
        <ele>130</ele>
        <time>2012-10-14T08:03:27Z</time>
      </trkpt>
      <trkpt lat="44.60645" lon="1.03319">
        <ele>130</ele>
        <time>2012-10-14T08:03:34Z</time>
      </trkpt>
      <trkpt lat="44.60659" lon="1.03287">
        <ele>130</ele>
        <time>2012-10-14T08:03:40Z</time>
      </trkpt>
      <trkpt lat="44.60676" lon="1.03247">
        <ele>130</ele>
        <time>2012-10-14T08:03:46Z</time>
      </trkpt>
      <trkpt lat="44.60692" lon="1.03224">
        <ele>130</ele>
        <time>2012-10-14T08:03:49Z</time>
      </trkpt>
      <trkpt lat="44.60704" lon="1.03214">
        <ele>130</ele>
        <time>2012-10-14T08:03:54Z</time>
      </trkpt>
      <trkpt lat="44.60725" lon="1.03208">
        <ele>130</ele>
        <time>2012-10-14T08:03:57Z</time>
      </trkpt>
      <trkpt lat="44.6075" lon="1.03204">
        <ele>130</ele>
        <time>2012-10-14T08:04:02Z</time>
      </trkpt>
      <trkpt lat="44.60763" lon="1.03204">
        <ele>130</ele>
        <time>2012-10-14T08:04:08Z</time>
      </trkpt>
      <trkpt lat="44.60788" lon="1.03214">
        <ele>130</ele>
        <time>2012-10-14T08:04:11Z</time>
      </trkpt>
      <trkpt lat="44.60796" lon="1.03221">
        <ele>130</ele>
        <time>2012-10-14T08:04:16Z</time>
      </trkpt>
      <trkpt lat="44.60829" lon="1.03244">
        <ele>131</ele>
        <time>2012-10-14T08:04:22Z</time>
      </trkpt>
      <trkpt lat="44.60858" lon="1.03259">
        <ele>133</ele>
        <time>2012-10-14T08:04:29Z</time>
      </trkpt>
      <trkpt lat="44.60886" lon="1.03274">
        <ele>136</ele>
        <time>2012-10-14T08:04:35Z</time>
      </trkpt>
      <trkpt lat="44.6091" lon="1.03271">
        <ele>137</ele>
        <time>2012-10-14T08:04:42Z</time>
      </trkpt>
      <trkpt lat="44.60948" lon="1.03264">
        <ele>137</ele>
        <time>2012-10-14T08:04:48Z</time>
      </trkpt>
      <trkpt lat="44.60965" lon="1.03243">
        <ele>137</ele>
        <time>2012-10-14T08:04:51Z</time>
      </trkpt>
      <trkpt lat="44.60973" lon="1.03236">
        <ele>137</ele>
        <time>2012-10-14T08:04:55Z</time>
      </trkpt>
      <trkpt lat="44.6099" lon="1.0322">
        <ele>137</ele>
        <time>2012-10-14T08:04:58Z</time>
      </trkpt>
      <trkpt lat="44.61" lon="1.03212">
        <ele>137</ele>
        <time>2012-10-14T08:05:02Z</time>
      </trkpt>
      <trkpt lat="44.61026" lon="1.0319">
        <ele>137</ele>
        <time>2012-10-14T08:05:09Z</time>
      </trkpt>
      <trkpt lat="44.61057" lon="1.03183">
        <ele>137</ele>
        <time>2012-10-14T08:05:17Z</time>
      </trkpt>
      <trkpt lat="44.61087" lon="1.03193">
        <ele>138</ele>
        <time>2012-10-14T08:05:22Z</time>
      </trkpt>
      <trkpt lat="44.61114" lon="1.03203">
        <ele>138</ele>
        <time>2012-10-14T08:05:29Z</time>
      </trkpt>
      <trkpt lat="44.6114" lon="1.03208">
        <ele>139</ele>
        <time>2012-10-14T08:05:35Z</time>
      </trkpt>
      <trkpt lat="44.61164" lon="1.03205">
        <ele>142</ele>
        <time>2012-10-14T08:05:42Z</time>
      </trkpt>
      <trkpt lat="44.61184" lon="1.03199">
        <ele>144</ele>
        <time>2012-10-14T08:05:44Z</time>
      </trkpt>
      <trkpt lat="44.61196" lon="1.03215">
        <ele>146</ele>
        <time>2012-10-14T08:05:50Z</time>
      </trkpt>
      <trkpt lat="44.61205" lon="1.03226">
        <ele>150</ele>
        <time>2012-10-14T08:05:56Z</time>
      </trkpt>
      <trkpt lat="44.61219" lon="1.03242">
        <ele>153</ele>
        <time>2012-10-14T08:05:59Z</time>
      </trkpt>
      <trkpt lat="44.61221" lon="1.03254">
        <ele>155</ele>
        <time>2012-10-14T08:06:05Z</time>
      </trkpt>
      <trkpt lat="44.61227" lon="1.03276">
        <ele>155</ele>
        <time>2012-10-14T08:06:11Z</time>
      </trkpt>
      <trkpt lat="44.61245" lon="1.03271">
        <ele>154</ele>
        <time>2012-10-14T08:06:14Z</time>
      </trkpt>
      <trkpt lat="44.6125" lon="1.03268">
        <ele>154</ele>
        <time>2012-10-14T08:06:19Z</time>
      </trkpt>
      <trkpt lat="44.61268" lon="1.03259">
        <ele>154</ele>
        <time>2012-10-14T08:06:26Z</time>
      </trkpt>
      <trkpt lat="44.61283" lon="1.0325">
        <ele>156</ele>
        <time>2012-10-14T08:06:32Z</time>
      </trkpt>
      <trkpt lat="44.61298" lon="1.03245">
        <ele>159</ele>
        <time>2012-10-14T08:06:39Z</time>
      </trkpt>
      <trkpt lat="44.6131" lon="1.03249">
        <ele>159</ele>
        <time>2012-10-14T08:06:41Z</time>
      </trkpt>
      <trkpt lat="44.61318" lon="1.03255">
        <ele>159</ele>
        <time>2012-10-14T08:06:46Z</time>
      </trkpt>
      <trkpt lat="44.61332" lon="1.03269">
        <ele>159</ele>
        <time>2012-10-14T08:06:53Z</time>
      </trkpt>
      <trkpt lat="44.61348" lon="1.03274">
        <ele>159</ele>
        <time>2012-10-14T08:06:56Z</time>
      </trkpt>
      <trkpt lat="44.61354" lon="1.03273">
        <ele>159</ele>
        <time>2012-10-14T08:07:01Z</time>
      </trkpt>
      <trkpt lat="44.61363" lon="1.03269">
        <ele>159</ele>
        <time>2012-10-14T08:07:03Z</time>
      </trkpt>
      <trkpt lat="44.61374" lon="1.0326">
        <ele>160</ele>
        <time>2012-10-14T08:07:10Z</time>
      </trkpt>
      <trkpt lat="44.61379" lon="1.03256">
        <ele>160</ele>
        <time>2012-10-14T08:07:15Z</time>
      </trkpt>
      <trkpt lat="44.61385" lon="1.03251">
        <ele>160</ele>
        <time>2012-10-14T08:07:17Z</time>
      </trkpt>
      <trkpt lat="44.61388" lon="1.03248">
        <ele>160</ele>
        <time>2012-10-14T08:07:22Z</time>
      </trkpt>
      <trkpt lat="44.61392" lon="1.03246">
        <ele>158</ele>
        <time>2012-10-14T08:07:25Z</time>
      </trkpt>
      <trkpt lat="44.61394" lon="1.03247">
        <ele>158</ele>
        <time>2012-10-14T08:07:30Z</time>
      </trkpt>
      <trkpt lat="44.61399" lon="1.0325">
        <ele>158</ele>
        <time>2012-10-14T08:07:38Z</time>
      </trkpt>
      <trkpt lat="44.61399" lon="1.03252">
        <ele>161</ele>
        <time>2012-10-14T08:07:41Z</time>
      </trkpt>
      <trkpt lat="44.61401" lon="1.03252">
        <ele>162</ele>
        <time>2012-10-14T08:07:46Z</time>
      </trkpt>
      <trkpt lat="44.61396" lon="1.0325">
        <ele>163</ele>
        <time>2012-10-14T08:07:54Z</time>
      </trkpt>
      <trkpt lat="44.61402" lon="1.03238">
        <ele>163</ele>
        <time>2012-10-14T08:08:02Z</time>
      </trkpt>
      <trkpt lat="44.61407" lon="1.03232">
        <ele>163</ele>
        <time>2012-10-14T08:08:07Z</time>
      </trkpt>
      <trkpt lat="44.61417" lon="1.03212">
        <ele>160</ele>
        <time>2012-10-14T08:08:14Z</time>
      </trkpt>
      <trkpt lat="44.61434" lon="1.03191">
        <ele>161</ele>
        <time>2012-10-14T08:08:17Z</time>
      </trkpt>
      <trkpt lat="44.61441" lon="1.03189">
        <ele>162</ele>
        <time>2012-10-14T08:08:22Z</time>
      </trkpt>
      <trkpt lat="44.6146" lon="1.03184">
        <ele>164</ele>
        <time>2012-10-14T08:08:24Z</time>
      </trkpt>
      <trkpt lat="44.61473" lon="1.03192">
        <ele>167</ele>
        <time>2012-10-14T08:08:31Z</time>
      </trkpt>
      <trkpt lat="44.61481" lon="1.0322">
        <ele>169</ele>
        <time>2012-10-14T08:08:34Z</time>
      </trkpt>
      <trkpt lat="44.61483" lon="1.03228">
        <ele>169</ele>
        <time>2012-10-14T08:08:39Z</time>
      </trkpt>
      <trkpt lat="44.6149" lon="1.03259">
        <ele>169</ele>
        <time>2012-10-14T08:08:45Z</time>
      </trkpt>
      <trkpt lat="44.61504" lon="1.03275">
        <ele>166</ele>
        <time>2012-10-14T08:08:48Z</time>
      </trkpt>
      <trkpt lat="44.61512" lon="1.03278">
        <ele>165</ele>
        <time>2012-10-14T08:08:52Z</time>
      </trkpt>
      <trkpt lat="44.61527" lon="1.03281">
        <ele>162</ele>
        <time>2012-10-14T08:08:55Z</time>
      </trkpt>
      <trkpt lat="44.61543" lon="1.03264">
        <ele>162</ele>
        <time>2012-10-14T08:09:01Z</time>
      </trkpt>
      <trkpt lat="44.61545" lon="1.03258">
        <ele>162</ele>
        <time>2012-10-14T08:09:03Z</time>
      </trkpt>
      <trkpt lat="44.61546" lon="1.03252">
        <ele>162</ele>
        <time>2012-10-14T08:09:08Z</time>
      </trkpt>
      <trkpt lat="44.61545" lon="1.03237">
        <ele>162</ele>
        <time>2012-10-14T08:09:10Z</time>
      </trkpt>
      <trkpt lat="44.61546" lon="1.03214">
        <ele>162</ele>
        <time>2012-10-14T08:09:16Z</time>
      </trkpt>
      <trkpt lat="44.61547" lon="1.03206">
        <ele>162</ele>
        <time>2012-10-14T08:09:18Z</time>
      </trkpt>
      <trkpt lat="44.61549" lon="1.03185">
        <ele>162</ele>
        <time>2012-10-14T08:09:23Z</time>
      </trkpt>
      <trkpt lat="44.61551" lon="1.03172">
        <ele>164</ele>
        <time>2012-10-14T08:09:29Z</time>
      </trkpt>
      <trkpt lat="44.61558" lon="1.03142">
        <ele>170</ele>
        <time>2012-10-14T08:09:32Z</time>
      </trkpt>
      <trkpt lat="44.61562" lon="1.03135">
        <ele>173</ele>
        <time>2012-10-14T08:09:36Z</time>
      </trkpt>
      <trkpt lat="44.61573" lon="1.03118">
        <ele>182</ele>
        <time>2012-10-14T08:09:39Z</time>
      </trkpt>
      <trkpt lat="44.61578" lon="1.03109">
        <ele>185</ele>
        <time>2012-10-14T08:09:44Z</time>
      </trkpt>
      <trkpt lat="44.6159" lon="1.03081">
        <ele>191</ele>
        <time>2012-10-14T08:09:50Z</time>
      </trkpt>
      <trkpt lat="44.61594" lon="1.03063">
        <ele>194</ele>
        <time>2012-10-14T08:09:53Z</time>
      </trkpt>
      <trkpt lat="44.61595" lon="1.03055">
        <ele>194</ele>
        <time>2012-10-14T08:09:58Z</time>
      </trkpt>
      <trkpt lat="44.616" lon="1.0303">
        <ele>194</ele>
        <time>2012-10-14T08:10:04Z</time>
      </trkpt>
      <trkpt lat="44.6161" lon="1.03006">
        <ele>194</ele>
        <time>2012-10-14T08:10:11Z</time>
      </trkpt>
      <trkpt lat="44.6162" lon="1.02994">
        <ele>194</ele>
        <time>2012-10-14T08:10:13Z</time>
      </trkpt>
      <trkpt lat="44.61624" lon="1.02984">
        <ele>194</ele>
        <time>2012-10-14T08:10:18Z</time>
      </trkpt>
      <trkpt lat="44.61639" lon="1.02972">
        <ele>194</ele>
        <time>2012-10-14T08:10:20Z</time>
      </trkpt>
      <trkpt lat="44.61652" lon="1.02964">
        <ele>192</ele>
        <time>2012-10-14T08:10:26Z</time>
      </trkpt>
      <trkpt lat="44.61677" lon="1.02952">
        <ele>189</ele>
        <time>2012-10-14T08:10:32Z</time>
      </trkpt>
      <trkpt lat="44.61693" lon="1.02951">
        <ele>186</ele>
        <time>2012-10-14T08:10:35Z</time>
      </trkpt>
      <trkpt lat="44.61699" lon="1.02951">
        <ele>185</ele>
        <time>2012-10-14T08:10:39Z</time>
      </trkpt>
      <trkpt lat="44.61711" lon="1.02948">
        <ele>183</ele>
        <time>2012-10-14T08:10:42Z</time>
      </trkpt>
      <trkpt lat="44.61715" lon="1.02944">
        <ele>183</ele>
        <time>2012-10-14T08:10:47Z</time>
      </trkpt>
      <trkpt lat="44.61734" lon="1.0292">
        <ele>183</ele>
        <time>2012-10-14T08:10:53Z</time>
      </trkpt>
      <trkpt lat="44.61744" lon="1.02909">
        <ele>183</ele>
        <time>2012-10-14T08:10:56Z</time>
      </trkpt>
      <trkpt lat="44.61748" lon="1.02904">
        <ele>183</ele>
        <time>2012-10-14T08:11:00Z</time>
      </trkpt>
      <trkpt lat="44.61755" lon="1.02891">
        <ele>182</ele>
        <time>2012-10-14T08:11:03Z</time>
      </trkpt>
      <trkpt lat="44.61758" lon="1.02886">
        <ele>181</ele>
        <time>2012-10-14T08:11:08Z</time>
      </trkpt>
      <trkpt lat="44.61768" lon="1.02862">
        <ele>177</ele>
        <time>2012-10-14T08:11:16Z</time>
      </trkpt>
      <trkpt lat="44.61778" lon="1.02833">
        <ele>175</ele>
        <time>2012-10-14T08:11:18Z</time>
      </trkpt>
      <trkpt lat="44.61782" lon="1.02823">
        <ele>175</ele>
        <time>2012-10-14T08:11:23Z</time>
      </trkpt>
      <trkpt lat="44.61795" lon="1.02805">
        <ele>177</ele>
        <time>2012-10-14T08:11:30Z</time>
      </trkpt>
      <trkpt lat="44.61808" lon="1.02783">
        <ele>180</ele>
        <time>2012-10-14T08:11:36Z</time>
      </trkpt>
      <trkpt lat="44.6182" lon="1.02771">
        <ele>183</ele>
        <time>2012-10-14T08:11:39Z</time>
      </trkpt>
      <trkpt lat="44.61827" lon="1.02766">
        <ele>184</ele>
        <time>2012-10-14T08:11:44Z</time>
      </trkpt>
      <trkpt lat="44.61846" lon="1.02745">
        <ele>187</ele>
        <time>2012-10-14T08:11:51Z</time>
      </trkpt>
      <trkpt lat="44.61866" lon="1.02726">
        <ele>190</ele>
        <time>2012-10-14T08:11:57Z</time>
      </trkpt>
      <trkpt lat="44.61877" lon="1.02709">
        <ele>193</ele>
        <time>2012-10-14T08:12:00Z</time>
      </trkpt>
      <trkpt lat="44.61886" lon="1.02685">
        <ele>193</ele>
        <time>2012-10-14T08:12:06Z</time>
      </trkpt>
      <trkpt lat="44.61895" lon="1.02654">
        <ele>195</ele>
        <time>2012-10-14T08:12:12Z</time>
      </trkpt>
      <trkpt lat="44.61901" lon="1.02642">
        <ele>197</ele>
        <time>2012-10-14T08:12:18Z</time>
      </trkpt>
      <trkpt lat="44.61917" lon="1.02628">
        <ele>197</ele>
        <time>2012-10-14T08:12:20Z</time>
      </trkpt>
      <trkpt lat="44.61928" lon="1.02623">
        <ele>197</ele>
        <time>2012-10-14T08:12:26Z</time>
      </trkpt>
      <trkpt lat="44.61928" lon="1.02619">
        <ele>197</ele>
        <time>2012-10-14T08:12:34Z</time>
      </trkpt>
      <trkpt lat="44.61925" lon="1.02619">
        <ele>197</ele>
        <time>2012-10-14T08:12:42Z</time>
      </trkpt>
      <trkpt lat="44.6193" lon="1.02619">
        <ele>196</ele>
        <time>2012-10-14T08:12:50Z</time>
      </trkpt>
      <trkpt lat="44.61933" lon="1.02625">
        <ele>196</ele>
        <time>2012-10-14T08:12:58Z</time>
      </trkpt>
      <trkpt lat="44.61925" lon="1.02619">
        <ele>196</ele>
        <time>2012-10-14T08:13:06Z</time>
      </trkpt>
      <trkpt lat="44.61924" lon="1.02617">
        <ele>195</ele>
        <time>2012-10-14T08:13:08Z</time>
      </trkpt>
      <trkpt lat="44.61926" lon="1.02618">
        <ele>193</ele>
        <time>2012-10-14T08:13:14Z</time>
      </trkpt>
      <trkpt lat="44.61926" lon="1.0261">
        <ele>184</ele>
        <time>2012-10-14T08:13:22Z</time>
      </trkpt>
      <trkpt lat="44.61921" lon="1.02604">
        <ele>180</ele>
        <time>2012-10-14T08:13:28Z</time>
      </trkpt>
      <trkpt lat="44.61912" lon="1.02593">
        <ele>175</ele>
        <time>2012-10-14T08:13:31Z</time>
      </trkpt>
      <trkpt lat="44.61909" lon="1.02589">
        <ele>174</ele>
        <time>2012-10-14T08:13:36Z</time>
      </trkpt>
      <trkpt lat="44.61908" lon="1.02581">
        <ele>173</ele>
        <time>2012-10-14T08:13:43Z</time>
      </trkpt>
      <trkpt lat="44.61903" lon="1.0257">
        <ele>173</ele>
        <time>2012-10-14T08:13:50Z</time>
      </trkpt>
      <trkpt lat="44.61901" lon="1.02561">
        <ele>173</ele>
        <time>2012-10-14T08:13:52Z</time>
      </trkpt>
      <trkpt lat="44.61897" lon="1.02543">
        <ele>173</ele>
        <time>2012-10-14T08:13:59Z</time>
      </trkpt>
      <trkpt lat="44.61893" lon="1.02535">
        <ele>171</ele>
        <time>2012-10-14T08:14:05Z</time>
      </trkpt>
      <trkpt lat="44.61881" lon="1.02506">
        <ele>169</ele>
        <time>2012-10-14T08:14:12Z</time>
      </trkpt>
      <trkpt lat="44.61878" lon="1.02504">
        <ele>169</ele>
        <time>2012-10-14T08:14:14Z</time>
      </trkpt>
      <trkpt lat="44.61874" lon="1.02504">
        <ele>170</ele>
        <time>2012-10-14T08:14:19Z</time>
      </trkpt>
      <trkpt lat="44.61863" lon="1.02502">
        <ele>174</ele>
        <time>2012-10-14T08:14:26Z</time>
      </trkpt>
      <trkpt lat="44.61853" lon="1.02499">
        <ele>177</ele>
        <time>2012-10-14T08:14:29Z</time>
      </trkpt>
      <trkpt lat="44.61845" lon="1.02495">
        <ele>177</ele>
        <time>2012-10-14T08:14:34Z</time>
      </trkpt>
      <trkpt lat="44.61837" lon="1.02491">
        <ele>177</ele>
        <time>2012-10-14T08:14:40Z</time>
      </trkpt>
      <trkpt lat="44.61829" lon="1.02487">
        <ele>177</ele>
        <time>2012-10-14T08:14:43Z</time>
      </trkpt>
      <trkpt lat="44.61826" lon="1.02485">
        <ele>177</ele>
        <time>2012-10-14T08:14:48Z</time>
      </trkpt>
      <trkpt lat="44.61817" lon="1.0248">
        <ele>177</ele>
        <time>2012-10-14T08:14:51Z</time>
      </trkpt>
      <trkpt lat="44.61814" lon="1.02478">
        <ele>177</ele>
        <time>2012-10-14T08:14:56Z</time>
      </trkpt>
      <trkpt lat="44.61802" lon="1.02471">
        <ele>180</ele>
        <time>2012-10-14T08:15:03Z</time>
      </trkpt>
      <trkpt lat="44.61792" lon="1.02466">
        <ele>183</ele>
        <time>2012-10-14T08:15:06Z</time>
      </trkpt>
      <trkpt lat="44.61788" lon="1.02464">
        <ele>184</ele>
        <time>2012-10-14T08:15:11Z</time>
      </trkpt>
      <trkpt lat="44.61781" lon="1.02455">
        <ele>187</ele>
        <time>2012-10-14T08:15:14Z</time>
      </trkpt>
      <trkpt lat="44.61777" lon="1.02451">
        <ele>188</ele>
        <time>2012-10-14T08:15:19Z</time>
      </trkpt>
      <trkpt lat="44.6177" lon="1.02444">
        <ele>190</ele>
        <time>2012-10-14T08:15:21Z</time>
      </trkpt>
      <trkpt lat="44.61767" lon="1.02444">
        <ele>190</ele>
        <time>2012-10-14T08:15:27Z</time>
      </trkpt>
      <trkpt lat="44.61758" lon="1.02441">
        <ele>190</ele>
        <time>2012-10-14T08:15:33Z</time>
      </trkpt>
      <trkpt lat="44.61748" lon="1.02438">
        <ele>190</ele>
        <time>2012-10-14T08:15:40Z</time>
      </trkpt>
      <trkpt lat="44.6174" lon="1.02437">
        <ele>190</ele>
        <time>2012-10-14T08:15:42Z</time>
      </trkpt>
      <trkpt lat="44.61739" lon="1.02435">
        <ele>190</ele>
        <time>2012-10-14T08:15:47Z</time>
      </trkpt>
      <trkpt lat="44.61726" lon="1.02434">
        <ele>190</ele>
        <time>2012-10-14T08:15:55Z</time>
      </trkpt>
      <trkpt lat="44.61718" lon="1.02432">
        <ele>190</ele>
        <time>2012-10-14T08:15:57Z</time>
      </trkpt>
      <trkpt lat="44.61715" lon="1.02431">
        <ele>190</ele>
        <time>2012-10-14T08:16:03Z</time>
      </trkpt>
      <trkpt lat="44.61706" lon="1.02429">
        <ele>191</ele>
        <time>2012-10-14T08:16:05Z</time>
      </trkpt>
      <trkpt lat="44.61702" lon="1.02427">
        <ele>191</ele>
        <time>2012-10-14T08:16:10Z</time>
      </trkpt>
      <trkpt lat="44.61693" lon="1.02425">
        <ele>193</ele>
        <time>2012-10-14T08:16:16Z</time>
      </trkpt>
      <trkpt lat="44.61681" lon="1.02426">
        <ele>195</ele>
        <time>2012-10-14T08:16:23Z</time>
      </trkpt>
      <trkpt lat="44.61672" lon="1.02426">
        <ele>196</ele>
        <time>2012-10-14T08:16:25Z</time>
      </trkpt>
      <trkpt lat="44.61668" lon="1.02427">
        <ele>197</ele>
        <time>2012-10-14T08:16:31Z</time>
      </trkpt>
      <trkpt lat="44.6166" lon="1.02431">
        <ele>199</ele>
        <time>2012-10-14T08:16:37Z</time>
      </trkpt>
      <trkpt lat="44.61652" lon="1.02432">
        <ele>201</ele>
        <time>2012-10-14T08:16:39Z</time>
      </trkpt>
      <trkpt lat="44.61647" lon="1.02431">
        <ele>202</ele>
        <time>2012-10-14T08:16:44Z</time>
      </trkpt>
      <trkpt lat="44.61639" lon="1.02434">
        <ele>204</ele>
        <time>2012-10-14T08:16:54Z</time>
      </trkpt>
      <trkpt lat="44.61637" lon="1.02433">
        <ele>206</ele>
        <time>2012-10-14T08:17:01Z</time>
      </trkpt>
      <trkpt lat="44.61634" lon="1.02431">
        <ele>207</ele>
        <time>2012-10-14T08:17:09Z</time>
      </trkpt>
      <trkpt lat="44.61633" lon="1.0243">
        <ele>208</ele>
        <time>2012-10-14T08:17:15Z</time>
      </trkpt>
      <trkpt lat="44.61633" lon="1.02428">
        <ele>209</ele>
        <time>2012-10-14T08:17:18Z</time>
      </trkpt>
      <trkpt lat="44.61634" lon="1.02426">
        <ele>212</ele>
        <time>2012-10-14T08:17:23Z</time>
      </trkpt>
      <trkpt lat="44.61634" lon="1.02425">
        <ele>214</ele>
        <time>2012-10-14T08:17:26Z</time>
      </trkpt>
      <trkpt lat="44.61636" lon="1.02425">
        <ele>217</ele>
        <time>2012-10-14T08:17:30Z</time>
      </trkpt>
      <trkpt lat="44.61637" lon="1.02426">
        <ele>217</ele>
        <time>2012-10-14T08:17:33Z</time>
      </trkpt>
      <trkpt lat="44.61635" lon="1.02426">
        <ele>217</ele>
        <time>2012-10-14T08:17:40Z</time>
      </trkpt>
      <trkpt lat="44.61634" lon="1.02426">
        <ele>215</ele>
        <time>2012-10-14T08:17:43Z</time>
      </trkpt>
      <trkpt lat="44.61635" lon="1.02427">
        <ele>213</ele>
        <time>2012-10-14T08:17:46Z</time>
      </trkpt>
      <trkpt lat="44.61633" lon="1.02425">
        <ele>210</ele>
        <time>2012-10-14T08:17:52Z</time>
      </trkpt>
      <trkpt lat="44.61631" lon="1.02424">
        <ele>208</ele>
        <time>2012-10-14T08:17:54Z</time>
      </trkpt>
      <trkpt lat="44.61633" lon="1.02426">
        <ele>204</ele>
        <time>2012-10-14T08:18:03Z</time>
      </trkpt>
      <trkpt lat="44.61633" lon="1.02427">
        <ele>204</ele>
        <time>2012-10-14T08:18:08Z</time>
      </trkpt>
      <trkpt lat="44.61634" lon="1.02429">
        <ele>203</ele>
        <time>2012-10-14T08:18:13Z</time>
      </trkpt>
      <trkpt lat="44.61633" lon="1.02429">
        <ele>203</ele>
        <time>2012-10-14T08:18:16Z</time>
      </trkpt>
      <trkpt lat="44.61631" lon="1.02429">
        <ele>203</ele>
        <time>2012-10-14T08:18:20Z</time>
      </trkpt>
      <trkpt lat="44.61632" lon="1.0243">
        <ele>203</ele>
        <time>2012-10-14T08:18:23Z</time>
      </trkpt>
      <trkpt lat="44.61633" lon="1.0243">
        <ele>203</ele>
        <time>2012-10-14T08:18:25Z</time>
      </trkpt>
      <trkpt lat="44.61634" lon="1.0243">
        <ele>206</ele>
        <time>2012-10-14T08:18:30Z</time>
      </trkpt>
      <trkpt lat="44.61633" lon="1.0243">
        <ele>206</ele>
        <time>2012-10-14T08:18:37Z</time>
      </trkpt>
      <trkpt lat="44.61633" lon="1.02431">
        <ele>209</ele>
        <time>2012-10-14T08:18:42Z</time>
      </trkpt>
      <trkpt lat="44.61634" lon="1.02433">
        <ele>213</ele>
        <time>2012-10-14T08:18:47Z</time>
      </trkpt>
      <trkpt lat="44.61636" lon="1.02433">
        <ele>216</ele>
        <time>2012-10-14T08:18:54Z</time>
      </trkpt>
      <trkpt lat="44.61637" lon="1.02431">
        <ele>216</ele>
        <time>2012-10-14T08:19:03Z</time>
      </trkpt>
      <trkpt lat="44.61634" lon="1.0243">
        <ele>216</ele>
        <time>2012-10-14T08:19:13Z</time>
      </trkpt>
      <trkpt lat="44.6163" lon="1.02429">
        <ele>216</ele>
        <time>2012-10-14T08:19:15Z</time>
      </trkpt>
      <trkpt lat="44.61625" lon="1.02427">
        <ele>216</ele>
        <time>2012-10-14T08:19:17Z</time>
      </trkpt>
      <trkpt lat="44.6162" lon="1.02425">
        <ele>216</ele>
        <time>2012-10-14T08:19:19Z</time>
      </trkpt>
      <trkpt lat="44.61615" lon="1.02424">
        <ele>215</ele>
        <time>2012-10-14T08:19:21Z</time>
      </trkpt>
      <trkpt lat="44.61611" lon="1.02423">
        <ele>213</ele>
        <time>2012-10-14T08:19:23Z</time>
      </trkpt>
      <trkpt lat="44.61606" lon="1.02421">
        <ele>212</ele>
        <time>2012-10-14T08:19:25Z</time>
      </trkpt>
      <trkpt lat="44.61602" lon="1.0242">
        <ele>211</ele>
        <time>2012-10-14T08:19:27Z</time>
      </trkpt>
      <trkpt lat="44.61597" lon="1.02418">
        <ele>210</ele>
        <time>2012-10-14T08:19:29Z</time>
      </trkpt>
      <trkpt lat="44.61593" lon="1.02417">
        <ele>209</ele>
        <time>2012-10-14T08:19:31Z</time>
      </trkpt>
      <trkpt lat="44.61589" lon="1.02416">
        <ele>209</ele>
        <time>2012-10-14T08:19:33Z</time>
      </trkpt>
      <trkpt lat="44.61584" lon="1.02414">
        <ele>209</ele>
        <time>2012-10-14T08:19:35Z</time>
      </trkpt>
      <trkpt lat="44.6158" lon="1.02413">
        <ele>209</ele>
        <time>2012-10-14T08:19:37Z</time>
      </trkpt>
      <trkpt lat="44.61576" lon="1.02413">
        <ele>209</ele>
        <time>2012-10-14T08:19:39Z</time>
      </trkpt>
      <trkpt lat="44.61572" lon="1.02412">
        <ele>209</ele>
        <time>2012-10-14T08:19:41Z</time>
      </trkpt>
      <trkpt lat="44.61569" lon="1.0241">
        <ele>209</ele>
        <time>2012-10-14T08:19:43Z</time>
      </trkpt>
      <trkpt lat="44.61564" lon="1.02408">
        <ele>209</ele>
        <time>2012-10-14T08:19:45Z</time>
      </trkpt>
      <trkpt lat="44.61558" lon="1.02406">
        <ele>209</ele>
        <time>2012-10-14T08:19:47Z</time>
      </trkpt>
      <trkpt lat="44.61553" lon="1.02402">
        <ele>209</ele>
        <time>2012-10-14T08:19:49Z</time>
      </trkpt>
      <trkpt lat="44.6155" lon="1.02399">
        <ele>209</ele>
        <time>2012-10-14T08:19:51Z</time>
      </trkpt>
      <trkpt lat="44.61546" lon="1.02396">
        <ele>208</ele>
        <time>2012-10-14T08:19:53Z</time>
      </trkpt>
      <trkpt lat="44.61543" lon="1.02394">
        <ele>207</ele>
        <time>2012-10-14T08:19:55Z</time>
      </trkpt>
      <trkpt lat="44.61538" lon="1.02392">
        <ele>207</ele>
        <time>2012-10-14T08:19:57Z</time>
      </trkpt>
      <trkpt lat="44.61534" lon="1.02389">
        <ele>207</ele>
        <time>2012-10-14T08:19:59Z</time>
      </trkpt>
      <trkpt lat="44.6153" lon="1.02385">
        <ele>207</ele>
        <time>2012-10-14T08:20:01Z</time>
      </trkpt>
      <trkpt lat="44.61525" lon="1.02382">
        <ele>207</ele>
        <time>2012-10-14T08:20:03Z</time>
      </trkpt>
      <trkpt lat="44.6152" lon="1.02379">
        <ele>207</ele>
        <time>2012-10-14T08:20:05Z</time>
      </trkpt>
      <trkpt lat="44.61515" lon="1.02377">
        <ele>207</ele>
        <time>2012-10-14T08:20:07Z</time>
      </trkpt>
      <trkpt lat="44.6151" lon="1.02375">
        <ele>207</ele>
        <time>2012-10-14T08:20:09Z</time>
      </trkpt>
      <trkpt lat="44.61505" lon="1.02373">
        <ele>207</ele>
        <time>2012-10-14T08:20:11Z</time>
      </trkpt>
      <trkpt lat="44.615" lon="1.02373">
        <ele>208</ele>
        <time>2012-10-14T08:20:13Z</time>
      </trkpt>
      <trkpt lat="44.61495" lon="1.02374">
        <ele>209</ele>
        <time>2012-10-14T08:20:15Z</time>
      </trkpt>
      <trkpt lat="44.6149" lon="1.02375">
        <ele>210</ele>
        <time>2012-10-14T08:20:17Z</time>
      </trkpt>
      <trkpt lat="44.61486" lon="1.02377">
        <ele>211</ele>
        <time>2012-10-14T08:20:19Z</time>
      </trkpt>
      <trkpt lat="44.61482" lon="1.02378">
        <ele>212</ele>
        <time>2012-10-14T08:20:21Z</time>
      </trkpt>
      <trkpt lat="44.61478" lon="1.02379">
        <ele>214</ele>
        <time>2012-10-14T08:20:23Z</time>
      </trkpt>
      <trkpt lat="44.61472" lon="1.02379">
        <ele>216</ele>
        <time>2012-10-14T08:20:25Z</time>
      </trkpt>
      <trkpt lat="44.61467" lon="1.0238">
        <ele>218</ele>
        <time>2012-10-14T08:20:27Z</time>
      </trkpt>
      <trkpt lat="44.61459" lon="1.02379">
        <ele>220</ele>
        <time>2012-10-14T08:20:29Z</time>
      </trkpt>
      <trkpt lat="44.61453" lon="1.02378">
        <ele>220</ele>
        <time>2012-10-14T08:20:31Z</time>
      </trkpt>
      <trkpt lat="44.61448" lon="1.02376">
        <ele>220</ele>
        <time>2012-10-14T08:20:33Z</time>
      </trkpt>
      <trkpt lat="44.61445" lon="1.02376">
        <ele>220</ele>
        <time>2012-10-14T08:20:35Z</time>
      </trkpt>
      <trkpt lat="44.61442" lon="1.02377">
        <ele>220</ele>
        <time>2012-10-14T08:20:37Z</time>
      </trkpt>
      <trkpt lat="44.61438" lon="1.02378">
        <ele>220</ele>
        <time>2012-10-14T08:20:39Z</time>
      </trkpt>
      <trkpt lat="44.61434" lon="1.02379">
        <ele>222</ele>
        <time>2012-10-14T08:20:41Z</time>
      </trkpt>
      <trkpt lat="44.61428" lon="1.02382">
        <ele>223</ele>
        <time>2012-10-14T08:20:43Z</time>
      </trkpt>
      <trkpt lat="44.61424" lon="1.02383">
        <ele>224</ele>
        <time>2012-10-14T08:20:45Z</time>
      </trkpt>
      <trkpt lat="44.61419" lon="1.02384">
        <ele>225</ele>
        <time>2012-10-14T08:20:47Z</time>
      </trkpt>
      <trkpt lat="44.61415" lon="1.02386">
        <ele>226</ele>
        <time>2012-10-14T08:20:49Z</time>
      </trkpt>
      <trkpt lat="44.6141" lon="1.02389">
        <ele>227</ele>
        <time>2012-10-14T08:20:51Z</time>
      </trkpt>
      <trkpt lat="44.61404" lon="1.02392">
        <ele>228</ele>
        <time>2012-10-14T08:20:53Z</time>
      </trkpt>
      <trkpt lat="44.614" lon="1.02395">
        <ele>230</ele>
        <time>2012-10-14T08:20:55Z</time>
      </trkpt>
      <trkpt lat="44.61396" lon="1.02398">
        <ele>232</ele>
        <time>2012-10-14T08:20:57Z</time>
      </trkpt>
      <trkpt lat="44.61392" lon="1.024">
        <ele>233</ele>
        <time>2012-10-14T08:20:59Z</time>
      </trkpt>
      <trkpt lat="44.61388" lon="1.02401">
        <ele>234</ele>
        <time>2012-10-14T08:21:01Z</time>
      </trkpt>
      <trkpt lat="44.61384" lon="1.02403">
        <ele>234</ele>
        <time>2012-10-14T08:21:03Z</time>
      </trkpt>
      <trkpt lat="44.61379" lon="1.02405">
        <ele>234</ele>
        <time>2012-10-14T08:21:05Z</time>
      </trkpt>
      <trkpt lat="44.61376" lon="1.02406">
        <ele>234</ele>
        <time>2012-10-14T08:21:07Z</time>
      </trkpt>
      <trkpt lat="44.61372" lon="1.02407">
        <ele>234</ele>
        <time>2012-10-14T08:21:09Z</time>
      </trkpt>
      <trkpt lat="44.61368" lon="1.02409">
        <ele>234</ele>
        <time>2012-10-14T08:21:11Z</time>
      </trkpt>
      <trkpt lat="44.61363" lon="1.0241">
        <ele>234</ele>
        <time>2012-10-14T08:21:13Z</time>
      </trkpt>
      <trkpt lat="44.61357" lon="1.02408">
        <ele>234</ele>
        <time>2012-10-14T08:21:15Z</time>
      </trkpt>
      <trkpt lat="44.61353" lon="1.02407">
        <ele>234</ele>
        <time>2012-10-14T08:21:17Z</time>
      </trkpt>
      <trkpt lat="44.61349" lon="1.02406">
        <ele>234</ele>
        <time>2012-10-14T08:21:19Z</time>
      </trkpt>
      <trkpt lat="44.61346" lon="1.02406">
        <ele>234</ele>
        <time>2012-10-14T08:21:22Z</time>
      </trkpt>
      <trkpt lat="44.61345" lon="1.02406">
        <ele>234</ele>
        <time>2012-10-14T08:21:27Z</time>
      </trkpt>
      <trkpt lat="44.61343" lon="1.02404">
        <ele>234</ele>
        <time>2012-10-14T08:21:30Z</time>
      </trkpt>
      <trkpt lat="44.61345" lon="1.02405">
        <ele>233</ele>
        <time>2012-10-14T08:21:33Z</time>
      </trkpt>
      <trkpt lat="44.61343" lon="1.02403">
        <ele>232</ele>
        <time>2012-10-14T08:21:43Z</time>
      </trkpt>
      <trkpt lat="44.61345" lon="1.02404">
        <ele>232</ele>
        <time>2012-10-14T08:21:48Z</time>
      </trkpt>
      <trkpt lat="44.61346" lon="1.02404">
        <ele>232</ele>
        <time>2012-10-14T08:21:50Z</time>
      </trkpt>
      <trkpt lat="44.61347" lon="1.02405">
        <ele>232</ele>
        <time>2012-10-14T08:21:53Z</time>
      </trkpt>
      <trkpt lat="44.61346" lon="1.02404">
        <ele>232</ele>
        <time>2012-10-14T08:21:58Z</time>
      </trkpt>
      <trkpt lat="44.61348" lon="1.02406">
        <ele>233</ele>
        <time>2012-10-14T08:22:01Z</time>
      </trkpt>
      <trkpt lat="44.6135" lon="1.02407">
        <ele>233</ele>
        <time>2012-10-14T08:22:03Z</time>
      </trkpt>
      <trkpt lat="44.61351" lon="1.02407">
        <ele>233</ele>
        <time>2012-10-14T08:22:09Z</time>
      </trkpt>
      <trkpt lat="44.6135" lon="1.02406">
        <ele>233</ele>
        <time>2012-10-14T08:22:15Z</time>
      </trkpt>
      <trkpt lat="44.61349" lon="1.02406">
        <ele>233</ele>
        <time>2012-10-14T08:22:19Z</time>
      </trkpt>
      <trkpt lat="44.61348" lon="1.02405">
        <ele>233</ele>
        <time>2012-10-14T08:22:26Z</time>
      </trkpt>
      <trkpt lat="44.61349" lon="1.02403">
        <ele>233</ele>
        <time>2012-10-14T08:22:30Z</time>
      </trkpt>
      <trkpt lat="44.6135" lon="1.024">
        <ele>233</ele>
        <time>2012-10-14T08:22:32Z</time>
      </trkpt>
      <trkpt lat="44.61351" lon="1.02395">
        <ele>233</ele>
        <time>2012-10-14T08:22:34Z</time>
      </trkpt>
      <trkpt lat="44.61352" lon="1.0239">
        <ele>235</ele>
        <time>2012-10-14T08:22:36Z</time>
      </trkpt>
      <trkpt lat="44.61353" lon="1.02384">
        <ele>237</ele>
        <time>2012-10-14T08:22:38Z</time>
      </trkpt>
      <trkpt lat="44.61354" lon="1.02379">
        <ele>237</ele>
        <time>2012-10-14T08:22:40Z</time>
      </trkpt>
      <trkpt lat="44.61354" lon="1.02373">
        <ele>238</ele>
        <time>2012-10-14T08:22:42Z</time>
      </trkpt>
      <trkpt lat="44.61355" lon="1.02366">
        <ele>240</ele>
        <time>2012-10-14T08:22:44Z</time>
      </trkpt>
      <trkpt lat="44.61356" lon="1.0236">
        <ele>241</ele>
        <time>2012-10-14T08:22:46Z</time>
      </trkpt>
      <trkpt lat="44.61357" lon="1.02355">
        <ele>242</ele>
        <time>2012-10-14T08:22:48Z</time>
      </trkpt>
      <trkpt lat="44.61359" lon="1.02349">
        <ele>243</ele>
        <time>2012-10-14T08:22:50Z</time>
      </trkpt>
      <trkpt lat="44.6136" lon="1.02343">
        <ele>244</ele>
        <time>2012-10-14T08:22:52Z</time>
      </trkpt>
      <trkpt lat="44.61361" lon="1.02337">
        <ele>244</ele>
        <time>2012-10-14T08:22:54Z</time>
      </trkpt>
      <trkpt lat="44.61363" lon="1.02331">
        <ele>245</ele>
        <time>2012-10-14T08:22:56Z</time>
      </trkpt>
      <trkpt lat="44.61364" lon="1.02324">
        <ele>246</ele>
        <time>2012-10-14T08:22:58Z</time>
      </trkpt>
      <trkpt lat="44.61364" lon="1.02317">
        <ele>247</ele>
        <time>2012-10-14T08:23:00Z</time>
      </trkpt>
      <trkpt lat="44.61363" lon="1.02311">
        <ele>247</ele>
        <time>2012-10-14T08:23:02Z</time>
      </trkpt>
      <trkpt lat="44.61362" lon="1.02303">
        <ele>247</ele>
        <time>2012-10-14T08:23:04Z</time>
      </trkpt>
      <trkpt lat="44.61361" lon="1.02296">
        <ele>247</ele>
        <time>2012-10-14T08:23:06Z</time>
      </trkpt>
      <trkpt lat="44.61361" lon="1.02288">
        <ele>247</ele>
        <time>2012-10-14T08:23:08Z</time>
      </trkpt>
      <trkpt lat="44.61362" lon="1.02279">
        <ele>249</ele>
        <time>2012-10-14T08:23:10Z</time>
      </trkpt>
      <trkpt lat="44.61363" lon="1.02271">
        <ele>250</ele>
        <time>2012-10-14T08:23:12Z</time>
      </trkpt>
      <trkpt lat="44.61365" lon="1.02265">
        <ele>251</ele>
        <time>2012-10-14T08:23:14Z</time>
      </trkpt>
      <trkpt lat="44.61368" lon="1.02258">
        <ele>252</ele>
        <time>2012-10-14T08:23:16Z</time>
      </trkpt>
      <trkpt lat="44.61371" lon="1.02252">
        <ele>253</ele>
        <time>2012-10-14T08:23:18Z</time>
      </trkpt>
      <trkpt lat="44.61374" lon="1.02245">
        <ele>254</ele>
        <time>2012-10-14T08:23:20Z</time>
      </trkpt>
      <trkpt lat="44.61376" lon="1.02238">
        <ele>255</ele>
        <time>2012-10-14T08:23:22Z</time>
      </trkpt>
      <trkpt lat="44.61378" lon="1.02231">
        <ele>255</ele>
        <time>2012-10-14T08:23:24Z</time>
      </trkpt>
      <trkpt lat="44.61381" lon="1.02223">
        <ele>256</ele>
        <time>2012-10-14T08:23:26Z</time>
      </trkpt>
      <trkpt lat="44.61383" lon="1.02216">
        <ele>256</ele>
        <time>2012-10-14T08:23:28Z</time>
      </trkpt>
      <trkpt lat="44.61385" lon="1.02209">
        <ele>256</ele>
        <time>2012-10-14T08:23:30Z</time>
      </trkpt>
      <trkpt lat="44.61387" lon="1.02201">
        <ele>256</ele>
        <time>2012-10-14T08:23:32Z</time>
      </trkpt>
      <trkpt lat="44.61389" lon="1.02194">
        <ele>256</ele>
        <time>2012-10-14T08:23:34Z</time>
      </trkpt>
      <trkpt lat="44.61391" lon="1.02188">
        <ele>256</ele>
        <time>2012-10-14T08:23:36Z</time>
      </trkpt>
      <trkpt lat="44.61393" lon="1.0218">
        <ele>256</ele>
        <time>2012-10-14T08:23:38Z</time>
      </trkpt>
      <trkpt lat="44.61395" lon="1.02172">
        <ele>256</ele>
        <time>2012-10-14T08:23:40Z</time>
      </trkpt>
      <trkpt lat="44.61397" lon="1.02166">
        <ele>256</ele>
        <time>2012-10-14T08:23:42Z</time>
      </trkpt>
      <trkpt lat="44.61399" lon="1.02158">
        <ele>256</ele>
        <time>2012-10-14T08:23:44Z</time>
      </trkpt>
      <trkpt lat="44.61401" lon="1.0215">
        <ele>256</ele>
        <time>2012-10-14T08:23:46Z</time>
      </trkpt>
      <trkpt lat="44.61403" lon="1.0214">
        <ele>256</ele>
        <time>2012-10-14T08:23:48Z</time>
      </trkpt>
      <trkpt lat="44.61406" lon="1.02131">
        <ele>256</ele>
        <time>2012-10-14T08:23:50Z</time>
      </trkpt>
      <trkpt lat="44.61408" lon="1.02121">
        <ele>255</ele>
        <time>2012-10-14T08:23:52Z</time>
      </trkpt>
      <trkpt lat="44.61411" lon="1.02109">
        <ele>253</ele>
        <time>2012-10-14T08:23:54Z</time>
      </trkpt>
      <trkpt lat="44.61414" lon="1.02097">
        <ele>251</ele>
        <time>2012-10-14T08:23:56Z</time>
      </trkpt>
      <trkpt lat="44.61417" lon="1.02084">
        <ele>250</ele>
        <time>2012-10-14T08:23:58Z</time>
      </trkpt>
      <trkpt lat="44.6142" lon="1.02073">
        <ele>249</ele>
        <time>2012-10-14T08:24:00Z</time>
      </trkpt>
      <trkpt lat="44.61422" lon="1.02062">
        <ele>248</ele>
        <time>2012-10-14T08:24:02Z</time>
      </trkpt>
      <trkpt lat="44.61425" lon="1.02052">
        <ele>247</ele>
        <time>2012-10-14T08:24:04Z</time>
      </trkpt>
      <trkpt lat="44.61428" lon="1.02041">
        <ele>247</ele>
        <time>2012-10-14T08:24:06Z</time>
      </trkpt>
      <trkpt lat="44.61431" lon="1.02031">
        <ele>247</ele>
        <time>2012-10-14T08:24:08Z</time>
      </trkpt>
      <trkpt lat="44.61434" lon="1.02021">
        <ele>247</ele>
        <time>2012-10-14T08:24:10Z</time>
      </trkpt>
      <trkpt lat="44.61436" lon="1.02012">
        <ele>247</ele>
        <time>2012-10-14T08:24:12Z</time>
      </trkpt>
      <trkpt lat="44.61439" lon="1.02001">
        <ele>247</ele>
        <time>2012-10-14T08:24:14Z</time>
      </trkpt>
      <trkpt lat="44.61442" lon="1.0199">
        <ele>247</ele>
        <time>2012-10-14T08:24:16Z</time>
      </trkpt>
      <trkpt lat="44.61445" lon="1.01978">
        <ele>247</ele>
        <time>2012-10-14T08:24:18Z</time>
      </trkpt>
      <trkpt lat="44.61448" lon="1.01967">
        <ele>247</ele>
        <time>2012-10-14T08:24:20Z</time>
      </trkpt>
      <trkpt lat="44.6145" lon="1.01957">
        <ele>247</ele>
        <time>2012-10-14T08:24:22Z</time>
      </trkpt>
      <trkpt lat="44.61453" lon="1.01946">
        <ele>247</ele>
        <time>2012-10-14T08:24:24Z</time>
      </trkpt>
      <trkpt lat="44.61457" lon="1.01936">
        <ele>247</ele>
        <time>2012-10-14T08:24:26Z</time>
      </trkpt>
      <trkpt lat="44.61462" lon="1.01926">
        <ele>247</ele>
        <time>2012-10-14T08:24:28Z</time>
      </trkpt>
      <trkpt lat="44.61468" lon="1.01916">
        <ele>247</ele>
        <time>2012-10-14T08:24:30Z</time>
      </trkpt>
      <trkpt lat="44.61474" lon="1.01907">
        <ele>247</ele>
        <time>2012-10-14T08:24:32Z</time>
      </trkpt>
      <trkpt lat="44.6148" lon="1.01898">
        <ele>247</ele>
        <time>2012-10-14T08:24:34Z</time>
      </trkpt>
      <trkpt lat="44.61486" lon="1.01889">
        <ele>247</ele>
        <time>2012-10-14T08:24:36Z</time>
      </trkpt>
      <trkpt lat="44.61491" lon="1.0188">
        <ele>247</ele>
        <time>2012-10-14T08:24:38Z</time>
      </trkpt>
      <trkpt lat="44.61495" lon="1.01871">
        <ele>248</ele>
        <time>2012-10-14T08:24:40Z</time>
      </trkpt>
      <trkpt lat="44.61499" lon="1.01861">
        <ele>248</ele>
        <time>2012-10-14T08:24:42Z</time>
      </trkpt>
      <trkpt lat="44.61503" lon="1.01853">
        <ele>248</ele>
        <time>2012-10-14T08:24:44Z</time>
      </trkpt>
      <trkpt lat="44.61507" lon="1.01843">
        <ele>248</ele>
        <time>2012-10-14T08:24:46Z</time>
      </trkpt>
      <trkpt lat="44.6151" lon="1.01834">
        <ele>249</ele>
        <time>2012-10-14T08:24:48Z</time>
      </trkpt>
      <trkpt lat="44.61515" lon="1.01824">
        <ele>250</ele>
        <time>2012-10-14T08:24:50Z</time>
      </trkpt>
      <trkpt lat="44.6152" lon="1.01814">
        <ele>250</ele>
        <time>2012-10-14T08:24:52Z</time>
      </trkpt>
      <trkpt lat="44.61525" lon="1.01806">
        <ele>251</ele>
        <time>2012-10-14T08:24:54Z</time>
      </trkpt>
      <trkpt lat="44.61531" lon="1.01801">
        <ele>252</ele>
        <time>2012-10-14T08:24:56Z</time>
      </trkpt>
      <trkpt lat="44.61537" lon="1.01797">
        <ele>253</ele>
        <time>2012-10-14T08:24:58Z</time>
      </trkpt>
      <trkpt lat="44.61544" lon="1.01795">
        <ele>254</ele>
        <time>2012-10-14T08:25:00Z</time>
      </trkpt>
      <trkpt lat="44.61552" lon="1.01793">
        <ele>254</ele>
        <time>2012-10-14T08:25:02Z</time>
      </trkpt>
      <trkpt lat="44.61559" lon="1.01789">
        <ele>254</ele>
        <time>2012-10-14T08:25:04Z</time>
      </trkpt>
      <trkpt lat="44.61566" lon="1.01784">
        <ele>254</ele>
        <time>2012-10-14T08:25:06Z</time>
      </trkpt>
      <trkpt lat="44.61573" lon="1.01778">
        <ele>254</ele>
        <time>2012-10-14T08:25:08Z</time>
      </trkpt>
      <trkpt lat="44.6158" lon="1.01773">
        <ele>254</ele>
        <time>2012-10-14T08:25:10Z</time>
      </trkpt>
      <trkpt lat="44.61586" lon="1.01768">
        <ele>254</ele>
        <time>2012-10-14T08:25:12Z</time>
      </trkpt>
      <trkpt lat="44.61594" lon="1.01761">
        <ele>254</ele>
        <time>2012-10-14T08:25:14Z</time>
      </trkpt>
      <trkpt lat="44.61601" lon="1.01755">
        <ele>254</ele>
        <time>2012-10-14T08:25:16Z</time>
      </trkpt>
      <trkpt lat="44.61608" lon="1.0175">
        <ele>254</ele>
        <time>2012-10-14T08:25:18Z</time>
      </trkpt>
      <trkpt lat="44.61616" lon="1.01742">
        <ele>254</ele>
        <time>2012-10-14T08:25:20Z</time>
      </trkpt>
      <trkpt lat="44.61625" lon="1.01734">
        <ele>254</ele>
        <time>2012-10-14T08:25:22Z</time>
      </trkpt>
      <trkpt lat="44.61634" lon="1.01726">
        <ele>254</ele>
        <time>2012-10-14T08:25:24Z</time>
      </trkpt>
      <trkpt lat="44.61643" lon="1.01716">
        <ele>254</ele>
        <time>2012-10-14T08:25:26Z</time>
      </trkpt>
      <trkpt lat="44.61651" lon="1.01708">
        <ele>254</ele>
        <time>2012-10-14T08:25:28Z</time>
      </trkpt>
      <trkpt lat="44.61658" lon="1.01699">
        <ele>254</ele>
        <time>2012-10-14T08:25:30Z</time>
      </trkpt>
      <trkpt lat="44.61663" lon="1.01694">
        <ele>254</ele>
        <time>2012-10-14T08:25:32Z</time>
      </trkpt>
      <trkpt lat="44.61667" lon="1.01691">
        <ele>254</ele>
        <time>2012-10-14T08:25:34Z</time>
      </trkpt>
      <trkpt lat="44.61668" lon="1.01689">
        <ele>254</ele>
        <time>2012-10-14T08:25:36Z</time>
      </trkpt>
      <trkpt lat="44.61671" lon="1.01686">
        <ele>254</ele>
        <time>2012-10-14T08:25:38Z</time>
      </trkpt>
      <trkpt lat="44.61673" lon="1.01685">
        <ele>254</ele>
        <time>2012-10-14T08:25:40Z</time>
      </trkpt>
      <trkpt lat="44.61676" lon="1.01682">
        <ele>254</ele>
        <time>2012-10-14T08:25:43Z</time>
      </trkpt>
      <trkpt lat="44.61679" lon="1.01679">
        <ele>254</ele>
        <time>2012-10-14T08:25:46Z</time>
      </trkpt>
      <trkpt lat="44.61681" lon="1.01678">
        <ele>254</ele>
        <time>2012-10-14T08:25:48Z</time>
      </trkpt>
      <trkpt lat="44.61685" lon="1.01675">
        <ele>254</ele>
        <time>2012-10-14T08:25:51Z</time>
      </trkpt>
      <trkpt lat="44.61688" lon="1.01672">
        <ele>254</ele>
        <time>2012-10-14T08:25:53Z</time>
      </trkpt>
      <trkpt lat="44.61691" lon="1.01669">
        <ele>254</ele>
        <time>2012-10-14T08:25:55Z</time>
      </trkpt>
      <trkpt lat="44.61694" lon="1.01666">
        <ele>255</ele>
        <time>2012-10-14T08:25:57Z</time>
      </trkpt>
      <trkpt lat="44.61696" lon="1.01665">
        <ele>256</ele>
        <time>2012-10-14T08:25:59Z</time>
      </trkpt>
      <trkpt lat="44.61699" lon="1.01663">
        <ele>258</ele>
        <time>2012-10-14T08:26:01Z</time>
      </trkpt>
      <trkpt lat="44.61702" lon="1.0166">
        <ele>259</ele>
        <time>2012-10-14T08:26:03Z</time>
      </trkpt>
      <trkpt lat="44.61707" lon="1.01656">
        <ele>260</ele>
        <time>2012-10-14T08:26:05Z</time>
      </trkpt>
      <trkpt lat="44.61712" lon="1.01652">
        <ele>260</ele>
        <time>2012-10-14T08:26:07Z</time>
      </trkpt>
      <trkpt lat="44.61717" lon="1.01648">
        <ele>260</ele>
        <time>2012-10-14T08:26:09Z</time>
      </trkpt>
      <trkpt lat="44.61721" lon="1.01645">
        <ele>260</ele>
        <time>2012-10-14T08:26:11Z</time>
      </trkpt>
      <trkpt lat="44.61724" lon="1.01641">
        <ele>260</ele>
        <time>2012-10-14T08:26:13Z</time>
      </trkpt>
      <trkpt lat="44.61728" lon="1.01637">
        <ele>260</ele>
        <time>2012-10-14T08:26:15Z</time>
      </trkpt>
      <trkpt lat="44.61733" lon="1.01633">
        <ele>260</ele>
        <time>2012-10-14T08:26:17Z</time>
      </trkpt>
      <trkpt lat="44.61738" lon="1.0163">
        <ele>260</ele>
        <time>2012-10-14T08:26:19Z</time>
      </trkpt>
      <trkpt lat="44.61743" lon="1.01626">
        <ele>260</ele>
        <time>2012-10-14T08:26:21Z</time>
      </trkpt>
      <trkpt lat="44.61748" lon="1.01622">
        <ele>260</ele>
        <time>2012-10-14T08:26:23Z</time>
      </trkpt>
      <trkpt lat="44.61755" lon="1.01616">
        <ele>260</ele>
        <time>2012-10-14T08:26:25Z</time>
      </trkpt>
      <trkpt lat="44.6176" lon="1.01612">
        <ele>260</ele>
        <time>2012-10-14T08:26:27Z</time>
      </trkpt>
      <trkpt lat="44.61766" lon="1.01607">
        <ele>260</ele>
        <time>2012-10-14T08:26:29Z</time>
      </trkpt>
      <trkpt lat="44.61773" lon="1.01602">
        <ele>260</ele>
        <time>2012-10-14T08:26:31Z</time>
      </trkpt>
      <trkpt lat="44.61779" lon="1.01596">
        <ele>260</ele>
        <time>2012-10-14T08:26:33Z</time>
      </trkpt>
      <trkpt lat="44.61786" lon="1.0159">
        <ele>260</ele>
        <time>2012-10-14T08:26:35Z</time>
      </trkpt>
      <trkpt lat="44.61792" lon="1.01584">
        <ele>260</ele>
        <time>2012-10-14T08:26:37Z</time>
      </trkpt>
      <trkpt lat="44.61798" lon="1.01579">
        <ele>260</ele>
        <time>2012-10-14T08:26:39Z</time>
      </trkpt>
      <trkpt lat="44.61805" lon="1.01573">
        <ele>261</ele>
        <time>2012-10-14T08:26:41Z</time>
      </trkpt>
      <trkpt lat="44.61811" lon="1.01567">
        <ele>263</ele>
        <time>2012-10-14T08:26:43Z</time>
      </trkpt>
      <trkpt lat="44.61818" lon="1.01561">
        <ele>265</ele>
        <time>2012-10-14T08:26:45Z</time>
      </trkpt>
      <trkpt lat="44.61826" lon="1.01553">
        <ele>266</ele>
        <time>2012-10-14T08:26:47Z</time>
      </trkpt>
      <trkpt lat="44.61834" lon="1.01545">
        <ele>267</ele>
        <time>2012-10-14T08:26:49Z</time>
      </trkpt>
      <trkpt lat="44.61843" lon="1.01537">
        <ele>267</ele>
        <time>2012-10-14T08:26:51Z</time>
      </trkpt>
      <trkpt lat="44.61851" lon="1.0153">
        <ele>268</ele>
        <time>2012-10-14T08:26:53Z</time>
      </trkpt>
      <trkpt lat="44.6186" lon="1.01521">
        <ele>268</ele>
        <time>2012-10-14T08:26:55Z</time>
      </trkpt>
      <trkpt lat="44.61867" lon="1.01511">
        <ele>269</ele>
        <time>2012-10-14T08:26:57Z</time>
      </trkpt>
      <trkpt lat="44.61874" lon="1.01502">
        <ele>269</ele>
        <time>2012-10-14T08:26:59Z</time>
      </trkpt>
      <trkpt lat="44.6188" lon="1.01492">
        <ele>269</ele>
        <time>2012-10-14T08:27:01Z</time>
      </trkpt>
      <trkpt lat="44.61885" lon="1.01481">
        <ele>269</ele>
        <time>2012-10-14T08:27:03Z</time>
      </trkpt>
      <trkpt lat="44.61884" lon="1.0147">
        <ele>269</ele>
        <time>2012-10-14T08:27:05Z</time>
      </trkpt>
      <trkpt lat="44.61879" lon="1.01462">
        <ele>269</ele>
        <time>2012-10-14T08:27:07Z</time>
      </trkpt>
      <trkpt lat="44.61875" lon="1.01457">
        <ele>268</ele>
        <time>2012-10-14T08:27:09Z</time>
      </trkpt>
      <trkpt lat="44.61871" lon="1.01454">
        <ele>266</ele>
        <time>2012-10-14T08:27:11Z</time>
      </trkpt>
      <trkpt lat="44.61868" lon="1.01451">
        <ele>264</ele>
        <time>2012-10-14T08:27:13Z</time>
      </trkpt>
      <trkpt lat="44.61865" lon="1.01447">
        <ele>262</ele>
        <time>2012-10-14T08:27:15Z</time>
      </trkpt>
      <trkpt lat="44.61859" lon="1.01445">
        <ele>260</ele>
        <time>2012-10-14T08:27:17Z</time>
      </trkpt>
      <trkpt lat="44.61854" lon="1.01443">
        <ele>258</ele>
        <time>2012-10-14T08:27:19Z</time>
      </trkpt>
      <trkpt lat="44.61849" lon="1.01439">
        <ele>256</ele>
        <time>2012-10-14T08:27:21Z</time>
      </trkpt>
      <trkpt lat="44.61846" lon="1.01436">
        <ele>254</ele>
        <time>2012-10-14T08:27:23Z</time>
      </trkpt>
      <trkpt lat="44.61842" lon="1.01433">
        <ele>252</ele>
        <time>2012-10-14T08:27:25Z</time>
      </trkpt>
      <trkpt lat="44.61838" lon="1.01428">
        <ele>250</ele>
        <time>2012-10-14T08:27:27Z</time>
      </trkpt>
      <trkpt lat="44.61835" lon="1.01424">
        <ele>248</ele>
        <time>2012-10-14T08:27:29Z</time>
      </trkpt>
      <trkpt lat="44.61831" lon="1.0142">
        <ele>246</ele>
        <time>2012-10-14T08:27:31Z</time>
      </trkpt>
      <trkpt lat="44.61828" lon="1.01417">
        <ele>244</ele>
        <time>2012-10-14T08:27:33Z</time>
      </trkpt>
      <trkpt lat="44.61826" lon="1.01414">
        <ele>242</ele>
        <time>2012-10-14T08:27:35Z</time>
      </trkpt>
      <trkpt lat="44.61823" lon="1.0141">
        <ele>240</ele>
        <time>2012-10-14T08:27:37Z</time>
      </trkpt>
      <trkpt lat="44.61819" lon="1.01406">
        <ele>238</ele>
        <time>2012-10-14T08:27:39Z</time>
      </trkpt>
      <trkpt lat="44.61814" lon="1.01401">
        <ele>236</ele>
        <time>2012-10-14T08:27:41Z</time>
      </trkpt>
      <trkpt lat="44.61811" lon="1.01398">
        <ele>234</ele>
        <time>2012-10-14T08:27:43Z</time>
      </trkpt>
      <trkpt lat="44.61808" lon="1.01395">
        <ele>233</ele>
        <time>2012-10-14T08:27:45Z</time>
      </trkpt>
      <trkpt lat="44.61803" lon="1.01392">
        <ele>233</ele>
        <time>2012-10-14T08:27:47Z</time>
      </trkpt>
      <trkpt lat="44.618" lon="1.01388">
        <ele>232</ele>
        <time>2012-10-14T08:27:49Z</time>
      </trkpt>
      <trkpt lat="44.61797" lon="1.01384">
        <ele>232</ele>
        <time>2012-10-14T08:27:51Z</time>
      </trkpt>
      <trkpt lat="44.61791" lon="1.01379">
        <ele>232</ele>
        <time>2012-10-14T08:27:53Z</time>
      </trkpt>
      <trkpt lat="44.61784" lon="1.01374">
        <ele>232</ele>
        <time>2012-10-14T08:27:55Z</time>
      </trkpt>
      <trkpt lat="44.61777" lon="1.01369">
        <ele>232</ele>
        <time>2012-10-14T08:27:57Z</time>
      </trkpt>
      <trkpt lat="44.61769" lon="1.01364">
        <ele>232</ele>
        <time>2012-10-14T08:27:59Z</time>
      </trkpt>
      <trkpt lat="44.6176" lon="1.01359">
        <ele>232</ele>
        <time>2012-10-14T08:28:01Z</time>
      </trkpt>
      <trkpt lat="44.61751" lon="1.01353">
        <ele>234</ele>
        <time>2012-10-14T08:28:03Z</time>
      </trkpt>
      <trkpt lat="44.61741" lon="1.01348">
        <ele>234</ele>
        <time>2012-10-14T08:28:05Z</time>
      </trkpt>
      <trkpt lat="44.61731" lon="1.01343">
        <ele>234</ele>
        <time>2012-10-14T08:28:07Z</time>
      </trkpt>
      <trkpt lat="44.61721" lon="1.01337">
        <ele>234</ele>
        <time>2012-10-14T08:28:09Z</time>
      </trkpt>
      <trkpt lat="44.61713" lon="1.01331">
        <ele>234</ele>
        <time>2012-10-14T08:28:11Z</time>
      </trkpt>
      <trkpt lat="44.61704" lon="1.01324">
        <ele>235</ele>
        <time>2012-10-14T08:28:13Z</time>
      </trkpt>
      <trkpt lat="44.61695" lon="1.01317">
        <ele>236</ele>
        <time>2012-10-14T08:28:15Z</time>
      </trkpt>
      <trkpt lat="44.61685" lon="1.0131">
        <ele>236</ele>
        <time>2012-10-14T08:28:17Z</time>
      </trkpt>
      <trkpt lat="44.61676" lon="1.01303">
        <ele>236</ele>
        <time>2012-10-14T08:28:19Z</time>
      </trkpt>
      <trkpt lat="44.61666" lon="1.01295">
        <ele>236</ele>
        <time>2012-10-14T08:28:21Z</time>
      </trkpt>
      <trkpt lat="44.61657" lon="1.01288">
        <ele>237</ele>
        <time>2012-10-14T08:28:23Z</time>
      </trkpt>
      <trkpt lat="44.61648" lon="1.01281">
        <ele>237</ele>
        <time>2012-10-14T08:28:25Z</time>
      </trkpt>
      <trkpt lat="44.61639" lon="1.01275">
        <ele>237</ele>
        <time>2012-10-14T08:28:27Z</time>
      </trkpt>
      <trkpt lat="44.61629" lon="1.01268">
        <ele>237</ele>
        <time>2012-10-14T08:28:29Z</time>
      </trkpt>
      <trkpt lat="44.61621" lon="1.01261">
        <ele>237</ele>
        <time>2012-10-14T08:28:31Z</time>
      </trkpt>
      <trkpt lat="44.61612" lon="1.01255">
        <ele>238</ele>
        <time>2012-10-14T08:28:33Z</time>
      </trkpt>
      <trkpt lat="44.61601" lon="1.01251">
        <ele>238</ele>
        <time>2012-10-14T08:28:35Z</time>
      </trkpt>
      <trkpt lat="44.61592" lon="1.01248">
        <ele>238</ele>
        <time>2012-10-14T08:28:37Z</time>
      </trkpt>
      <trkpt lat="44.61585" lon="1.01245">
        <ele>238</ele>
        <time>2012-10-14T08:28:39Z</time>
      </trkpt>
      <trkpt lat="44.6158" lon="1.01241">
        <ele>238</ele>
        <time>2012-10-14T08:28:41Z</time>
      </trkpt>
      <trkpt lat="44.61575" lon="1.01235">
        <ele>238</ele>
        <time>2012-10-14T08:28:43Z</time>
      </trkpt>
      <trkpt lat="44.6157" lon="1.01229">
        <ele>238</ele>
        <time>2012-10-14T08:28:45Z</time>
      </trkpt>
      <trkpt lat="44.61564" lon="1.01223">
        <ele>239</ele>
        <time>2012-10-14T08:28:47Z</time>
      </trkpt>
      <trkpt lat="44.61559" lon="1.01218">
        <ele>239</ele>
        <time>2012-10-14T08:28:49Z</time>
      </trkpt>
      <trkpt lat="44.61553" lon="1.01213">
        <ele>240</ele>
        <time>2012-10-14T08:28:51Z</time>
      </trkpt>
      <trkpt lat="44.61549" lon="1.0121">
        <ele>240</ele>
        <time>2012-10-14T08:28:53Z</time>
      </trkpt>
      <trkpt lat="44.61546" lon="1.01207">
        <ele>240</ele>
        <time>2012-10-14T08:28:55Z</time>
      </trkpt>
      <trkpt lat="44.61542" lon="1.01204">
        <ele>240</ele>
        <time>2012-10-14T08:28:57Z</time>
      </trkpt>
      <trkpt lat="44.61539" lon="1.01202">
        <ele>240</ele>
        <time>2012-10-14T08:28:59Z</time>
      </trkpt>
      <trkpt lat="44.61535" lon="1.01199">
        <ele>240</ele>
        <time>2012-10-14T08:29:02Z</time>
      </trkpt>
      <trkpt lat="44.61534" lon="1.01197">
        <ele>240</ele>
        <time>2012-10-14T08:29:10Z</time>
      </trkpt>
      <trkpt lat="44.61535" lon="1.01197">
        <ele>244</ele>
        <time>2012-10-14T08:29:14Z</time>
      </trkpt>
      <trkpt lat="44.61538" lon="1.01197">
        <ele>251</ele>
        <time>2012-10-14T08:29:21Z</time>
      </trkpt>
      <trkpt lat="44.61536" lon="1.01197">
        <ele>254</ele>
        <time>2012-10-14T08:29:24Z</time>
      </trkpt>
      <trkpt lat="44.61534" lon="1.01197">
        <ele>256</ele>
        <time>2012-10-14T08:29:26Z</time>
      </trkpt>
      <trkpt lat="44.6153" lon="1.01196">
        <ele>256</ele>
        <time>2012-10-14T08:29:28Z</time>
      </trkpt>
      <trkpt lat="44.61523" lon="1.01195">
        <ele>256</ele>
        <time>2012-10-14T08:29:30Z</time>
      </trkpt>
      <trkpt lat="44.61516" lon="1.01192">
        <ele>256</ele>
        <time>2012-10-14T08:29:32Z</time>
      </trkpt>
      <trkpt lat="44.61509" lon="1.01189">
        <ele>256</ele>
        <time>2012-10-14T08:29:34Z</time>
      </trkpt>
      <trkpt lat="44.61502" lon="1.01188">
        <ele>256</ele>
        <time>2012-10-14T08:29:36Z</time>
      </trkpt>
      <trkpt lat="44.61496" lon="1.01186">
        <ele>255</ele>
        <time>2012-10-14T08:29:38Z</time>
      </trkpt>
      <trkpt lat="44.6149" lon="1.01183">
        <ele>254</ele>
        <time>2012-10-14T08:29:40Z</time>
      </trkpt>
      <trkpt lat="44.61484" lon="1.0118">
        <ele>254</ele>
        <time>2012-10-14T08:29:42Z</time>
      </trkpt>
      <trkpt lat="44.61476" lon="1.01175">
        <ele>254</ele>
        <time>2012-10-14T08:29:44Z</time>
      </trkpt>
      <trkpt lat="44.61468" lon="1.01169">
        <ele>254</ele>
        <time>2012-10-14T08:29:46Z</time>
      </trkpt>
      <trkpt lat="44.61459" lon="1.01164">
        <ele>254</ele>
        <time>2012-10-14T08:29:48Z</time>
      </trkpt>
      <trkpt lat="44.6145" lon="1.01161">
        <ele>254</ele>
        <time>2012-10-14T08:29:50Z</time>
      </trkpt>
      <trkpt lat="44.61442" lon="1.01158">
        <ele>254</ele>
        <time>2012-10-14T08:29:52Z</time>
      </trkpt>
      <trkpt lat="44.61432" lon="1.01154">
        <ele>254</ele>
        <time>2012-10-14T08:29:54Z</time>
      </trkpt>
      <trkpt lat="44.6142" lon="1.01148">
        <ele>254</ele>
        <time>2012-10-14T08:29:56Z</time>
      </trkpt>
      <trkpt lat="44.61409" lon="1.01148">
        <ele>254</ele>
        <time>2012-10-14T08:29:58Z</time>
      </trkpt>
      <trkpt lat="44.61399" lon="1.01143">
        <ele>254</ele>
        <time>2012-10-14T08:30:00Z</time>
      </trkpt>
      <trkpt lat="44.61388" lon="1.01136">
        <ele>254</ele>
        <time>2012-10-14T08:30:02Z</time>
      </trkpt>
      <trkpt lat="44.61377" lon="1.01129">
        <ele>254</ele>
        <time>2012-10-14T08:30:04Z</time>
      </trkpt>
      <trkpt lat="44.61366" lon="1.01127">
        <ele>253</ele>
        <time>2012-10-14T08:30:06Z</time>
      </trkpt>
      <trkpt lat="44.61353" lon="1.01122">
        <ele>252</ele>
        <time>2012-10-14T08:30:08Z</time>
      </trkpt>
      <trkpt lat="44.61341" lon="1.01116">
        <ele>250</ele>
        <time>2012-10-14T08:30:10Z</time>
      </trkpt>
      <trkpt lat="44.6133" lon="1.01111">
        <ele>248</ele>
        <time>2012-10-14T08:30:12Z</time>
      </trkpt>
      <trkpt lat="44.61317" lon="1.01105">
        <ele>246</ele>
        <time>2012-10-14T08:30:14Z</time>
      </trkpt>
      <trkpt lat="44.61306" lon="1.01098">
        <ele>245</ele>
        <time>2012-10-14T08:30:16Z</time>
      </trkpt>
      <trkpt lat="44.61293" lon="1.01092">
        <ele>243</ele>
        <time>2012-10-14T08:30:18Z</time>
      </trkpt>
      <trkpt lat="44.6128" lon="1.01086">
        <ele>242</ele>
        <time>2012-10-14T08:30:20Z</time>
      </trkpt>
      <trkpt lat="44.61268" lon="1.0108">
        <ele>241</ele>
        <time>2012-10-14T08:30:22Z</time>
      </trkpt>
      <trkpt lat="44.61257" lon="1.01074">
        <ele>241</ele>
        <time>2012-10-14T08:30:24Z</time>
      </trkpt>
      <trkpt lat="44.61246" lon="1.01073">
        <ele>241</ele>
        <time>2012-10-14T08:30:26Z</time>
      </trkpt>
      <trkpt lat="44.61235" lon="1.01075">
        <ele>241</ele>
        <time>2012-10-14T08:30:28Z</time>
      </trkpt>
      <trkpt lat="44.61224" lon="1.01076">
        <ele>241</ele>
        <time>2012-10-14T08:30:30Z</time>
      </trkpt>
      <trkpt lat="44.61213" lon="1.01078">
        <ele>241</ele>
        <time>2012-10-14T08:30:32Z</time>
      </trkpt>
      <trkpt lat="44.61202" lon="1.0108">
        <ele>241</ele>
        <time>2012-10-14T08:30:34Z</time>
      </trkpt>
      <trkpt lat="44.6119" lon="1.01081">
        <ele>241</ele>
        <time>2012-10-14T08:30:36Z</time>
      </trkpt>
      <trkpt lat="44.61181" lon="1.01077">
        <ele>241</ele>
        <time>2012-10-14T08:30:38Z</time>
      </trkpt>
      <trkpt lat="44.61174" lon="1.01067">
        <ele>242</ele>
        <time>2012-10-14T08:30:40Z</time>
      </trkpt>
      <trkpt lat="44.61169" lon="1.01053">
        <ele>242</ele>
        <time>2012-10-14T08:30:42Z</time>
      </trkpt>
      <trkpt lat="44.61169" lon="1.01039">
        <ele>242</ele>
        <time>2012-10-14T08:30:44Z</time>
      </trkpt>
      <trkpt lat="44.61168" lon="1.01022">
        <ele>240</ele>
        <time>2012-10-14T08:30:46Z</time>
      </trkpt>
      <trkpt lat="44.61166" lon="1.01001">
        <ele>238</ele>
        <time>2012-10-14T08:30:48Z</time>
      </trkpt>
      <trkpt lat="44.61162" lon="1.00981">
        <ele>237</ele>
        <time>2012-10-14T08:30:50Z</time>
      </trkpt>
      <trkpt lat="44.61154" lon="1.00963">
        <ele>237</ele>
        <time>2012-10-14T08:30:52Z</time>
      </trkpt>
      <trkpt lat="44.61143" lon="1.00951">
        <ele>237</ele>
        <time>2012-10-14T08:30:54Z</time>
      </trkpt>
      <trkpt lat="44.61133" lon="1.00942">
        <ele>237</ele>
        <time>2012-10-14T08:30:56Z</time>
      </trkpt>
      <trkpt lat="44.61121" lon="1.00939">
        <ele>237</ele>
        <time>2012-10-14T08:30:58Z</time>
      </trkpt>
      <trkpt lat="44.6111" lon="1.00939">
        <ele>237</ele>
        <time>2012-10-14T08:31:00Z</time>
      </trkpt>
      <trkpt lat="44.61097" lon="1.0094">
        <ele>237</ele>
        <time>2012-10-14T08:31:02Z</time>
      </trkpt>
      <trkpt lat="44.61086" lon="1.0094">
        <ele>237</ele>
        <time>2012-10-14T08:31:04Z</time>
      </trkpt>
      <trkpt lat="44.61076" lon="1.00941">
        <ele>237</ele>
        <time>2012-10-14T08:31:06Z</time>
      </trkpt>
      <trkpt lat="44.61066" lon="1.00942">
        <ele>237</ele>
        <time>2012-10-14T08:31:08Z</time>
      </trkpt>
      <trkpt lat="44.6106" lon="1.00944">
        <ele>237</ele>
        <time>2012-10-14T08:31:10Z</time>
      </trkpt>
      <trkpt lat="44.61054" lon="1.00944">
        <ele>237</ele>
        <time>2012-10-14T08:31:12Z</time>
      </trkpt>
      <trkpt lat="44.61047" lon="1.00944">
        <ele>237</ele>
        <time>2012-10-14T08:31:14Z</time>
      </trkpt>
      <trkpt lat="44.6104" lon="1.00943">
        <ele>237</ele>
        <time>2012-10-14T08:31:16Z</time>
      </trkpt>
      <trkpt lat="44.61033" lon="1.00944">
        <ele>237</ele>
        <time>2012-10-14T08:31:18Z</time>
      </trkpt>
      <trkpt lat="44.61024" lon="1.00945">
        <ele>237</ele>
        <time>2012-10-14T08:31:20Z</time>
      </trkpt>
      <trkpt lat="44.61014" lon="1.00944">
        <ele>237</ele>
        <time>2012-10-14T08:31:22Z</time>
      </trkpt>
      <trkpt lat="44.61" lon="1.00943">
        <ele>237</ele>
        <time>2012-10-14T08:31:24Z</time>
      </trkpt>
      <trkpt lat="44.60987" lon="1.0094">
        <ele>237</ele>
        <time>2012-10-14T08:31:26Z</time>
      </trkpt>
      <trkpt lat="44.60974" lon="1.00938">
        <ele>237</ele>
        <time>2012-10-14T08:31:28Z</time>
      </trkpt>
      <trkpt lat="44.60962" lon="1.00937">
        <ele>237</ele>
        <time>2012-10-14T08:31:30Z</time>
      </trkpt>
      <trkpt lat="44.60952" lon="1.00935">
        <ele>237</ele>
        <time>2012-10-14T08:31:32Z</time>
      </trkpt>
      <trkpt lat="44.60948" lon="1.00927">
        <ele>237</ele>
        <time>2012-10-14T08:31:34Z</time>
      </trkpt>
      <trkpt lat="44.60949" lon="1.00919">
        <ele>237</ele>
        <time>2012-10-14T08:31:36Z</time>
      </trkpt>
      <trkpt lat="44.60951" lon="1.00911">
        <ele>237</ele>
        <time>2012-10-14T08:31:38Z</time>
      </trkpt>
      <trkpt lat="44.60954" lon="1.00903">
        <ele>237</ele>
        <time>2012-10-14T08:31:40Z</time>
      </trkpt>
      <trkpt lat="44.60955" lon="1.00896">
        <ele>237</ele>
        <time>2012-10-14T08:31:42Z</time>
      </trkpt>
      <trkpt lat="44.60956" lon="1.00888">
        <ele>237</ele>
        <time>2012-10-14T08:31:44Z</time>
      </trkpt>
      <trkpt lat="44.60956" lon="1.00881">
        <ele>237</ele>
        <time>2012-10-14T08:31:46Z</time>
      </trkpt>
      <trkpt lat="44.60956" lon="1.00872">
        <ele>237</ele>
        <time>2012-10-14T08:31:48Z</time>
      </trkpt>
      <trkpt lat="44.60955" lon="1.00863">
        <ele>237</ele>
        <time>2012-10-14T08:31:50Z</time>
      </trkpt>
      <trkpt lat="44.60955" lon="1.00855">
        <ele>237</ele>
        <time>2012-10-14T08:31:52Z</time>
      </trkpt>
      <trkpt lat="44.60955" lon="1.00847">
        <ele>237</ele>
        <time>2012-10-14T08:31:54Z</time>
      </trkpt>
      <trkpt lat="44.60954" lon="1.00839">
        <ele>237</ele>
        <time>2012-10-14T08:31:56Z</time>
      </trkpt>
      <trkpt lat="44.60952" lon="1.00831">
        <ele>237</ele>
        <time>2012-10-14T08:31:58Z</time>
      </trkpt>
      <trkpt lat="44.60951" lon="1.00822">
        <ele>237</ele>
        <time>2012-10-14T08:32:00Z</time>
      </trkpt>
      <trkpt lat="44.60951" lon="1.00812">
        <ele>235</ele>
        <time>2012-10-14T08:32:02Z</time>
      </trkpt>
      <trkpt lat="44.60952" lon="1.00801">
        <ele>235</ele>
        <time>2012-10-14T08:32:04Z</time>
      </trkpt>
      <trkpt lat="44.60953" lon="1.00789">
        <ele>235</ele>
        <time>2012-10-14T08:32:06Z</time>
      </trkpt>
      <trkpt lat="44.60955" lon="1.00778">
        <ele>235</ele>
        <time>2012-10-14T08:32:08Z</time>
      </trkpt>
      <trkpt lat="44.60957" lon="1.00767">
        <ele>237</ele>
        <time>2012-10-14T08:32:10Z</time>
      </trkpt>
      <trkpt lat="44.60958" lon="1.00757">
        <ele>239</ele>
        <time>2012-10-14T08:32:12Z</time>
      </trkpt>
      <trkpt lat="44.60958" lon="1.00744">
        <ele>241</ele>
        <time>2012-10-14T08:32:14Z</time>
      </trkpt>
      <trkpt lat="44.60958" lon="1.0073">
        <ele>243</ele>
        <time>2012-10-14T08:32:16Z</time>
      </trkpt>
      <trkpt lat="44.60957" lon="1.00718">
        <ele>245</ele>
        <time>2012-10-14T08:32:18Z</time>
      </trkpt>
      <trkpt lat="44.60955" lon="1.00704">
        <ele>247</ele>
        <time>2012-10-14T08:32:20Z</time>
      </trkpt>
      <trkpt lat="44.60953" lon="1.0069">
        <ele>248</ele>
        <time>2012-10-14T08:32:22Z</time>
      </trkpt>
      <trkpt lat="44.60951" lon="1.00677">
        <ele>248</ele>
        <time>2012-10-14T08:32:24Z</time>
      </trkpt>
      <trkpt lat="44.60947" lon="1.00663">
        <ele>248</ele>
        <time>2012-10-14T08:32:26Z</time>
      </trkpt>
      <trkpt lat="44.6094" lon="1.00648">
        <ele>248</ele>
        <time>2012-10-14T08:32:28Z</time>
      </trkpt>
      <trkpt lat="44.60933" lon="1.00635">
        <ele>246</ele>
        <time>2012-10-14T08:32:30Z</time>
      </trkpt>
      <trkpt lat="44.60924" lon="1.00623">
        <ele>244</ele>
        <time>2012-10-14T08:32:32Z</time>
      </trkpt>
      <trkpt lat="44.60913" lon="1.00611">
        <ele>242</ele>
        <time>2012-10-14T08:32:34Z</time>
      </trkpt>
      <trkpt lat="44.60902" lon="1.00599">
        <ele>242</ele>
        <time>2012-10-14T08:32:36Z</time>
      </trkpt>
      <trkpt lat="44.60892" lon="1.00586">
        <ele>241</ele>
        <time>2012-10-14T08:32:38Z</time>
      </trkpt>
      <trkpt lat="44.60882" lon="1.00572">
        <ele>239</ele>
        <time>2012-10-14T08:32:40Z</time>
      </trkpt>
      <trkpt lat="44.60873" lon="1.00558">
        <ele>237</ele>
        <time>2012-10-14T08:32:42Z</time>
      </trkpt>
      <trkpt lat="44.60863" lon="1.00544">
        <ele>234</ele>
        <time>2012-10-14T08:32:44Z</time>
      </trkpt>
      <trkpt lat="44.60853" lon="1.0053">
        <ele>230</ele>
        <time>2012-10-14T08:32:46Z</time>
      </trkpt>
      <trkpt lat="44.60844" lon="1.00515">
        <ele>226</ele>
        <time>2012-10-14T08:32:48Z</time>
      </trkpt>
      <trkpt lat="44.60836" lon="1.00502">
        <ele>223</ele>
        <time>2012-10-14T08:32:50Z</time>
      </trkpt>
      <trkpt lat="44.60827" lon="1.00489">
        <ele>221</ele>
        <time>2012-10-14T08:32:52Z</time>
      </trkpt>
      <trkpt lat="44.60817" lon="1.00476">
        <ele>219</ele>
        <time>2012-10-14T08:32:54Z</time>
      </trkpt>
      <trkpt lat="44.60805" lon="1.00464">
        <ele>217</ele>
        <time>2012-10-14T08:32:56Z</time>
      </trkpt>
      <trkpt lat="44.60795" lon="1.00453">
        <ele>215</ele>
        <time>2012-10-14T08:32:58Z</time>
      </trkpt>
      <trkpt lat="44.60786" lon="1.0044">
        <ele>215</ele>
        <time>2012-10-14T08:33:00Z</time>
      </trkpt>
      <trkpt lat="44.60775" lon="1.00424">
        <ele>215</ele>
        <time>2012-10-14T08:33:02Z</time>
      </trkpt>
      <trkpt lat="44.60765" lon="1.00407">
        <ele>215</ele>
        <time>2012-10-14T08:33:04Z</time>
      </trkpt>
      <trkpt lat="44.60755" lon="1.0039">
        <ele>215</ele>
        <time>2012-10-14T08:33:06Z</time>
      </trkpt>
      <trkpt lat="44.60745" lon="1.00373">
        <ele>215</ele>
        <time>2012-10-14T08:33:08Z</time>
      </trkpt>
      <trkpt lat="44.60737" lon="1.00358">
        <ele>215</ele>
        <time>2012-10-14T08:33:10Z</time>
      </trkpt>
      <trkpt lat="44.60728" lon="1.00345">
        <ele>216</ele>
        <time>2012-10-14T08:33:12Z</time>
      </trkpt>
      <trkpt lat="44.60721" lon="1.00334">
        <ele>218</ele>
        <time>2012-10-14T08:33:14Z</time>
      </trkpt>
      <trkpt lat="44.60713" lon="1.00324">
        <ele>220</ele>
        <time>2012-10-14T08:33:16Z</time>
      </trkpt>
      <trkpt lat="44.60706" lon="1.00316">
        <ele>222</ele>
        <time>2012-10-14T08:33:18Z</time>
      </trkpt>
      <trkpt lat="44.60699" lon="1.00307">
        <ele>223</ele>
        <time>2012-10-14T08:33:20Z</time>
      </trkpt>
      <trkpt lat="44.60692" lon="1.00296">
        <ele>224</ele>
        <time>2012-10-14T08:33:22Z</time>
      </trkpt>
      <trkpt lat="44.60685" lon="1.00285">
        <ele>224</ele>
        <time>2012-10-14T08:33:24Z</time>
      </trkpt>
      <trkpt lat="44.60677" lon="1.00273">
        <ele>224</ele>
        <time>2012-10-14T08:33:26Z</time>
      </trkpt>
      <trkpt lat="44.60667" lon="1.00261">
        <ele>224</ele>
        <time>2012-10-14T08:33:28Z</time>
      </trkpt>
      <trkpt lat="44.60654" lon="1.00245">
        <ele>224</ele>
        <time>2012-10-14T08:33:30Z</time>
      </trkpt>
      <trkpt lat="44.60643" lon="1.00227">
        <ele>224</ele>
        <time>2012-10-14T08:33:32Z</time>
      </trkpt>
      <trkpt lat="44.60629" lon="1.00208">
        <ele>224</ele>
        <time>2012-10-14T08:33:34Z</time>
      </trkpt>
      <trkpt lat="44.60614" lon="1.00188">
        <ele>224</ele>
        <time>2012-10-14T08:33:36Z</time>
      </trkpt>
      <trkpt lat="44.60588" lon="1.00162">
        <ele>224</ele>
        <time>2012-10-14T08:33:38Z</time>
      </trkpt>
      <trkpt lat="44.6057" lon="1.00145">
        <ele>222</ele>
        <time>2012-10-14T08:33:40Z</time>
      </trkpt>
      <trkpt lat="44.60554" lon="1.00123">
        <ele>220</ele>
        <time>2012-10-14T08:33:42Z</time>
      </trkpt>
      <trkpt lat="44.6054" lon="1.00096">
        <ele>219</ele>
        <time>2012-10-14T08:33:44Z</time>
      </trkpt>
      <trkpt lat="44.60527" lon="1.00067">
        <ele>217</ele>
        <time>2012-10-14T08:33:46Z</time>
      </trkpt>
      <trkpt lat="44.60516" lon="1.00037">
        <ele>215</ele>
        <time>2012-10-14T08:33:48Z</time>
      </trkpt>
      <trkpt lat="44.60508" lon="1.00005">
        <ele>213</ele>
        <time>2012-10-14T08:33:50Z</time>
      </trkpt>
      <trkpt lat="44.60502" lon="0.99973">
        <ele>211</ele>
        <time>2012-10-14T08:33:52Z</time>
      </trkpt>
      <trkpt lat="44.60497" lon="0.99942">
        <ele>209</ele>
        <time>2012-10-14T08:33:54Z</time>
      </trkpt>
      <trkpt lat="44.60491" lon="0.99915">
        <ele>209</ele>
        <time>2012-10-14T08:33:57Z</time>
      </trkpt>
      <trkpt lat="44.60487" lon="0.99891">
        <ele>209</ele>
        <time>2012-10-14T08:33:59Z</time>
      </trkpt>
      <trkpt lat="44.60481" lon="0.99865">
        <ele>209</ele>
        <time>2012-10-14T08:34:01Z</time>
      </trkpt>
      <trkpt lat="44.60475" lon="0.99842">
        <ele>209</ele>
        <time>2012-10-14T08:34:03Z</time>
      </trkpt>
      <trkpt lat="44.60469" lon="0.99819">
        <ele>207</ele>
        <time>2012-10-14T08:34:05Z</time>
      </trkpt>
      <trkpt lat="44.60462" lon="0.99797">
        <ele>205</ele>
        <time>2012-10-14T08:34:07Z</time>
      </trkpt>
      <trkpt lat="44.60456" lon="0.99778">
        <ele>204</ele>
        <time>2012-10-14T08:34:09Z</time>
      </trkpt>
      <trkpt lat="44.60451" lon="0.99762">
        <ele>203</ele>
        <time>2012-10-14T08:34:11Z</time>
      </trkpt>
      <trkpt lat="44.60446" lon="0.99749">
        <ele>202</ele>
        <time>2012-10-14T08:34:13Z</time>
      </trkpt>
      <trkpt lat="44.60442" lon="0.99738">
        <ele>202</ele>
        <time>2012-10-14T08:34:15Z</time>
      </trkpt>
      <trkpt lat="44.60439" lon="0.99731">
        <ele>201</ele>
        <time>2012-10-14T08:34:17Z</time>
      </trkpt>
      <trkpt lat="44.60437" lon="0.99727">
        <ele>200</ele>
        <time>2012-10-14T08:34:20Z</time>
      </trkpt>
      <trkpt lat="44.60437" lon="0.99729">
        <ele>200</ele>
        <time>2012-10-14T08:34:23Z</time>
      </trkpt>
      <trkpt lat="44.60436" lon="0.9973">
        <ele>200</ele>
        <time>2012-10-14T08:34:28Z</time>
      </trkpt>
      <trkpt lat="44.60435" lon="0.9973">
        <ele>205</ele>
        <time>2012-10-14T08:34:38Z</time>
      </trkpt>
      <trkpt lat="44.60434" lon="0.99729">
        <ele>206</ele>
        <time>2012-10-14T08:34:41Z</time>
      </trkpt>
      <trkpt lat="44.60433" lon="0.99728">
        <ele>206</ele>
        <time>2012-10-14T08:34:48Z</time>
      </trkpt>
      <trkpt lat="44.60433" lon="0.99725">
        <ele>224</ele>
        <time>2012-10-14T08:35:08Z</time>
      </trkpt>
      <trkpt lat="44.60431" lon="0.99718">
        <ele>225</ele>
        <time>2012-10-14T08:35:10Z</time>
      </trkpt>
      <trkpt lat="44.60428" lon="0.99709">
        <ele>225</ele>
        <time>2012-10-14T08:35:12Z</time>
      </trkpt>
      <trkpt lat="44.60424" lon="0.997">
        <ele>225</ele>
        <time>2012-10-14T08:35:14Z</time>
      </trkpt>
      <trkpt lat="44.6042" lon="0.99691">
        <ele>225</ele>
        <time>2012-10-14T08:35:16Z</time>
      </trkpt>
      <trkpt lat="44.60416" lon="0.99681">
        <ele>225</ele>
        <time>2012-10-14T08:35:18Z</time>
      </trkpt>
      <trkpt lat="44.60412" lon="0.99671">
        <ele>225</ele>
        <time>2012-10-14T08:35:20Z</time>
      </trkpt>
      <trkpt lat="44.60409" lon="0.99662">
        <ele>225</ele>
        <time>2012-10-14T08:35:22Z</time>
      </trkpt>
      <trkpt lat="44.60406" lon="0.99655">
        <ele>225</ele>
        <time>2012-10-14T08:35:24Z</time>
      </trkpt>
      <trkpt lat="44.60403" lon="0.99648">
        <ele>225</ele>
        <time>2012-10-14T08:35:26Z</time>
      </trkpt>
      <trkpt lat="44.60402" lon="0.99639">
        <ele>225</ele>
        <time>2012-10-14T08:35:28Z</time>
      </trkpt>
      <trkpt lat="44.60399" lon="0.99633">
        <ele>225</ele>
        <time>2012-10-14T08:35:30Z</time>
      </trkpt>
      <trkpt lat="44.60394" lon="0.99624">
        <ele>225</ele>
        <time>2012-10-14T08:35:32Z</time>
      </trkpt>
      <trkpt lat="44.6039" lon="0.99613">
        <ele>225</ele>
        <time>2012-10-14T08:35:34Z</time>
      </trkpt>
      <trkpt lat="44.60386" lon="0.996">
        <ele>225</ele>
        <time>2012-10-14T08:35:36Z</time>
      </trkpt>
      <trkpt lat="44.6038" lon="0.99585">
        <ele>225</ele>
        <time>2012-10-14T08:35:38Z</time>
      </trkpt>
      <trkpt lat="44.60375" lon="0.99572">
        <ele>225</ele>
        <time>2012-10-14T08:35:40Z</time>
      </trkpt>
      <trkpt lat="44.60367" lon="0.99558">
        <ele>225</ele>
        <time>2012-10-14T08:35:42Z</time>
      </trkpt>
      <trkpt lat="44.60354" lon="0.99539">
        <ele>224</ele>
        <time>2012-10-14T08:35:44Z</time>
      </trkpt>
      <trkpt lat="44.60346" lon="0.9952">
        <ele>222</ele>
        <time>2012-10-14T08:35:46Z</time>
      </trkpt>
      <trkpt lat="44.60342" lon="0.99501">
        <ele>220</ele>
        <time>2012-10-14T08:35:48Z</time>
      </trkpt>
      <trkpt lat="44.60337" lon="0.99481">
        <ele>218</ele>
        <time>2012-10-14T08:35:50Z</time>
      </trkpt>
      <trkpt lat="44.6033" lon="0.99462">
        <ele>216</ele>
        <time>2012-10-14T08:35:52Z</time>
      </trkpt>
      <trkpt lat="44.60322" lon="0.99442">
        <ele>214</ele>
        <time>2012-10-14T08:35:54Z</time>
      </trkpt>
      <trkpt lat="44.60312" lon="0.99424">
        <ele>211</ele>
        <time>2012-10-14T08:35:56Z</time>
      </trkpt>
      <trkpt lat="44.60301" lon="0.99409">
        <ele>208</ele>
        <time>2012-10-14T08:35:58Z</time>
      </trkpt>
      <trkpt lat="44.60293" lon="0.99391">
        <ele>206</ele>
        <time>2012-10-14T08:36:00Z</time>
      </trkpt>
      <trkpt lat="44.60285" lon="0.99374">
        <ele>204</ele>
        <time>2012-10-14T08:36:02Z</time>
      </trkpt>
      <trkpt lat="44.6028" lon="0.99355">
        <ele>203</ele>
        <time>2012-10-14T08:36:04Z</time>
      </trkpt>
      <trkpt lat="44.60276" lon="0.9934">
        <ele>203</ele>
        <time>2012-10-14T08:36:06Z</time>
      </trkpt>
      <trkpt lat="44.6027" lon="0.99327">
        <ele>203</ele>
        <time>2012-10-14T08:36:08Z</time>
      </trkpt>
      <trkpt lat="44.60267" lon="0.99319">
        <ele>202</ele>
        <time>2012-10-14T08:36:10Z</time>
      </trkpt>
      <trkpt lat="44.60265" lon="0.9931">
        <ele>202</ele>
        <time>2012-10-14T08:36:12Z</time>
      </trkpt>
      <trkpt lat="44.60262" lon="0.99302">
        <ele>202</ele>
        <time>2012-10-14T08:36:14Z</time>
      </trkpt>
      <trkpt lat="44.60259" lon="0.99293">
        <ele>202</ele>
        <time>2012-10-14T08:36:16Z</time>
      </trkpt>
      <trkpt lat="44.60256" lon="0.99283">
        <ele>202</ele>
        <time>2012-10-14T08:36:18Z</time>
      </trkpt>
      <trkpt lat="44.60253" lon="0.99274">
        <ele>202</ele>
        <time>2012-10-14T08:36:20Z</time>
      </trkpt>
      <trkpt lat="44.6025" lon="0.99263">
        <ele>202</ele>
        <time>2012-10-14T08:36:22Z</time>
      </trkpt>
      <trkpt lat="44.60247" lon="0.99252">
        <ele>202</ele>
        <time>2012-10-14T08:36:24Z</time>
      </trkpt>
      <trkpt lat="44.60245" lon="0.99242">
        <ele>204</ele>
        <time>2012-10-14T08:36:26Z</time>
      </trkpt>
      <trkpt lat="44.60241" lon="0.99233">
        <ele>205</ele>
        <time>2012-10-14T08:36:28Z</time>
      </trkpt>
      <trkpt lat="44.60238" lon="0.99221">
        <ele>206</ele>
        <time>2012-10-14T08:36:30Z</time>
      </trkpt>
      <trkpt lat="44.60236" lon="0.99209">
        <ele>206</ele>
        <time>2012-10-14T08:36:32Z</time>
      </trkpt>
      <trkpt lat="44.60234" lon="0.99202">
        <ele>207</ele>
        <time>2012-10-14T08:36:34Z</time>
      </trkpt>
      <trkpt lat="44.60233" lon="0.99191">
        <ele>209</ele>
        <time>2012-10-14T08:36:36Z</time>
      </trkpt>
      <trkpt lat="44.60229" lon="0.99183">
        <ele>211</ele>
        <time>2012-10-14T08:36:38Z</time>
      </trkpt>
      <trkpt lat="44.60226" lon="0.99173">
        <ele>212</ele>
        <time>2012-10-14T08:36:40Z</time>
      </trkpt>
      <trkpt lat="44.6022" lon="0.99165">
        <ele>214</ele>
        <time>2012-10-14T08:36:42Z</time>
      </trkpt>
      <trkpt lat="44.60212" lon="0.99162">
        <ele>215</ele>
        <time>2012-10-14T08:36:44Z</time>
      </trkpt>
      <trkpt lat="44.60204" lon="0.99159">
        <ele>215</ele>
        <time>2012-10-14T08:36:46Z</time>
      </trkpt>
      <trkpt lat="44.60196" lon="0.99153">
        <ele>215</ele>
        <time>2012-10-14T08:36:48Z</time>
      </trkpt>
      <trkpt lat="44.60187" lon="0.99146">
        <ele>216</ele>
        <time>2012-10-14T08:36:50Z</time>
      </trkpt>
      <trkpt lat="44.60178" lon="0.99138">
        <ele>216</ele>
        <time>2012-10-14T08:36:52Z</time>
      </trkpt>
      <trkpt lat="44.6017" lon="0.99131">
        <ele>216</ele>
        <time>2012-10-14T08:36:54Z</time>
      </trkpt>
      <trkpt lat="44.60162" lon="0.99123">
        <ele>216</ele>
        <time>2012-10-14T08:36:56Z</time>
      </trkpt>
      <trkpt lat="44.60151" lon="0.99114">
        <ele>216</ele>
        <time>2012-10-14T08:36:58Z</time>
      </trkpt>
      <trkpt lat="44.60141" lon="0.99108">
        <ele>216</ele>
        <time>2012-10-14T08:37:00Z</time>
      </trkpt>
      <trkpt lat="44.60131" lon="0.99102">
        <ele>214</ele>
        <time>2012-10-14T08:37:02Z</time>
      </trkpt>
      <trkpt lat="44.60122" lon="0.99098">
        <ele>213</ele>
        <time>2012-10-14T08:37:04Z</time>
      </trkpt>
      <trkpt lat="44.6011" lon="0.99094">
        <ele>213</ele>
        <time>2012-10-14T08:37:06Z</time>
      </trkpt>
      <trkpt lat="44.60099" lon="0.99087">
        <ele>213</ele>
        <time>2012-10-14T08:37:08Z</time>
      </trkpt>
      <trkpt lat="44.60089" lon="0.99078">
        <ele>213</ele>
        <time>2012-10-14T08:37:10Z</time>
      </trkpt>
      <trkpt lat="44.60079" lon="0.99072">
        <ele>213</ele>
        <time>2012-10-14T08:37:12Z</time>
      </trkpt>
      <trkpt lat="44.60066" lon="0.99065">
        <ele>213</ele>
        <time>2012-10-14T08:37:14Z</time>
      </trkpt>
      <trkpt lat="44.60055" lon="0.99059">
        <ele>213</ele>
        <time>2012-10-14T08:37:16Z</time>
      </trkpt>
      <trkpt lat="44.60043" lon="0.99054">
        <ele>213</ele>
        <time>2012-10-14T08:37:18Z</time>
      </trkpt>
      <trkpt lat="44.60031" lon="0.99049">
        <ele>213</ele>
        <time>2012-10-14T08:37:20Z</time>
      </trkpt>
      <trkpt lat="44.60019" lon="0.99046">
        <ele>213</ele>
        <time>2012-10-14T08:37:22Z</time>
      </trkpt>
      <trkpt lat="44.60007" lon="0.99044">
        <ele>213</ele>
        <time>2012-10-14T08:37:24Z</time>
      </trkpt>
      <trkpt lat="44.59998" lon="0.99043">
        <ele>213</ele>
        <time>2012-10-14T08:37:26Z</time>
      </trkpt>
      <trkpt lat="44.59989" lon="0.99041">
        <ele>213</ele>
        <time>2012-10-14T08:37:28Z</time>
      </trkpt>
      <trkpt lat="44.5998" lon="0.99035">
        <ele>213</ele>
        <time>2012-10-14T08:37:30Z</time>
      </trkpt>
      <trkpt lat="44.59973" lon="0.99028">
        <ele>213</ele>
        <time>2012-10-14T08:37:32Z</time>
      </trkpt>
      <trkpt lat="44.59967" lon="0.99022">
        <ele>213</ele>
        <time>2012-10-14T08:37:34Z</time>
      </trkpt>
      <trkpt lat="44.59961" lon="0.99019">
        <ele>213</ele>
        <time>2012-10-14T08:37:36Z</time>
      </trkpt>
      <trkpt lat="44.59957" lon="0.99017">
        <ele>213</ele>
        <time>2012-10-14T08:37:41Z</time>
      </trkpt>
      <trkpt lat="44.59957" lon="0.99015">
        <ele>213</ele>
        <time>2012-10-14T08:37:45Z</time>
      </trkpt>
      <trkpt lat="44.59956" lon="0.99013">
        <ele>213</ele>
        <time>2012-10-14T08:37:47Z</time>
      </trkpt>
      <trkpt lat="44.59956" lon="0.99011">
        <ele>213</ele>
        <time>2012-10-14T08:37:49Z</time>
      </trkpt>
      <trkpt lat="44.59955" lon="0.9901">
        <ele>213</ele>
        <time>2012-10-14T08:37:51Z</time>
      </trkpt>
      <trkpt lat="44.59953" lon="0.99007">
        <ele>213</ele>
        <time>2012-10-14T08:37:53Z</time>
      </trkpt>
      <trkpt lat="44.5995" lon="0.99003">
        <ele>213</ele>
        <time>2012-10-14T08:37:55Z</time>
      </trkpt>
      <trkpt lat="44.59944" lon="0.98999">
        <ele>214</ele>
        <time>2012-10-14T08:37:57Z</time>
      </trkpt>
      <trkpt lat="44.59941" lon="0.98997">
        <ele>214</ele>
        <time>2012-10-14T08:37:59Z</time>
      </trkpt>
      <trkpt lat="44.59938" lon="0.98994">
        <ele>214</ele>
        <time>2012-10-14T08:38:01Z</time>
      </trkpt>
      <trkpt lat="44.59935" lon="0.98993">
        <ele>214</ele>
        <time>2012-10-14T08:38:06Z</time>
      </trkpt>
      <trkpt lat="44.59932" lon="0.98991">
        <ele>214</ele>
        <time>2012-10-14T08:38:09Z</time>
      </trkpt>
      <trkpt lat="44.59929" lon="0.98986">
        <ele>214</ele>
        <time>2012-10-14T08:38:11Z</time>
      </trkpt>
      <trkpt lat="44.59925" lon="0.98982">
        <ele>214</ele>
        <time>2012-10-14T08:38:13Z</time>
      </trkpt>
      <trkpt lat="44.59922" lon="0.98978">
        <ele>216</ele>
        <time>2012-10-14T08:38:15Z</time>
      </trkpt>
      <trkpt lat="44.5992" lon="0.98975">
        <ele>219</ele>
        <time>2012-10-14T08:38:18Z</time>
      </trkpt>
      <trkpt lat="44.59917" lon="0.98972">
        <ele>219</ele>
        <time>2012-10-14T08:38:20Z</time>
      </trkpt>
      <trkpt lat="44.59914" lon="0.98967">
        <ele>219</ele>
        <time>2012-10-14T08:38:23Z</time>
      </trkpt>
      <trkpt lat="44.59909" lon="0.98965">
        <ele>219</ele>
        <time>2012-10-14T08:38:25Z</time>
      </trkpt>
      <trkpt lat="44.59904" lon="0.98962">
        <ele>219</ele>
        <time>2012-10-14T08:38:27Z</time>
      </trkpt>
      <trkpt lat="44.599" lon="0.98959">
        <ele>219</ele>
        <time>2012-10-14T08:38:29Z</time>
      </trkpt>
      <trkpt lat="44.59897" lon="0.98957">
        <ele>218</ele>
        <time>2012-10-14T08:38:31Z</time>
      </trkpt>
      <trkpt lat="44.59894" lon="0.98953">
        <ele>217</ele>
        <time>2012-10-14T08:38:33Z</time>
      </trkpt>
      <trkpt lat="44.59891" lon="0.98949">
        <ele>217</ele>
        <time>2012-10-14T08:38:35Z</time>
      </trkpt>
      <trkpt lat="44.59888" lon="0.98944">
        <ele>217</ele>
        <time>2012-10-14T08:38:37Z</time>
      </trkpt>
      <trkpt lat="44.59883" lon="0.98938">
        <ele>217</ele>
        <time>2012-10-14T08:38:39Z</time>
      </trkpt>
      <trkpt lat="44.59879" lon="0.98934">
        <ele>216</ele>
        <time>2012-10-14T08:38:41Z</time>
      </trkpt>
      <trkpt lat="44.59875" lon="0.98932">
        <ele>214</ele>
        <time>2012-10-14T08:38:43Z</time>
      </trkpt>
      <trkpt lat="44.59872" lon="0.98929">
        <ele>213</ele>
        <time>2012-10-14T08:38:45Z</time>
      </trkpt>
      <trkpt lat="44.59868" lon="0.98927">
        <ele>212</ele>
        <time>2012-10-14T08:38:47Z</time>
      </trkpt>
      <trkpt lat="44.59865" lon="0.98924">
        <ele>212</ele>
        <time>2012-10-14T08:38:49Z</time>
      </trkpt>
      <trkpt lat="44.59861" lon="0.98922">
        <ele>212</ele>
        <time>2012-10-14T08:38:51Z</time>
      </trkpt>
      <trkpt lat="44.59856" lon="0.9892">
        <ele>211</ele>
        <time>2012-10-14T08:38:53Z</time>
      </trkpt>
      <trkpt lat="44.59853" lon="0.98919">
        <ele>210</ele>
        <time>2012-10-14T08:38:55Z</time>
      </trkpt>
      <trkpt lat="44.59849" lon="0.98918">
        <ele>209</ele>
        <time>2012-10-14T08:38:57Z</time>
      </trkpt>
      <trkpt lat="44.59845" lon="0.98916">
        <ele>208</ele>
        <time>2012-10-14T08:38:59Z</time>
      </trkpt>
      <trkpt lat="44.5984" lon="0.98914">
        <ele>207</ele>
        <time>2012-10-14T08:39:01Z</time>
      </trkpt>
      <trkpt lat="44.59837" lon="0.98913">
        <ele>206</ele>
        <time>2012-10-14T08:39:03Z</time>
      </trkpt>
      <trkpt lat="44.59832" lon="0.98912">
        <ele>204</ele>
        <time>2012-10-14T08:39:05Z</time>
      </trkpt>
      <trkpt lat="44.59827" lon="0.98911">
        <ele>203</ele>
        <time>2012-10-14T08:39:07Z</time>
      </trkpt>
      <trkpt lat="44.59822" lon="0.98912">
        <ele>202</ele>
        <time>2012-10-14T08:39:09Z</time>
      </trkpt>
      <trkpt lat="44.59817" lon="0.98913">
        <ele>202</ele>
        <time>2012-10-14T08:39:11Z</time>
      </trkpt>
      <trkpt lat="44.59812" lon="0.98914">
        <ele>202</ele>
        <time>2012-10-14T08:39:13Z</time>
      </trkpt>
      <trkpt lat="44.59805" lon="0.98916">
        <ele>202</ele>
        <time>2012-10-14T08:39:15Z</time>
      </trkpt>
      <trkpt lat="44.59797" lon="0.98916">
        <ele>202</ele>
        <time>2012-10-14T08:39:17Z</time>
      </trkpt>
      <trkpt lat="44.5979" lon="0.98917">
        <ele>202</ele>
        <time>2012-10-14T08:39:19Z</time>
      </trkpt>
      <trkpt lat="44.59784" lon="0.98916">
        <ele>202</ele>
        <time>2012-10-14T08:39:21Z</time>
      </trkpt>
      <trkpt lat="44.59778" lon="0.98914">
        <ele>202</ele>
        <time>2012-10-14T08:39:23Z</time>
      </trkpt>
      <trkpt lat="44.59772" lon="0.98912">
        <ele>204</ele>
        <time>2012-10-14T08:39:25Z</time>
      </trkpt>
      <trkpt lat="44.59766" lon="0.98911">
        <ele>206</ele>
        <time>2012-10-14T08:39:27Z</time>
      </trkpt>
      <trkpt lat="44.5976" lon="0.98911">
        <ele>206</ele>
        <time>2012-10-14T08:39:29Z</time>
      </trkpt>
      <trkpt lat="44.59755" lon="0.9891">
        <ele>208</ele>
        <time>2012-10-14T08:39:31Z</time>
      </trkpt>
      <trkpt lat="44.5975" lon="0.98909">
        <ele>208</ele>
        <time>2012-10-14T08:39:33Z</time>
      </trkpt>
      <trkpt lat="44.59745" lon="0.98907">
        <ele>208</ele>
        <time>2012-10-14T08:39:35Z</time>
      </trkpt>
      <trkpt lat="44.5974" lon="0.98905">
        <ele>208</ele>
        <time>2012-10-14T08:39:37Z</time>
      </trkpt>
      <trkpt lat="44.59734" lon="0.98904">
        <ele>209</ele>
        <time>2012-10-14T08:39:39Z</time>
      </trkpt>
      <trkpt lat="44.59727" lon="0.98901">
        <ele>209</ele>
        <time>2012-10-14T08:39:41Z</time>
      </trkpt>
      <trkpt lat="44.59721" lon="0.98897">
        <ele>209</ele>
        <time>2012-10-14T08:39:43Z</time>
      </trkpt>
      <trkpt lat="44.59716" lon="0.98892">
        <ele>207</ele>
        <time>2012-10-14T08:39:45Z</time>
      </trkpt>
      <trkpt lat="44.5971" lon="0.98888">
        <ele>205</ele>
        <time>2012-10-14T08:39:47Z</time>
      </trkpt>
      <trkpt lat="44.59705" lon="0.98882">
        <ele>202</ele>
        <time>2012-10-14T08:39:50Z</time>
      </trkpt>
      <trkpt lat="44.59701" lon="0.98873">
        <ele>201</ele>
        <time>2012-10-14T08:39:52Z</time>
      </trkpt>
      <trkpt lat="44.59698" lon="0.98867">
        <ele>201</ele>
        <time>2012-10-14T08:39:54Z</time>
      </trkpt>
      <trkpt lat="44.59698" lon="0.98861">
        <ele>201</ele>
        <time>2012-10-14T08:39:56Z</time>
      </trkpt>
      <trkpt lat="44.59697" lon="0.98853">
        <ele>201</ele>
        <time>2012-10-14T08:39:58Z</time>
      </trkpt>
      <trkpt lat="44.59697" lon="0.98843">
        <ele>201</ele>
        <time>2012-10-14T08:40:00Z</time>
      </trkpt>
      <trkpt lat="44.59697" lon="0.98832">
        <ele>201</ele>
        <time>2012-10-14T08:40:02Z</time>
      </trkpt>
      <trkpt lat="44.59698" lon="0.98822">
        <ele>202</ele>
        <time>2012-10-14T08:40:04Z</time>
      </trkpt>
      <trkpt lat="44.59698" lon="0.98816">
        <ele>205</ele>
        <time>2012-10-14T08:40:06Z</time>
      </trkpt>
      <trkpt lat="44.59697" lon="0.98811">
        <ele>209</ele>
        <time>2012-10-14T08:40:08Z</time>
      </trkpt>
      <trkpt lat="44.59696" lon="0.98805">
        <ele>213</ele>
        <time>2012-10-14T08:40:10Z</time>
      </trkpt>
      <trkpt lat="44.59695" lon="0.98799">
        <ele>217</ele>
        <time>2012-10-14T08:40:12Z</time>
      </trkpt>
      <trkpt lat="44.59692" lon="0.98793">
        <ele>220</ele>
        <time>2012-10-14T08:40:14Z</time>
      </trkpt>
      <trkpt lat="44.5969" lon="0.98789">
        <ele>222</ele>
        <time>2012-10-14T08:40:16Z</time>
      </trkpt>
      <trkpt lat="44.59687" lon="0.98786">
        <ele>224</ele>
        <time>2012-10-14T08:40:18Z</time>
      </trkpt>
      <trkpt lat="44.59684" lon="0.98787">
        <ele>224</ele>
        <time>2012-10-14T08:40:20Z</time>
      </trkpt>
      <trkpt lat="44.59682" lon="0.98787">
        <ele>226</ele>
        <time>2012-10-14T08:40:22Z</time>
      </trkpt>
      <trkpt lat="44.5968" lon="0.98788">
        <ele>228</ele>
        <time>2012-10-14T08:40:24Z</time>
      </trkpt>
      <trkpt lat="44.59676" lon="0.98789">
        <ele>229</ele>
        <time>2012-10-14T08:40:26Z</time>
      </trkpt>
      <trkpt lat="44.59674" lon="0.98788">
        <ele>230</ele>
        <time>2012-10-14T08:40:28Z</time>
      </trkpt>
      <trkpt lat="44.59672" lon="0.98789">
        <ele>231</ele>
        <time>2012-10-14T08:40:30Z</time>
      </trkpt>
      <trkpt lat="44.59669" lon="0.98791">
        <ele>232</ele>
        <time>2012-10-14T08:40:32Z</time>
      </trkpt>
      <trkpt lat="44.59667" lon="0.98792">
        <ele>234</ele>
        <time>2012-10-14T08:40:34Z</time>
      </trkpt>
      <trkpt lat="44.59663" lon="0.98795">
        <ele>235</ele>
        <time>2012-10-14T08:40:37Z</time>
      </trkpt>
      <trkpt lat="44.5966" lon="0.98797">
        <ele>236</ele>
        <time>2012-10-14T08:40:39Z</time>
      </trkpt>
      <trkpt lat="44.59657" lon="0.988">
        <ele>237</ele>
        <time>2012-10-14T08:40:42Z</time>
      </trkpt>
      <trkpt lat="44.59654" lon="0.98802">
        <ele>237</ele>
        <time>2012-10-14T08:40:44Z</time>
      </trkpt>
      <trkpt lat="44.59651" lon="0.98803">
        <ele>237</ele>
        <time>2012-10-14T08:40:46Z</time>
      </trkpt>
      <trkpt lat="44.59647" lon="0.98806">
        <ele>237</ele>
        <time>2012-10-14T08:40:48Z</time>
      </trkpt>
      <trkpt lat="44.59644" lon="0.98808">
        <ele>237</ele>
        <time>2012-10-14T08:40:50Z</time>
      </trkpt>
      <trkpt lat="44.59642" lon="0.98809">
        <ele>237</ele>
        <time>2012-10-14T08:40:52Z</time>
      </trkpt>
      <trkpt lat="44.59637" lon="0.9881">
        <ele>236</ele>
        <time>2012-10-14T08:40:55Z</time>
      </trkpt>
      <trkpt lat="44.59634" lon="0.9881">
        <ele>235</ele>
        <time>2012-10-14T08:40:57Z</time>
      </trkpt>
      <trkpt lat="44.5963" lon="0.9881">
        <ele>234</ele>
        <time>2012-10-14T08:40:59Z</time>
      </trkpt>
      <trkpt lat="44.59626" lon="0.98809">
        <ele>233</ele>
        <time>2012-10-14T08:41:01Z</time>
      </trkpt>
      <trkpt lat="44.59622" lon="0.98809">
        <ele>231</ele>
        <time>2012-10-14T08:41:03Z</time>
      </trkpt>
      <trkpt lat="44.59618" lon="0.98808">
        <ele>230</ele>
        <time>2012-10-14T08:41:05Z</time>
      </trkpt>
      <trkpt lat="44.59615" lon="0.98806">
        <ele>228</ele>
        <time>2012-10-14T08:41:07Z</time>
      </trkpt>
      <trkpt lat="44.59613" lon="0.98803">
        <ele>228</ele>
        <time>2012-10-14T08:41:13Z</time>
      </trkpt>
      <trkpt lat="44.59611" lon="0.98804">
        <ele>228</ele>
        <time>2012-10-14T08:41:17Z</time>
      </trkpt>
      <trkpt lat="44.59613" lon="0.98804">
        <ele>228</ele>
        <time>2012-10-14T08:41:19Z</time>
      </trkpt>
      <trkpt lat="44.59611" lon="0.98804">
        <ele>230</ele>
        <time>2012-10-14T08:41:23Z</time>
      </trkpt>
      <trkpt lat="44.5961" lon="0.98805">
        <ele>234</ele>
        <time>2012-10-14T08:41:33Z</time>
      </trkpt>
      <trkpt lat="44.59609" lon="0.98803">
        <ele>237</ele>
        <time>2012-10-14T08:41:42Z</time>
      </trkpt>
      <trkpt lat="44.59609" lon="0.98804">
        <ele>240</ele>
        <time>2012-10-14T08:41:47Z</time>
      </trkpt>
      <trkpt lat="44.59608" lon="0.98804">
        <ele>241</ele>
        <time>2012-10-14T08:41:51Z</time>
      </trkpt>
      <trkpt lat="44.59604" lon="0.98803">
        <ele>241</ele>
        <time>2012-10-14T08:41:53Z</time>
      </trkpt>
      <trkpt lat="44.59599" lon="0.988">
        <ele>241</ele>
        <time>2012-10-14T08:41:56Z</time>
      </trkpt>
      <trkpt lat="44.59594" lon="0.98798">
        <ele>241</ele>
        <time>2012-10-14T08:41:58Z</time>
      </trkpt>
      <trkpt lat="44.59589" lon="0.98796">
        <ele>241</ele>
        <time>2012-10-14T08:42:00Z</time>
      </trkpt>
      <trkpt lat="44.59584" lon="0.98794">
        <ele>241</ele>
        <time>2012-10-14T08:42:02Z</time>
      </trkpt>
      <trkpt lat="44.59579" lon="0.98793">
        <ele>241</ele>
        <time>2012-10-14T08:42:04Z</time>
      </trkpt>
      <trkpt lat="44.5957" lon="0.98792">
        <ele>241</ele>
        <time>2012-10-14T08:42:07Z</time>
      </trkpt>
      <trkpt lat="44.59564" lon="0.98794">
        <ele>240</ele>
        <time>2012-10-14T08:42:09Z</time>
      </trkpt>
      <trkpt lat="44.59555" lon="0.98797">
        <ele>240</ele>
        <time>2012-10-14T08:42:11Z</time>
      </trkpt>
      <trkpt lat="44.59548" lon="0.98799">
        <ele>238</ele>
        <time>2012-10-14T08:42:14Z</time>
      </trkpt>
      <trkpt lat="44.5954" lon="0.988">
        <ele>237</ele>
        <time>2012-10-14T08:42:16Z</time>
      </trkpt>
      <trkpt lat="44.59531" lon="0.98792">
        <ele>235</ele>
        <time>2012-10-14T08:42:19Z</time>
      </trkpt>
      <trkpt lat="44.59526" lon="0.98783">
        <ele>233</ele>
        <time>2012-10-14T08:42:21Z</time>
      </trkpt>
      <trkpt lat="44.59522" lon="0.98771">
        <ele>232</ele>
        <time>2012-10-14T08:42:23Z</time>
      </trkpt>
      <trkpt lat="44.59513" lon="0.98756">
        <ele>231</ele>
        <time>2012-10-14T08:42:26Z</time>
      </trkpt>
      <trkpt lat="44.59504" lon="0.98747">
        <ele>230</ele>
        <time>2012-10-14T08:42:28Z</time>
      </trkpt>
      <trkpt lat="44.59493" lon="0.98734">
        <ele>227</ele>
        <time>2012-10-14T08:42:31Z</time>
      </trkpt>
      <trkpt lat="44.59483" lon="0.98727">
        <ele>226</ele>
        <time>2012-10-14T08:42:33Z</time>
      </trkpt>
      <trkpt lat="44.59474" lon="0.98726">
        <ele>225</ele>
        <time>2012-10-14T08:42:35Z</time>
      </trkpt>
      <trkpt lat="44.59464" lon="0.98728">
        <ele>224</ele>
        <time>2012-10-14T08:42:37Z</time>
      </trkpt>
      <trkpt lat="44.59452" lon="0.9873">
        <ele>222</ele>
        <time>2012-10-14T08:42:39Z</time>
      </trkpt>
      <trkpt lat="44.59434" lon="0.98721">
        <ele>219</ele>
        <time>2012-10-14T08:42:42Z</time>
      </trkpt>
      <trkpt lat="44.59424" lon="0.98715">
        <ele>217</ele>
        <time>2012-10-14T08:42:44Z</time>
      </trkpt>
      <trkpt lat="44.59412" lon="0.98708">
        <ele>215</ele>
        <time>2012-10-14T08:42:46Z</time>
      </trkpt>
      <trkpt lat="44.59401" lon="0.98699">
        <ele>213</ele>
        <time>2012-10-14T08:42:48Z</time>
      </trkpt>
      <trkpt lat="44.59393" lon="0.98686">
        <ele>213</ele>
        <time>2012-10-14T08:42:50Z</time>
      </trkpt>
      <trkpt lat="44.59386" lon="0.98674">
        <ele>213</ele>
        <time>2012-10-14T08:42:52Z</time>
      </trkpt>
      <trkpt lat="44.59376" lon="0.98657">
        <ele>213</ele>
        <time>2012-10-14T08:42:55Z</time>
      </trkpt>
      <trkpt lat="44.59365" lon="0.98641">
        <ele>211</ele>
        <time>2012-10-14T08:42:57Z</time>
      </trkpt>
      <trkpt lat="44.59358" lon="0.9863">
        <ele>209</ele>
        <time>2012-10-14T08:43:00Z</time>
      </trkpt>
      <trkpt lat="44.59352" lon="0.98618">
        <ele>209</ele>
        <time>2012-10-14T08:43:02Z</time>
      </trkpt>
      <trkpt lat="44.59348" lon="0.98605">
        <ele>209</ele>
        <time>2012-10-14T08:43:04Z</time>
      </trkpt>
      <trkpt lat="44.59343" lon="0.98589">
        <ele>209</ele>
        <time>2012-10-14T08:43:06Z</time>
      </trkpt>
      <trkpt lat="44.59338" lon="0.98575">
        <ele>209</ele>
        <time>2012-10-14T08:43:08Z</time>
      </trkpt>
      <trkpt lat="44.59334" lon="0.98563">
        <ele>209</ele>
        <time>2012-10-14T08:43:10Z</time>
      </trkpt>
      <trkpt lat="44.59329" lon="0.98553">
        <ele>210</ele>
        <time>2012-10-14T08:43:12Z</time>
      </trkpt>
      <trkpt lat="44.59324" lon="0.98537">
        <ele>211</ele>
        <time>2012-10-14T08:43:14Z</time>
      </trkpt>
      <trkpt lat="44.59324" lon="0.98526">
        <ele>212</ele>
        <time>2012-10-14T08:43:17Z</time>
      </trkpt>
      <trkpt lat="44.59325" lon="0.98507">
        <ele>214</ele>
        <time>2012-10-14T08:43:20Z</time>
      </trkpt>
      <trkpt lat="44.59322" lon="0.98495">
        <ele>215</ele>
        <time>2012-10-14T08:43:22Z</time>
      </trkpt>
      <trkpt lat="44.59318" lon="0.98485">
        <ele>215</ele>
        <time>2012-10-14T08:43:24Z</time>
      </trkpt>
      <trkpt lat="44.59312" lon="0.9847">
        <ele>215</ele>
        <time>2012-10-14T08:43:27Z</time>
      </trkpt>
      <trkpt lat="44.59306" lon="0.98456">
        <ele>216</ele>
        <time>2012-10-14T08:43:29Z</time>
      </trkpt>
      <trkpt lat="44.59301" lon="0.98447">
        <ele>217</ele>
        <time>2012-10-14T08:43:32Z</time>
      </trkpt>
      <trkpt lat="44.59297" lon="0.98438">
        <ele>217</ele>
        <time>2012-10-14T08:43:34Z</time>
      </trkpt>
      <trkpt lat="44.5929" lon="0.98425">
        <ele>218</ele>
        <time>2012-10-14T08:43:37Z</time>
      </trkpt>
      <trkpt lat="44.59285" lon="0.98413">
        <ele>218</ele>
        <time>2012-10-14T08:43:40Z</time>
      </trkpt>
      <trkpt lat="44.59281" lon="0.98405">
        <ele>218</ele>
        <time>2012-10-14T08:43:42Z</time>
      </trkpt>
      <trkpt lat="44.59278" lon="0.98396">
        <ele>218</ele>
        <time>2012-10-14T08:43:44Z</time>
      </trkpt>
      <trkpt lat="44.59273" lon="0.98386">
        <ele>218</ele>
        <time>2012-10-14T08:43:46Z</time>
      </trkpt>
      <trkpt lat="44.5927" lon="0.98376">
        <ele>218</ele>
        <time>2012-10-14T08:43:48Z</time>
      </trkpt>
      <trkpt lat="44.59267" lon="0.98366">
        <ele>218</ele>
        <time>2012-10-14T08:43:50Z</time>
      </trkpt>
      <trkpt lat="44.59264" lon="0.98356">
        <ele>219</ele>
        <time>2012-10-14T08:43:52Z</time>
      </trkpt>
      <trkpt lat="44.59264" lon="0.98348">
        <ele>219</ele>
        <time>2012-10-14T08:43:54Z</time>
      </trkpt>
      <trkpt lat="44.59266" lon="0.98343">
        <ele>221</ele>
        <time>2012-10-14T08:43:56Z</time>
      </trkpt>
      <trkpt lat="44.59267" lon="0.98343">
        <ele>222</ele>
        <time>2012-10-14T08:44:03Z</time>
      </trkpt>
      <trkpt lat="44.59267" lon="0.98342">
        <ele>223</ele>
        <time>2012-10-14T08:44:14Z</time>
      </trkpt>
      <trkpt lat="44.59267" lon="0.98343">
        <ele>224</ele>
        <time>2012-10-14T08:44:22Z</time>
      </trkpt>
      <trkpt lat="44.59265" lon="0.98345">
        <ele>225</ele>
        <time>2012-10-14T08:44:25Z</time>
      </trkpt>
      <trkpt lat="44.59267" lon="0.98343">
        <ele>227</ele>
        <time>2012-10-14T08:44:31Z</time>
      </trkpt>
      <trkpt lat="44.59275" lon="0.98337">
        <ele>229</ele>
        <time>2012-10-14T08:44:33Z</time>
      </trkpt>
      <trkpt lat="44.59282" lon="0.98332">
        <ele>231</ele>
        <time>2012-10-14T08:44:36Z</time>
      </trkpt>
      <trkpt lat="44.59292" lon="0.98323">
        <ele>233</ele>
        <time>2012-10-14T08:44:38Z</time>
      </trkpt>
      <trkpt lat="44.59297" lon="0.98315">
        <ele>234</ele>
        <time>2012-10-14T08:44:41Z</time>
      </trkpt>
      <trkpt lat="44.59304" lon="0.98299">
        <ele>234</ele>
        <time>2012-10-14T08:44:43Z</time>
      </trkpt>
      <trkpt lat="44.5931" lon="0.98287">
        <ele>234</ele>
        <time>2012-10-14T08:44:46Z</time>
      </trkpt>
      <trkpt lat="44.5932" lon="0.98267">
        <ele>234</ele>
        <time>2012-10-14T08:44:48Z</time>
      </trkpt>
      <trkpt lat="44.59325" lon="0.98251">
        <ele>234</ele>
        <time>2012-10-14T08:44:51Z</time>
      </trkpt>
      <trkpt lat="44.59334" lon="0.98225">
        <ele>234</ele>
        <time>2012-10-14T08:44:53Z</time>
      </trkpt>
      <trkpt lat="44.5934" lon="0.98208">
        <ele>234</ele>
        <time>2012-10-14T08:44:56Z</time>
      </trkpt>
      <trkpt lat="44.59349" lon="0.98185">
        <ele>234</ele>
        <time>2012-10-14T08:44:58Z</time>
      </trkpt>
      <trkpt lat="44.59356" lon="0.98171">
        <ele>234</ele>
        <time>2012-10-14T08:45:01Z</time>
      </trkpt>
      <trkpt lat="44.59367" lon="0.98149">
        <ele>235</ele>
        <time>2012-10-14T08:45:03Z</time>
      </trkpt>
      <trkpt lat="44.59363" lon="0.98142">
        <ele>235</ele>
        <time>2012-10-14T08:45:06Z</time>
      </trkpt>
      <trkpt lat="44.59356" lon="0.98132">
        <ele>235</ele>
        <time>2012-10-14T08:45:08Z</time>
      </trkpt>
      <trkpt lat="44.59351" lon="0.9812">
        <ele>235</ele>
        <time>2012-10-14T08:45:11Z</time>
      </trkpt>
      <trkpt lat="44.59345" lon="0.98099">
        <ele>235</ele>
        <time>2012-10-14T08:45:13Z</time>
      </trkpt>
      <trkpt lat="44.5934" lon="0.98084">
        <ele>235</ele>
        <time>2012-10-14T08:45:16Z</time>
      </trkpt>
      <trkpt lat="44.59329" lon="0.98047">
        <ele>235</ele>
        <time>2012-10-14T08:45:18Z</time>
      </trkpt>
      <trkpt lat="44.59318" lon="0.98027">
        <ele>235</ele>
        <time>2012-10-14T08:45:21Z</time>
      </trkpt>
      <trkpt lat="44.59303" lon="0.98006">
        <ele>234</ele>
        <time>2012-10-14T08:45:23Z</time>
      </trkpt>
      <trkpt lat="44.59294" lon="0.97996">
        <ele>234</ele>
        <time>2012-10-14T08:45:25Z</time>
      </trkpt>
      <trkpt lat="44.59287" lon="0.97987">
        <ele>234</ele>
        <time>2012-10-14T08:45:27Z</time>
      </trkpt>
      <trkpt lat="44.5928" lon="0.97976">
        <ele>233</ele>
        <time>2012-10-14T08:45:29Z</time>
      </trkpt>
      <trkpt lat="44.59273" lon="0.9796">
        <ele>232</ele>
        <time>2012-10-14T08:45:31Z</time>
      </trkpt>
      <trkpt lat="44.59271" lon="0.97942">
        <ele>232</ele>
        <time>2012-10-14T08:45:33Z</time>
      </trkpt>
      <trkpt lat="44.59275" lon="0.97925">
        <ele>232</ele>
        <time>2012-10-14T08:45:35Z</time>
      </trkpt>
      <trkpt lat="44.59275" lon="0.97909">
        <ele>232</ele>
        <time>2012-10-14T08:45:37Z</time>
      </trkpt>
      <trkpt lat="44.59276" lon="0.97892">
        <ele>231</ele>
        <time>2012-10-14T08:45:39Z</time>
      </trkpt>
      <trkpt lat="44.5927" lon="0.97876">
        <ele>231</ele>
        <time>2012-10-14T08:45:41Z</time>
      </trkpt>
      <trkpt lat="44.59264" lon="0.97863">
        <ele>231</ele>
        <time>2012-10-14T08:45:43Z</time>
      </trkpt>
      <trkpt lat="44.59257" lon="0.97846">
        <ele>231</ele>
        <time>2012-10-14T08:45:46Z</time>
      </trkpt>
      <trkpt lat="44.5925" lon="0.97817">
        <ele>231</ele>
        <time>2012-10-14T08:45:48Z</time>
      </trkpt>
      <trkpt lat="44.59242" lon="0.97796">
        <ele>231</ele>
        <time>2012-10-14T08:45:51Z</time>
      </trkpt>
      <trkpt lat="44.59238" lon="0.97768">
        <ele>231</ele>
        <time>2012-10-14T08:45:53Z</time>
      </trkpt>
      <trkpt lat="44.59237" lon="0.97754">
        <ele>231</ele>
        <time>2012-10-14T08:45:56Z</time>
      </trkpt>
      <trkpt lat="44.59233" lon="0.97742">
        <ele>231</ele>
        <time>2012-10-14T08:45:58Z</time>
      </trkpt>
      <trkpt lat="44.5923" lon="0.97738">
        <ele>227</ele>
        <time>2012-10-14T08:46:02Z</time>
      </trkpt>
      <trkpt lat="44.59231" lon="0.97737">
        <ele>224</ele>
        <time>2012-10-14T08:46:05Z</time>
      </trkpt>
      <trkpt lat="44.59231" lon="0.97735">
        <ele>223</ele>
        <time>2012-10-14T08:46:07Z</time>
      </trkpt>
      <trkpt lat="44.59233" lon="0.97736">
        <ele>223</ele>
        <time>2012-10-14T08:46:10Z</time>
      </trkpt>
      <trkpt lat="44.59235" lon="0.97737">
        <ele>223</ele>
        <time>2012-10-14T08:46:12Z</time>
      </trkpt>
      <trkpt lat="44.59236" lon="0.97737">
        <ele>224</ele>
        <time>2012-10-14T08:46:14Z</time>
      </trkpt>
      <trkpt lat="44.59235" lon="0.97736">
        <ele>224</ele>
        <time>2012-10-14T08:46:24Z</time>
      </trkpt>
      <trkpt lat="44.59236" lon="0.97735">
        <ele>223</ele>
        <time>2012-10-14T08:46:29Z</time>
      </trkpt>
      <trkpt lat="44.59235" lon="0.97737">
        <ele>223</ele>
        <time>2012-10-14T08:46:32Z</time>
      </trkpt>
      <trkpt lat="44.59234" lon="0.97739">
        <ele>223</ele>
        <time>2012-10-14T08:46:34Z</time>
      </trkpt>
      <trkpt lat="44.59235" lon="0.9774">
        <ele>223</ele>
        <time>2012-10-14T08:46:37Z</time>
      </trkpt>
      <trkpt lat="44.59239" lon="0.97737">
        <ele>223</ele>
        <time>2012-10-14T08:46:40Z</time>
      </trkpt>
      <trkpt lat="44.59246" lon="0.97733">
        <ele>223</ele>
        <time>2012-10-14T08:46:42Z</time>
      </trkpt>
      <trkpt lat="44.59252" lon="0.97728">
        <ele>223</ele>
        <time>2012-10-14T08:46:45Z</time>
      </trkpt>
      <trkpt lat="44.59267" lon="0.97711">
        <ele>223</ele>
        <time>2012-10-14T08:46:47Z</time>
      </trkpt>
      <trkpt lat="44.59279" lon="0.97697">
        <ele>224</ele>
        <time>2012-10-14T08:46:49Z</time>
      </trkpt>
      <trkpt lat="44.59288" lon="0.97684">
        <ele>226</ele>
        <time>2012-10-14T08:46:51Z</time>
      </trkpt>
      <trkpt lat="44.59298" lon="0.97672">
        <ele>228</ele>
        <time>2012-10-14T08:46:53Z</time>
      </trkpt>
      <trkpt lat="44.59306" lon="0.97671">
        <ele>230</ele>
        <time>2012-10-14T08:46:55Z</time>
      </trkpt>
      <trkpt lat="44.59315" lon="0.97681">
        <ele>232</ele>
        <time>2012-10-14T08:46:57Z</time>
      </trkpt>
      <trkpt lat="44.59325" lon="0.97683">
        <ele>234</ele>
        <time>2012-10-14T08:46:59Z</time>
      </trkpt>
      <trkpt lat="44.59333" lon="0.97678">
        <ele>234</ele>
        <time>2012-10-14T08:47:01Z</time>
      </trkpt>
      <trkpt lat="44.59337" lon="0.97666">
        <ele>233</ele>
        <time>2012-10-14T08:47:03Z</time>
      </trkpt>
      <trkpt lat="44.59341" lon="0.97647">
        <ele>231</ele>
        <time>2012-10-14T08:47:05Z</time>
      </trkpt>
      <trkpt lat="44.59349" lon="0.97628">
        <ele>227</ele>
        <time>2012-10-14T08:47:07Z</time>
      </trkpt>
      <trkpt lat="44.59361" lon="0.97606">
        <ele>223</ele>
        <time>2012-10-14T08:47:09Z</time>
      </trkpt>
      <trkpt lat="44.59366" lon="0.9759">
        <ele>219</ele>
        <time>2012-10-14T08:47:11Z</time>
      </trkpt>
      <trkpt lat="44.59369" lon="0.97578">
        <ele>215</ele>
        <time>2012-10-14T08:47:13Z</time>
      </trkpt>
      <trkpt lat="44.59379" lon="0.97562">
        <ele>211</ele>
        <time>2012-10-14T08:47:15Z</time>
      </trkpt>
      <trkpt lat="44.59387" lon="0.9755">
        <ele>209</ele>
        <time>2012-10-14T08:47:17Z</time>
      </trkpt>
      <trkpt lat="44.59395" lon="0.9754">
        <ele>207</ele>
        <time>2012-10-14T08:47:20Z</time>
      </trkpt>
      <trkpt lat="44.59405" lon="0.97522">
        <ele>204</ele>
        <time>2012-10-14T08:47:22Z</time>
      </trkpt>
      <trkpt lat="44.5941" lon="0.9751">
        <ele>203</ele>
        <time>2012-10-14T08:47:24Z</time>
      </trkpt>
      <trkpt lat="44.59415" lon="0.97499">
        <ele>203</ele>
        <time>2012-10-14T08:47:26Z</time>
      </trkpt>
      <trkpt lat="44.59423" lon="0.97487">
        <ele>202</ele>
        <time>2012-10-14T08:47:28Z</time>
      </trkpt>
      <trkpt lat="44.59432" lon="0.97474">
        <ele>202</ele>
        <time>2012-10-14T08:47:30Z</time>
      </trkpt>
      <trkpt lat="44.59441" lon="0.9746">
        <ele>202</ele>
        <time>2012-10-14T08:47:32Z</time>
      </trkpt>
      <trkpt lat="44.59452" lon="0.97448">
        <ele>202</ele>
        <time>2012-10-14T08:47:34Z</time>
      </trkpt>
      <trkpt lat="44.59461" lon="0.97438">
        <ele>202</ele>
        <time>2012-10-14T08:47:36Z</time>
      </trkpt>
      <trkpt lat="44.5947" lon="0.97426">
        <ele>201</ele>
        <time>2012-10-14T08:47:38Z</time>
      </trkpt>
      <trkpt lat="44.59478" lon="0.97415">
        <ele>200</ele>
        <time>2012-10-14T08:47:40Z</time>
      </trkpt>
      <trkpt lat="44.5949" lon="0.97403">
        <ele>198</ele>
        <time>2012-10-14T08:47:42Z</time>
      </trkpt>
      <trkpt lat="44.59504" lon="0.97393">
        <ele>198</ele>
        <time>2012-10-14T08:47:44Z</time>
      </trkpt>
      <trkpt lat="44.59519" lon="0.97381">
        <ele>198</ele>
        <time>2012-10-14T08:47:46Z</time>
      </trkpt>
      <trkpt lat="44.59533" lon="0.97366">
        <ele>198</ele>
        <time>2012-10-14T08:47:48Z</time>
      </trkpt>
      <trkpt lat="44.59548" lon="0.97351">
        <ele>198</ele>
        <time>2012-10-14T08:47:50Z</time>
      </trkpt>
      <trkpt lat="44.5956" lon="0.97334">
        <ele>198</ele>
        <time>2012-10-14T08:47:52Z</time>
      </trkpt>
      <trkpt lat="44.59566" lon="0.97319">
        <ele>199</ele>
        <time>2012-10-14T08:47:54Z</time>
      </trkpt>
      <trkpt lat="44.59574" lon="0.97308">
        <ele>201</ele>
        <time>2012-10-14T08:47:56Z</time>
      </trkpt>
      <trkpt lat="44.59583" lon="0.97303">
        <ele>203</ele>
        <time>2012-10-14T08:47:58Z</time>
      </trkpt>
      <trkpt lat="44.59595" lon="0.97294">
        <ele>203</ele>
        <time>2012-10-14T08:48:00Z</time>
      </trkpt>
      <trkpt lat="44.59609" lon="0.97277">
        <ele>203</ele>
        <time>2012-10-14T08:48:02Z</time>
      </trkpt>
      <trkpt lat="44.59619" lon="0.97263">
        <ele>203</ele>
        <time>2012-10-14T08:48:04Z</time>
      </trkpt>
      <trkpt lat="44.59628" lon="0.97248">
        <ele>202</ele>
        <time>2012-10-14T08:48:06Z</time>
      </trkpt>
      <trkpt lat="44.59639" lon="0.97234">
        <ele>200</ele>
        <time>2012-10-14T08:48:08Z</time>
      </trkpt>
      <trkpt lat="44.59649" lon="0.97224">
        <ele>200</ele>
        <time>2012-10-14T08:48:10Z</time>
      </trkpt>
      <trkpt lat="44.5966" lon="0.97211">
        <ele>199</ele>
        <time>2012-10-14T08:48:12Z</time>
      </trkpt>
      <trkpt lat="44.59671" lon="0.97189">
        <ele>197</ele>
        <time>2012-10-14T08:48:14Z</time>
      </trkpt>
      <trkpt lat="44.59678" lon="0.97168">
        <ele>195</ele>
        <time>2012-10-14T08:48:16Z</time>
      </trkpt>
      <trkpt lat="44.59685" lon="0.97147">
        <ele>191</ele>
        <time>2012-10-14T08:48:18Z</time>
      </trkpt>
      <trkpt lat="44.59692" lon="0.97127">
        <ele>188</ele>
        <time>2012-10-14T08:48:20Z</time>
      </trkpt>
      <trkpt lat="44.59698" lon="0.97108">
        <ele>186</ele>
        <time>2012-10-14T08:48:22Z</time>
      </trkpt>
      <trkpt lat="44.59705" lon="0.97089">
        <ele>184</ele>
        <time>2012-10-14T08:48:24Z</time>
      </trkpt>
      <trkpt lat="44.59711" lon="0.97069">
        <ele>182</ele>
        <time>2012-10-14T08:48:26Z</time>
      </trkpt>
      <trkpt lat="44.59717" lon="0.97049">
        <ele>180</ele>
        <time>2012-10-14T08:48:28Z</time>
      </trkpt>
      <trkpt lat="44.59724" lon="0.97029">
        <ele>178</ele>
        <time>2012-10-14T08:48:30Z</time>
      </trkpt>
      <trkpt lat="44.59727" lon="0.97013">
        <ele>176</ele>
        <time>2012-10-14T08:48:32Z</time>
      </trkpt>
      <trkpt lat="44.59728" lon="0.96997">
        <ele>174</ele>
        <time>2012-10-14T08:48:34Z</time>
      </trkpt>
      <trkpt lat="44.59724" lon="0.96982">
        <ele>171</ele>
        <time>2012-10-14T08:48:36Z</time>
      </trkpt>
      <trkpt lat="44.59717" lon="0.96965">
        <ele>168</ele>
        <time>2012-10-14T08:48:38Z</time>
      </trkpt>
      <trkpt lat="44.5971" lon="0.96948">
        <ele>165</ele>
        <time>2012-10-14T08:48:40Z</time>
      </trkpt>
      <trkpt lat="44.59701" lon="0.96931">
        <ele>161</ele>
        <time>2012-10-14T08:48:42Z</time>
      </trkpt>
      <trkpt lat="44.59695" lon="0.96916">
        <ele>158</ele>
        <time>2012-10-14T08:48:44Z</time>
      </trkpt>
      <trkpt lat="44.59694" lon="0.96904">
        <ele>156</ele>
        <time>2012-10-14T08:48:46Z</time>
      </trkpt>
      <trkpt lat="44.59695" lon="0.96896">
        <ele>154</ele>
        <time>2012-10-14T08:48:48Z</time>
      </trkpt>
      <trkpt lat="44.597" lon="0.96894">
        <ele>154</ele>
        <time>2012-10-14T08:48:50Z</time>
      </trkpt>
      <trkpt lat="44.59703" lon="0.96892">
        <ele>156</ele>
        <time>2012-10-14T08:48:53Z</time>
      </trkpt>
      <trkpt lat="44.59705" lon="0.9689">
        <ele>159</ele>
        <time>2012-10-14T08:48:56Z</time>
      </trkpt>
      <trkpt lat="44.59706" lon="0.96892">
        <ele>166</ele>
        <time>2012-10-14T08:49:03Z</time>
      </trkpt>
      <trkpt lat="44.59705" lon="0.96894">
        <ele>168</ele>
        <time>2012-10-14T08:49:08Z</time>
      </trkpt>
      <trkpt lat="44.59704" lon="0.96895">
        <ele>168</ele>
        <time>2012-10-14T08:49:20Z</time>
      </trkpt>
      <trkpt lat="44.59705" lon="0.96894">
        <ele>168</ele>
        <time>2012-10-14T08:49:26Z</time>
      </trkpt>
      <trkpt lat="44.59706" lon="0.96891">
        <ele>168</ele>
        <time>2012-10-14T08:49:41Z</time>
      </trkpt>
      <trkpt lat="44.59708" lon="0.96885">
        <ele>168</ele>
        <time>2012-10-14T08:49:43Z</time>
      </trkpt>
      <trkpt lat="44.59712" lon="0.96876">
        <ele>168</ele>
        <time>2012-10-14T08:49:45Z</time>
      </trkpt>
      <trkpt lat="44.59718" lon="0.96867">
        <ele>166</ele>
        <time>2012-10-14T08:49:47Z</time>
      </trkpt>
      <trkpt lat="44.59728" lon="0.96859">
        <ele>165</ele>
        <time>2012-10-14T08:49:49Z</time>
      </trkpt>
      <trkpt lat="44.59738" lon="0.96855">
        <ele>164</ele>
        <time>2012-10-14T08:49:51Z</time>
      </trkpt>
      <trkpt lat="44.59745" lon="0.96849">
        <ele>163</ele>
        <time>2012-10-14T08:49:53Z</time>
      </trkpt>
      <trkpt lat="44.59752" lon="0.96841">
        <ele>163</ele>
        <time>2012-10-14T08:49:55Z</time>
      </trkpt>
      <trkpt lat="44.5976" lon="0.96839">
        <ele>163</ele>
        <time>2012-10-14T08:49:57Z</time>
      </trkpt>
      <trkpt lat="44.59765" lon="0.96841">
        <ele>163</ele>
        <time>2012-10-14T08:49:59Z</time>
      </trkpt>
      <trkpt lat="44.59774" lon="0.96847">
        <ele>163</ele>
        <time>2012-10-14T08:50:01Z</time>
      </trkpt>
      <trkpt lat="44.59782" lon="0.96855">
        <ele>163</ele>
        <time>2012-10-14T08:50:03Z</time>
      </trkpt>
      <trkpt lat="44.59791" lon="0.96864">
        <ele>163</ele>
        <time>2012-10-14T08:50:05Z</time>
      </trkpt>
      <trkpt lat="44.598" lon="0.96874">
        <ele>163</ele>
        <time>2012-10-14T08:50:07Z</time>
      </trkpt>
      <trkpt lat="44.59808" lon="0.96885">
        <ele>163</ele>
        <time>2012-10-14T08:50:09Z</time>
      </trkpt>
      <trkpt lat="44.59816" lon="0.96896">
        <ele>163</ele>
        <time>2012-10-14T08:50:11Z</time>
      </trkpt>
      <trkpt lat="44.59822" lon="0.96907">
        <ele>162</ele>
        <time>2012-10-14T08:50:13Z</time>
      </trkpt>
      <trkpt lat="44.5983" lon="0.96919">
        <ele>161</ele>
        <time>2012-10-14T08:50:15Z</time>
      </trkpt>
      <trkpt lat="44.59839" lon="0.96932">
        <ele>160</ele>
        <time>2012-10-14T08:50:17Z</time>
      </trkpt>
      <trkpt lat="44.59847" lon="0.96942">
        <ele>160</ele>
        <time>2012-10-14T08:50:19Z</time>
      </trkpt>
      <trkpt lat="44.59854" lon="0.96951">
        <ele>159</ele>
        <time>2012-10-14T08:50:21Z</time>
      </trkpt>
      <trkpt lat="44.5986" lon="0.96958">
        <ele>159</ele>
        <time>2012-10-14T08:50:23Z</time>
      </trkpt>
      <trkpt lat="44.59862" lon="0.96966">
        <ele>159</ele>
        <time>2012-10-14T08:50:25Z</time>
      </trkpt>
      <trkpt lat="44.59864" lon="0.96974">
        <ele>159</ele>
        <time>2012-10-14T08:50:27Z</time>
      </trkpt>
      <trkpt lat="44.59863" lon="0.96983">
        <ele>159</ele>
        <time>2012-10-14T08:50:29Z</time>
      </trkpt>
      <trkpt lat="44.59862" lon="0.96988">
        <ele>159</ele>
        <time>2012-10-14T08:50:31Z</time>
      </trkpt>
      <trkpt lat="44.59865" lon="0.96992">
        <ele>157</ele>
        <time>2012-10-14T08:50:33Z</time>
      </trkpt>
      <trkpt lat="44.59873" lon="0.96992">
        <ele>156</ele>
        <time>2012-10-14T08:50:35Z</time>
      </trkpt>
      <trkpt lat="44.59882" lon="0.96991">
        <ele>155</ele>
        <time>2012-10-14T08:50:37Z</time>
      </trkpt>
      <trkpt lat="44.59889" lon="0.96991">
        <ele>154</ele>
        <time>2012-10-14T08:50:39Z</time>
      </trkpt>
      <trkpt lat="44.59893" lon="0.96998">
        <ele>152</ele>
        <time>2012-10-14T08:50:41Z</time>
      </trkpt>
      <trkpt lat="44.59898" lon="0.97005">
        <ele>150</ele>
        <time>2012-10-14T08:50:43Z</time>
      </trkpt>
      <trkpt lat="44.59904" lon="0.9701">
        <ele>148</ele>
        <time>2012-10-14T08:50:45Z</time>
      </trkpt>
      <trkpt lat="44.5991" lon="0.97015">
        <ele>146</ele>
        <time>2012-10-14T08:50:47Z</time>
      </trkpt>
      <trkpt lat="44.59916" lon="0.97019">
        <ele>144</ele>
        <time>2012-10-14T08:50:49Z</time>
      </trkpt>
      <trkpt lat="44.59921" lon="0.97024">
        <ele>142</ele>
        <time>2012-10-14T08:50:51Z</time>
      </trkpt>
      <trkpt lat="44.59928" lon="0.97026">
        <ele>140</ele>
        <time>2012-10-14T08:50:53Z</time>
      </trkpt>
      <trkpt lat="44.59932" lon="0.9703">
        <ele>139</ele>
        <time>2012-10-14T08:50:55Z</time>
      </trkpt>
      <trkpt lat="44.59934" lon="0.97035">
        <ele>139</ele>
        <time>2012-10-14T08:50:57Z</time>
      </trkpt>
      <trkpt lat="44.59936" lon="0.97044">
        <ele>137</ele>
        <time>2012-10-14T08:50:59Z</time>
      </trkpt>
      <trkpt lat="44.59937" lon="0.97053">
        <ele>135</ele>
        <time>2012-10-14T08:51:01Z</time>
      </trkpt>
      <trkpt lat="44.59942" lon="0.97058">
        <ele>133</ele>
        <time>2012-10-14T08:51:03Z</time>
      </trkpt>
      <trkpt lat="44.59953" lon="0.97054">
        <ele>132</ele>
        <time>2012-10-14T08:51:05Z</time>
      </trkpt>
      <trkpt lat="44.59964" lon="0.97046">
        <ele>131</ele>
        <time>2012-10-14T08:51:07Z</time>
      </trkpt>
      <trkpt lat="44.59975" lon="0.97035">
        <ele>131</ele>
        <time>2012-10-14T08:51:09Z</time>
      </trkpt>
      <trkpt lat="44.59987" lon="0.97025">
        <ele>131</ele>
        <time>2012-10-14T08:51:11Z</time>
      </trkpt>
      <trkpt lat="44.59996" lon="0.97014">
        <ele>131</ele>
        <time>2012-10-14T08:51:13Z</time>
      </trkpt>
      <trkpt lat="44.60004" lon="0.97009">
        <ele>131</ele>
        <time>2012-10-14T08:51:15Z</time>
      </trkpt>
      <trkpt lat="44.60013" lon="0.97011">
        <ele>133</ele>
        <time>2012-10-14T08:51:17Z</time>
      </trkpt>
      <trkpt lat="44.6002" lon="0.97016">
        <ele>134</ele>
        <time>2012-10-14T08:51:19Z</time>
      </trkpt>
      <trkpt lat="44.60027" lon="0.97022">
        <ele>134</ele>
        <time>2012-10-14T08:51:21Z</time>
      </trkpt>
      <trkpt lat="44.60033" lon="0.97023">
        <ele>134</ele>
        <time>2012-10-14T08:51:23Z</time>
      </trkpt>
      <trkpt lat="44.60037" lon="0.97019">
        <ele>134</ele>
        <time>2012-10-14T08:51:25Z</time>
      </trkpt>
      <trkpt lat="44.60038" lon="0.97015">
        <ele>134</ele>
        <time>2012-10-14T08:51:27Z</time>
      </trkpt>
      <trkpt lat="44.60041" lon="0.97008">
        <ele>134</ele>
        <time>2012-10-14T08:51:29Z</time>
      </trkpt>
      <trkpt lat="44.60041" lon="0.97001">
        <ele>134</ele>
        <time>2012-10-14T08:51:31Z</time>
      </trkpt>
      <trkpt lat="44.60039" lon="0.97">
        <ele>134</ele>
        <time>2012-10-14T08:51:33Z</time>
      </trkpt>
      <trkpt lat="44.6004" lon="0.97">
        <ele>134</ele>
        <time>2012-10-14T08:51:37Z</time>
      </trkpt>
    </trkseg>
  </trk>
</gpx>